[[{"header":{"parameterUnit":"m.s-1","parameterCategory":1,"la1":31.0,"la2":29.5877,"lo1":-88.7671,"lo2":-86.6584,"dy":0.0162,"dx":0.0185,"nx":115,"ny":88,"refTime":"2024-07-31T12:00:00:Z","depth":0,"parameterNumber":2,"parameterNumberName":"U-component_of_WINDS"},"data":[0.0,0.0,0.0,0.0,0.0,0.0,0.0,0.0,0.0,0.0,0.0,0.0,0.0,0.0,0.0,0.0,0.0,0.0,0.0,0.0,0.0,0.0,0.0,0.0,0.0,0.0,0.0,0.0,0.0,0.0,0.0,0.0,0.0,0.0,0.0,0.0,0.0,0.0,0.0,0.0,0.0,0.0,0.0,0.0,0.0,0.0,0.0,0.0,0.0,0.0,0.0,0.0,0.0,0.0,0.0,0.0,0.0,0.0,0.0,0.0,0.0,0.0,0.0,0.0,0.0,0.0,0.0,0.0,0.0,0.0,0.0,0.0,0.0,0.0,0.0,0.0,0.0,0.0,0.0,0.0,0.0,0.0,0.0,0.0,0.0,0.0,0.0,0.0,0.0,0.0,0.0,0.0,0.0,0.0,0.0,0.0,0.0,0.0,0.0,0.0,0.0,0.0,0.0,0.0,0.0,0.0,0.0,0.0,0.0,0.0,0.0,0.0,0.0,0.0,0.0,0.0,0.0,0.0,0.0,0.0,0.0,0.0,0.0,0.0,0.0,0.0,0.0,0.0,0.0,0.0,0.0,0.0,0.0,0.0,0.0,0.0,0.0,0.0,0.0,0.0,0.0,0.0,0.0,0.0,0.0,0.0,0.0,0.0,0.0,0.0,0.0,0.0,0.0,0.0,0.0,0.0,0.0,0.0,0.0,0.0,0.0,0.0,0.0,0.0,0.0,0.0,0.0,0.0,0.0,0.0,0.0,0.0,0.0,0.0,0.0,0.0,0.0,0.0,0.0,0.0,0.0,0.0,0.0,0.0,0.0,0.0,0.0,0.0,0.0,0.0,0.0,0.0,0.0,0.0,0.0,0.0,0.0,0.0,0.0,0.0,0.0,0.0,0.0,0.0,0.0,0.0,0.0,0.0,0.0,0.0,0.0,0.0,0.0,0.0,0.0,0.0,0.0,0.0,0.0,0.0,0.0,0.0,0.0,0.0,0.0,0.0,0.0,0.0,0.0,0.0,0.0,0.0,0.0,0.0,0.0,0.0,0.0,0.0,0.0,0.0,0.0,0.0,0.0,0.0,0.0,0.0,0.0,0.0,0.0,0.0,0.0,0.0,0.0,0.0,0.0,0.0,0.0,0.0,0.0,0.0,0.0,0.0,0.0,0.0,0.0,0.0,0.0,0.0,0.0,0.0,0.0,0.0,0.0,0.0,0.0,0.0,0.0,0.0,0.0,0.0,0.0,0.0,0.0,0.0,0.0,0.0,0.0,0.0,0.0,0.0,0.0,0.0,0.0,0.0,0.0,0.0,0.0,0.0,0.0,0.0,0.0,0.0,0.0,0.0,0.0,0.0,0.0,0.0,0.0,0.0,0.0,0.0,0.0,0.0,0.0,0.0,0.0,0.0,0.0,0.0,0.0,0.0,0.0,0.0,0.0,0.0,0.0,0.0,0.0,0.0,0.0,0.0,0.0,0.0,0.0,0.0,0.0,0.0,0.0,0.0,0.0,0.0,0.0,0.0,0.0,0.0,0.0,0.0,0.0,0.0,0.0,0.0,0.0,0.0,0.0,0.0,0.0,0.0,0.0,0.0,0.0,0.0,0.0,0.0,0.0,0.0,0.0,0.0,0.0,0.0,0.0,0.0,0.0,0.0,0.0,0.0,0.0,0.0,0.0,0.0,0.0,0.0,0.0,0.0,0.0,0.0,0.0,0.0,0.0,0.0,0.0,0.0,0.0,0.0,0.0,0.0,0.0,0.0,0.0,0.0,0.0,0.0,0.0,0.0,0.0,0.0,0.0,0.0,0.0,0.0,0.0,0.0,0.0,0.0,0.0,0.0,0.0,0.0,0.0,0.0,0.0,0.0,0.0,0.0,0.0,0.0,0.0,0.0,0.0,0.0,0.0,0.0,0.0,0.0,0.0,0.0,0.0,0.0,0.0,0.0,0.0,0.0,0.0,0.0,0.0,0.0,0.0,0.0,0.0,0.0,0.0,0.0,0.0,0.0,0.0,0.0,0.0,0.0,0.0,0.0,0.0,0.0,0.0,0.0,0.0,0.0,0.0,0.0,0.0,0.0,0.0,0.0,0.0,0.0,0.0,0.0,0.0,0.0,0.0,0.0,0.0,0.0,0.0,0.0,0.0,0.0,0.0,0.0,0.0,0.0,0.0,0.0,0.0,0.0,0.0,0.0,0.0,0.0,0.0,0.0,0.0,0.0,0.0,0.0,0.0,0.0,0.0,0.0,0.0,0.0,0.0,0.0,0.0,0.0,0.0,0.0,0.0,0.0,0.0,0.0,0.0,0.0,0.0,0.0,0.0,0.0,0.0,0.0,0.0,0.0,0.0,0.0,0.0,0.0,0.0,0.0,0.0,0.0,0.0,0.0,0.0,0.0,0.0,0.0,0.0,0.0,0.0,0.0,0.0,0.0,0.0,0.0,0.0,0.0,0.0,0.0,0.0,0.0,0.0,0.0,0.0,0.0,0.0,0.0,0.0,0.0,0.0,0.0,0.0,0.0,0.0,0.0,0.0,0.0,0.0,0.0,0.0,0.0,0.0,0.0,0.0,0.0,0.0,0.0,0.0,0.0,0.0,0.0,0.0,0.0,0.0,0.0,0.0,0.0,0.0,0.0,0.0,0.0,0.0,0.0,0.0,0.0,0.0,0.0,0.0,0.0,0.0,0.0,0.0,0.0,0.0,0.0,0.0,0.0,0.0,0.0,0.0,0.0,0.0,0.0,0.0,0.0,0.0,0.0,0.0,0.0,0.0,0.0,0.0,0.0,0.0,0.0,0.0,0.0,0.0,0.0,0.0,0.0,0.0,0.0,0.0,0.0,0.0,0.0,0.0,0.0,0.0,0.0,0.0,0.0,0.0,0.0,0.0,0.0,0.0,0.0,0.0,0.0,0.0,0.0,0.0,0.0,0.0,0.0,0.0,0.0,0.0,0.0,0.0,0.0,0.0,0.0,0.0,0.0,0.0,0.0,0.0,0.0,0.0,0.0,0.0,0.0,0.0,0.0,0.0,0.0,0.0,0.0,0.0,0.0,0.0,0.0,0.0,0.0,0.0,0.0,0.0,0.0,0.0,0.0,0.0,0.0,0.0,0.0,0.0,0.0,0.0,0.0,0.0,0.0,0.0,0.0,0.0,0.0,0.0,0.0,0.0,0.0,0.0,0.0,0.0,0.0,0.0,0.0,0.0,0.0,0.0,0.0,0.0,0.0,0.0,0.0,0.0,0.0,0.0,0.0,0.0,0.0,0.0,0.0,0.0,0.0,0.0,0.0,0.0,0.0,0.0,0.0,0.0,0.0,0.0,0.0,0.0,0.0,0.0,0.0,0.0,0.0,0.0,0.0,0.0,0.0,0.0,0.0,0.0,0.0,0.0,0.0,0.0,0.0,0.0,0.0,0.0,0.0,0.0,0.0,0.0,0.0,0.0,0.0,0.0,0.0,0.0,0.0,0.0,0.0,0.0,0.0,0.0,0.0,0.0,0.0,0.0,0.0,0.0,0.0,0.0,0.0,0.0,0.0,0.0,0.0,0.0,0.0,0.0,0.0,0.0,0.0,0.0,0.0,0.0,0.0,0.0,0.0,0.0,0.0,0.0,0.0,0.0,0.0,0.0,0.0,0.0,0.0,0.0,0.0,0.0,0.0,0.0,0.0,0.0,0.0,0.0,0.0,0.0,0.0,0.0,0.0,0.0,0.0,0.0,0.0,0.0,0.0,0.0,0.0,0.0,0.0,0.0,0.0,0.0,0.0,0.0,0.0,0.0,0.0,0.0,0.0,0.0,0.0,0.0,0.0,0.0,0.0,0.0,0.0,0.0,0.0,0.0,0.0,0.0,0.0,0.0,0.0,0.0,0.0,0.0,0.0,0.0,0.0,0.0,0.0,0.0,0.0,0.0,0.0,0.0,0.0,0.0,0.0,0.0,0.0,0.0,0.0,0.0,0.0,0.0,0.0,0.0,0.0,0.0,0.0,0.0,0.0,0.0,0.0,0.0,0.0,0.0,0.0,0.0,0.0,0.0,0.0,0.0,0.0,0.0,0.0,0.0,0.0,0.0,0.0,0.0,0.0,0.0,0.0,0.0,0.0,0.0,0.0,0.0,0.0,0.0,0.0,0.0,0.0,0.0,0.0,0.0,0.0,0.0,0.0,0.0,0.0,0.0,0.0,0.0,0.0,0.0,0.0,0.0,0.0,0.0,0.0,0.0,0.0,0.0,0.0,0.0,0.0,0.0,0.0,0.0,0.0,0.0,0.0,-0.1453,0.0,0.0,0.0,0.0,0.0,0.0,0.0,0.0,0.0,0.0,0.0,0.0,0.0,0.0,0.0,0.0,0.0,0.0,0.0,0.0,0.0,0.0,0.0,0.0,0.0,0.0,0.0,0.0,0.0,0.0,0.0,0.0,0.0,0.0,0.0,0.0,0.0,0.0,0.0,0.0,0.0,0.0,0.0,0.0,0.0,0.0,0.0,0.0,0.0,0.0,0.0,0.0,0.0,0.0,0.0,0.0,0.0,0.0,0.0,0.0,0.0,0.0,0.0,0.0,0.0,0.0,0.0,0.0,0.0,0.0,0.0,0.0,0.0,0.0,0.0,0.0,0.0,0.0,0.0,0.0,0.0,0.0,0.0,0.0,0.0,0.0,0.0,0.0,0.0,0.0,0.0,0.0,0.0,0.0,0.0,0.0,0.0,0.0,0.0,0.0,0.0,0.0,0.0,0.0,0.0,0.0,0.0,0.0,0.0,0.0,-0.17,-0.1655,-0.1666,-0.1645,-0.1666,0.0,0.0,0.0,0.0,0.0,0.0,0.0,0.0,0.0,0.0,0.0,0.0,0.0,0.0,0.0,0.0,0.0,0.0,0.0,0.0,0.0,0.0,0.0,0.0,0.0,0.0,0.0,0.0,0.0,0.0,0.0,0.0,0.0,0.0,0.0,0.0,0.0,0.0,0.0,0.0,0.0,0.0,0.0,0.0,0.0,0.0,0.0,0.0,0.0,0.0,0.0,0.0,0.0,0.0,0.0,0.0,0.0,0.0,0.0,0.0,0.0,0.0,0.0,0.0,0.0,0.0,0.0,0.0,0.0,0.0,0.0,0.0,0.0,0.0,0.0,0.0,0.0,0.0,0.0,0.0,0.0,0.0,0.0,0.0,0.0,0.0,0.0,0.0,0.0,0.0,0.0,0.0,0.0,0.0,0.0,0.0,0.0,0.0,0.0,0.0,0.0,0.0,0.0,0.0,0.0,0.0,0.0,0.0,0.0,0.0,0.0,0.0,-0.1927,-0.1948,-0.1938,0.0,0.0,0.0,0.0,0.0,0.0,0.0,0.0,0.0,0.0,0.0,0.0,0.0,0.0,0.0,0.0,0.0,0.0,0.0,0.0,0.0,0.0,0.0,0.0,0.0,0.0,0.0,0.0,0.0,0.0,0.0,0.0,0.0,0.0,0.0,0.0,0.0,0.0,0.0,0.0,0.0,0.0,0.0,0.0,0.0,0.0,0.0,0.0,0.0,0.0,0.0,0.0,0.0,0.0,0.0,0.0,0.0,0.0,0.0,0.0,0.0,0.0,0.0,0.0,0.0,0.0,0.0,0.0,0.0,0.0,0.0,0.0,0.0,0.0,0.0,0.0,0.0,0.0,0.0,0.0,0.0,0.0,0.0,0.0,0.0,0.0,0.0,0.0,0.0,0.0,0.0,0.0,0.0,0.0,0.0,0.0,0.0,0.0,0.0,0.0,0.0,0.0,0.0,0.0,0.0,0.0,0.0,0.0,0.0,0.0,-0.2381,-0.227,-0.2303,0.0,-0.2363,0.0,0.0,0.0,0.0,0.0,0.0,0.0,0.0,0.0,0.0,0.0,0.0,0.0,0.0,0.0,0.0,0.0,0.0,0.0,0.0,0.0,0.0,0.0,0.0,0.0,0.0,0.0,0.0,0.0,0.0,0.0,0.0,0.0,0.0,0.0,0.0,0.0,0.0,0.0,0.0,0.0,0.0,0.0,0.0,0.0,0.0,0.0,0.0,0.0,0.0,0.0,0.0,0.0,0.0,0.0,0.0,0.0,0.0,0.0,0.0,0.0,0.0,0.0,0.0,0.0,0.0,0.0,0.0,0.0,0.0,0.0,0.0,0.0,0.0,0.0,0.0,0.0,0.0,0.0,0.0,0.0,0.0,0.0,0.0,0.0,0.0,0.0,0.0,0.0,0.0,0.0,0.0,0.0,0.0,0.0,0.0,0.0,0.0,0.0,0.0,0.0,0.0,0.0,0.0,0.0,0.0,0.0,0.0,0.0,0.0,0.0,-0.2596,-0.2615,-0.2663,0.0,0.0,0.0,0.0,0.0,0.0,0.0,0.0,0.0,0.0,0.0,0.0,0.0,0.0,0.0,0.0,0.0,0.0,0.0,0.0,0.0,0.0,0.0,0.0,0.0,0.0,0.0,0.0,0.0,0.0,0.0,0.0,0.0,0.0,0.0,0.0,0.0,0.0,0.0,0.0,0.0,0.0,0.0,0.0,0.0,0.0,0.0,0.0,0.0,0.0,0.0,0.0,0.0,0.0,0.0,0.0,0.0,0.0,0.0,0.0,0.0,0.0,0.0,0.0,0.0,0.0,0.0,0.0,0.0,0.0,0.0,0.0,0.0,0.0,0.0,0.0,0.0,0.0,0.0,0.0,0.0,0.0,0.0,0.0,0.0,0.0,0.0,0.0,0.0,0.0,0.0,0.0,0.0,0.0,0.0,0.0,0.0,0.0,0.0,0.0,0.0,0.0,0.0,0.0,0.0,0.0,0.0,0.0,0.0,0.0,-0.322,0.0,-0.2922,-0.3025,-0.3085,-0.3035,0.0,0.0,0.0,0.0,0.0,0.0,0.0,0.0,0.0,0.0,0.0,0.0,0.0,0.0,0.0,0.0,0.0,0.0,0.0,0.0,0.0,0.0,0.0,0.0,0.0,0.0,0.0,0.0,0.0,0.0,0.0,0.0,0.0,0.0,0.0,0.0,0.0,0.0,0.0,0.0,0.0,0.0,0.0,0.0,0.0,0.0,0.0,0.0,0.0,0.0,0.0,0.0,0.0,0.0,0.0,0.0,0.0,0.0,0.0,0.0,0.0,0.0,0.0,0.0,0.0,0.0,0.0,0.0,0.0,0.0,0.0,0.0,0.0,0.0,0.0,0.0,0.0,0.0,0.0,0.0,0.0,0.0,0.0,0.0,0.0,0.0,0.0,0.0,0.0,0.0,0.0,0.0,0.0,0.0,0.0,0.0,0.0,0.0,0.0,0.0,0.0,0.0,0.0,0.0,0.0,0.0,0.0,0.0,0.0,-0.3484,-0.3323,-0.3201,-0.3642,-0.3706,0.0,0.0,0.0,0.0,0.0,0.0,0.0,0.0,0.0,0.0,0.0,0.0,0.0,0.0,0.0,0.0,0.0,0.0,0.0,0.0,0.0,0.0,0.0,0.0,0.0,0.0,0.0,0.0,0.0,0.0,0.0,0.0,0.0,0.0,0.0,0.0,0.0,0.0,0.0,0.0,0.0,0.0,0.0,0.0,0.0,0.0,0.0,0.0,0.0,0.0,0.0,0.0,0.0,0.0,0.0,0.0,0.0,0.0,0.0,0.0,0.0,0.0,0.0,0.0,0.0,0.0,0.0,0.0,0.0,0.0,0.0,0.0,0.0,0.0,0.0,0.0,0.0,0.0,0.0,0.0,0.0,0.0,0.0,0.0,0.0,0.0,0.0,0.0,0.0,0.0,0.0,0.0,0.0,0.0,0.0,0.0,0.0,0.0,0.0,0.0,0.0,0.0,0.0,0.0,0.0,0.0,0.0,0.0,0.0,-0.3862,-0.3969,-0.3983,0.0,-0.3975,-0.3887,0.0,0.0,0.0,0.0,0.0,0.0,0.0,0.0,0.0,0.0,0.0,0.0,0.0,0.0,0.0,0.0,0.0,0.0,0.0,0.0,0.0,0.0,0.0,0.0,0.0,0.0,0.0,0.0,0.0,0.0,0.0,0.0,0.0,0.0,0.0,0.0,0.0,0.0,0.0,0.0,0.0,0.0,0.0,0.0,0.0,0.0,0.0,0.0,0.0,0.0,0.0,0.0,0.0,0.0,0.0,0.0,0.0,0.0,0.0,0.0,0.0,0.0,0.0,0.0,0.0,0.0,0.0,0.0,0.0,0.0,0.0,0.0,0.0,0.0,0.0,0.0,0.0,0.0,0.0,0.0,0.0,0.0,0.0,0.0,0.0,0.0,0.0,0.0,0.0,0.0,0.0,0.0,0.0,0.0,0.0,0.0,0.0,0.0,0.0,0.0,0.0,0.0,0.0,0.0,0.0,0.0,0.0,0.0,0.0,-0.4012,0.0,-0.4597,0.0,-0.436,-0.4182,0.0,0.0,0.0,0.0,0.0,0.0,0.0,0.0,0.0,0.0,0.0,0.0,0.0,0.0,0.0,0.0,0.0,0.0,0.0,0.0,0.0,0.0,0.0,0.0,0.0,0.0,0.0,0.0,0.0,0.0,0.0,0.0,0.0,0.0,0.0,0.0,0.0,0.0,0.0,0.0,0.0,0.0,0.0,0.0,0.0,0.0,0.0,0.0,0.0,0.0,0.0,0.0,0.0,0.0,0.0,0.0,0.0,0.0,0.0,0.0,0.0,0.0,0.0,0.0,0.0,0.0,0.0,0.0,0.0,0.0,0.0,0.0,0.0,0.0,0.0,0.0,0.0,0.0,0.0,0.0,0.0,0.0,0.0,0.0,0.0,0.0,0.0,0.0,0.0,0.0,0.0,0.0,0.0,0.0,0.0,0.0,0.0,0.0,0.0,0.0,0.0,0.0,0.0,0.0,0.0,0.0,0.0,0.0,-0.4018,-0.425,-0.4885,-0.5098,-0.4815,-0.4815,-0.4708,0.0,0.0,0.0,0.0,0.0,0.0,0.0,0.0,0.0,0.0,0.0,0.0,0.0,0.0,0.0,0.0,0.0,0.0,0.0,0.0,0.0,0.0,0.0,0.0,0.0,0.0,0.0,0.0,0.0,0.0,0.0,0.0,0.0,0.0,0.0,0.0,0.0,0.0,0.0,0.0,0.0,0.0,0.0,0.0,0.0,0.0,0.0,0.0,0.0,0.0,0.0,0.0,0.0,0.0,0.0,0.0,0.0,0.0,0.0,0.0,0.0,0.0,0.0,0.0,0.0,0.0,0.0,0.0,0.0,0.0,0.0,0.0,0.0,0.0,0.0,0.0,0.0,0.0,0.0,0.0,0.0,0.0,0.0,0.0,0.0,0.0,0.0,0.0,0.0,0.0,0.0,0.0,0.0,0.0,0.0,0.0,0.0,0.0,0.0,0.0,0.0,0.0,0.0,0.0,0.0,0.0,0.0,0.0,0.0,-0.5509,-0.5905,-0.5875,-0.545,-0.5556,-0.5204,0.0,0.0,0.0,0.0,0.0,0.0,0.0,0.0,0.0,0.0,0.0,0.0,0.0,0.0,0.0,0.0,0.0,0.0,0.0,0.0,0.0,0.0,0.0,0.0,0.0,0.0,0.0,0.0,0.0,0.0,0.0,0.0,0.0,0.0,0.0,0.0,0.0,0.0,0.0,0.0,0.0,0.0,0.0,0.0,0.0,0.0,0.0,0.0,0.0,0.0,0.0,0.0,0.0,0.0,0.0,0.0,0.0,0.0,0.0,0.0,0.0,0.0,0.0,0.0,0.0,0.0,0.0,0.0,0.0,0.0,0.0,0.0,0.0,0.0,0.0,0.0,0.0,0.0,0.0,0.0,0.0,0.0,0.0,0.0,0.0,0.0,0.0,0.0,0.0,0.0,0.0,0.0,0.0,0.0,0.0,0.0,0.0,0.0,0.0,0.0,0.0,0.0,0.0,0.0,0.0,0.0,0.0,0.0,0.0,-0.6496,-0.6562,-0.6419,-0.6082,-0.5871,-0.5392,-0.4595,0.0,0.0,0.0,0.0,0.0,0.0,0.0,0.0,0.0,0.0,0.0,0.0,0.0,0.0,0.0,0.0,0.0,0.0,0.0,0.0,0.0,0.0,0.0,0.0,0.0,0.0,0.0,0.0,0.0,0.0,0.0,0.0,0.0,0.0,0.0,0.0,0.0,0.0,0.0,0.0,0.0,0.0,0.0,0.0,0.0,0.0,0.0,0.0,0.0,0.0,0.0,0.0,0.0,0.0,0.0,0.0,0.0,0.0,0.0,0.0,0.0,0.0,0.0,0.0,0.0,0.0,0.0,0.0,0.0,0.0,0.0,0.0,0.0,0.0,0.0,0.0,0.0,0.0,0.0,0.0,0.0,0.0,0.0,0.0,0.0,0.0,0.0,0.0,0.0,0.0,0.0,0.0,0.0,0.0,0.0,0.0,0.0,0.0,0.0,0.0,0.0,0.0,0.0,0.0,0.0,0.0,0.0,0.0,-0.7203,-0.6849,-0.6646,-0.6745,-0.589,-0.5365,0.0,0.0,0.0,0.0,0.0,0.0,0.0,0.0,0.0,0.0,0.0,0.0,0.0,0.0,0.0,0.0,0.0,0.0,0.0,0.0,0.0,0.0,0.0,0.0,0.0,0.0,0.0,0.0,0.0,0.0,0.0,0.0,0.0,0.0,0.0,0.0,0.0,0.0,0.0,0.0,0.0,0.0,0.0,0.0,0.0,0.0,0.0,0.0,0.0,0.0,0.0,0.0,0.0,0.0,0.0,0.0,0.0,0.0,0.0,0.0,0.0,0.0,0.0,0.0,0.0,0.0,0.0,0.0,0.0,0.0,0.0,0.0,0.0,0.0,0.0,0.0,0.0,0.0,0.0,0.0,0.0,0.0,0.0,0.0,0.0,0.0,0.0,0.0,0.0,0.0,0.0,0.0,0.0,0.0,0.0,0.0,0.0,0.0,0.0,0.0,0.0,0.0,0.0,0.0,0.0,0.0,0.0,0.0,0.0,-0.6614,-0.614,-0.6371,-0.732,-0.6866,-0.6556,0.0,0.0,0.0,0.0,0.0,0.0,0.0,0.0,0.0,0.0,0.0,0.0,0.0,0.0,0.0,0.0,0.0,0.0,0.0,0.0,0.0,0.0,0.0,0.0,0.0,0.0,0.0,0.0,0.0,0.0,0.0,0.0,0.0,0.0,0.0,0.0,0.0,0.0,0.0,0.0,0.0,0.0,0.0,0.0,0.0,0.0,0.0,0.0,0.0,0.0,0.0,0.0,0.0,0.0,0.0,0.0,0.0,0.0,0.0,0.0,0.0,0.0,0.0,0.0,0.0,0.0,0.0,0.0,0.0,0.0,0.0,0.0,0.0,0.0,0.0,0.0,0.0,0.0,0.0,0.0,0.0,0.0,0.0,0.0,0.0,0.0,0.0,0.0,0.0,0.0,0.0,0.0,0.0,0.0,0.0,0.0,0.0,0.0,0.0,0.0,0.0,0.0,0.0,0.0,0.0,0.0,0.0,0.0,-0.6172,-0.6943,-0.6631,-0.7017,-0.8176,-0.7227,-0.6692,0.0,0.0,0.0,0.0,0.0,0.0,0.0,0.0,0.0,0.0,0.0,0.0,0.0,0.0,0.0,0.0,0.0,0.0,0.0,0.0,0.0,0.0,0.0,0.0,0.0,0.0,0.0,0.0,0.0,0.0,0.0,0.0,0.0,0.0,0.0,0.0,0.0,0.0,0.0,0.0,0.0,0.0,0.0,0.0,0.0,0.0,0.0,0.0,0.0,0.0,0.0,0.0,0.0,0.0,0.0,0.0,0.0,0.0,0.0,0.0,0.0,0.0,0.0,0.0,0.0,0.0,0.0,0.0,0.0,0.0,0.0,0.0,0.0,0.0,0.0,0.0,0.0,0.0,0.0,0.0,0.0,0.0,0.0,0.0,0.0,0.0,0.0,0.0,0.0,0.0,0.0,0.0,0.0,0.0,0.0,0.0,0.0,0.0,0.0,0.0,0.0,0.0,0.0,0.0,0.0,0.0,0.0,0.0,-0.6195,-0.7588,-0.746,-0.7846,-0.8864,-0.723,-0.651,0.0,0.0,0.0,0.0,0.0,0.0,0.0,0.0,0.0,0.0,0.0,0.0,0.0,0.0,0.0,0.0,0.0,0.0,0.0,0.0,0.0,0.0,0.0,0.0,0.0,0.0,0.0,0.0,0.0,0.0,0.0,0.0,0.0,0.0,0.0,0.0,0.0,0.0,0.0,0.0,0.0,0.0,0.0,0.0,0.0,0.0,0.0,0.0,0.0,0.0,0.0,0.0,0.0,0.0,0.0,0.0,0.0,0.0,0.0,0.0,0.0,0.0,0.0,0.0,0.0,0.0,0.0,0.0,0.0,0.0,0.0,0.0,0.0,0.0,0.0,0.0,0.0,0.0,0.0,0.0,0.0,0.0,0.0,0.0,0.0,0.0,0.0,0.0,0.0,0.0,0.0,0.0,0.0,0.0,0.0,0.0,0.0,0.0,0.0,0.0,0.0,0.0,0.0,0.0,0.0,0.0,0.0,0.0,-0.6976,-0.6957,-0.6672,-0.7157,-0.8533,-0.8089,-0.8139,0.0,0.0,0.0,0.0,0.0,0.0,0.0,0.0,0.0,0.0,0.0,0.0,0.0,0.0,0.0,0.0,0.0,0.0,0.0,0.0,0.0,0.0,0.0,0.0,0.0,0.0,0.0,0.0,0.0,0.0,0.0,0.0,0.0,0.0,0.0,0.0,0.0,0.0,0.0,0.0,0.0,0.0,0.0,0.0,0.0,0.0,0.0,0.0,-0.3509,0.0,0.0,0.0,0.0,0.0,0.0,0.0,0.0,0.0,0.0,0.0,0.0,0.0,0.0,0.0,0.0,0.0,0.0,0.0,0.0,0.0,0.0,0.0,0.0,0.0,0.0,0.0,0.0,0.0,0.0,0.0,0.0,0.0,0.0,0.0,0.0,0.0,0.0,0.0,0.0,0.0,0.0,0.0,0.0,0.0,0.0,0.0,0.0,0.0,0.0,0.0,0.0,0.0,0.0,0.0,0.0,0.0,0.0,0.0,-0.7474,-0.6854,-0.6772,-0.7318,-0.8353,-0.87,-0.8991,0.0,0.0,0.0,0.0,0.0,0.0,0.0,0.0,0.0,0.0,0.0,0.0,0.0,0.0,0.0,0.0,0.0,0.0,0.0,0.0,0.0,0.0,0.0,0.0,0.0,0.0,0.0,0.0,0.0,0.0,0.0,0.0,0.0,0.0,0.0,0.0,0.0,0.0,0.0,0.0,0.0,0.0,0.0,0.0,0.0,0.0,0.0,0.0,0.0,0.0,0.0,0.0,0.0,0.0,0.0,0.0,0.0,0.0,0.0,0.0,0.0,0.0,0.0,0.0,0.0,0.0,0.0,0.0,0.0,0.0,0.0,0.0,0.0,0.0,0.0,0.0,0.0,0.0,0.0,0.0,0.0,0.0,0.0,0.0,0.0,0.0,0.0,0.0,0.0,0.0,0.0,0.0,0.0,0.0,0.0,0.0,0.0,0.0,0.0,0.0,0.0,0.0,0.0,0.0,0.0,0.0,0.0,-0.7251,-0.7554,-0.6818,-0.7244,-0.7787,-0.8389,-0.8985,-0.9199,-0.9061,0.0,0.0,0.0,0.0,0.0,0.0,0.0,0.0,0.0,0.0,0.0,0.0,0.0,0.0,0.0,0.0,0.0,0.0,0.0,0.0,0.0,0.0,0.0,0.0,0.0,0.0,0.0,0.0,0.0,0.0,0.0,0.0,0.0,0.0,0.0,0.0,0.0,0.0,-0.4596,-0.511,0.0,0.0,0.0,0.0,0.0,0.0,0.0,0.0,-1.3401,0.0,0.0,0.0,0.0,0.0,0.0,0.0,0.0,0.0,0.0,0.0,0.0,0.0,0.0,0.0,0.0,0.0,0.0,0.0,0.0,0.0,0.0,0.0,0.0,0.0,0.0,0.0,0.0,0.0,0.0,0.0,0.0,0.0,0.0,0.0,0.0,0.0,0.0,0.0,0.0,0.0,0.0,0.0,0.0,0.0,0.0,0.0,0.0,0.0,0.0,0.0,0.0,0.0,0.0,0.0,0.0,-0.6416,-0.6389,-0.6457,-0.6633,-0.721,-0.7787,-0.838,-0.8554,-0.8927,-0.9394,0.0,0.0,0.0,0.0,0.0,0.0,0.0,0.0,0.0,0.0,0.0,0.0,0.0,0.0,0.0,0.0,0.0,0.0,0.0,0.0,0.0,0.0,0.0,0.0,0.0,0.0,0.0,0.0,0.0,0.0,0.0,0.0,0.0,0.0,0.0,0.0,0.0,0.0,0.0,-1.0421,-1.0387,0.0,0.0,0.0,0.0,0.0,0.0,0.0,0.0,-1.5015,0.0,0.0,0.0,0.0,0.0,0.0,0.0,0.0,0.0,0.0,0.0,0.0,0.0,0.0,0.0,0.0,0.0,0.0,0.0,0.0,0.0,0.0,0.0,0.0,0.0,0.0,0.0,0.0,0.0,0.0,0.0,0.0,0.0,0.0,0.0,0.0,0.0,0.0,0.0,0.0,0.0,0.0,0.0,0.0,0.0,0.0,0.0,0.0,0.0,0.0,0.0,0.0,0.0,0.0,0.0,-0.5888,-0.6196,-0.6221,-0.5963,-0.7096,-0.7787,-0.7931,-0.8614,-0.893,0.0,0.0,0.0,0.0,0.0,0.0,0.0,0.0,0.0,0.0,0.0,0.0,0.0,0.0,0.0,0.0,0.0,0.0,0.0,0.0,0.0,0.0,0.0,0.0,0.0,0.0,0.0,0.0,0.0,0.0,0.0,0.0,0.0,0.0,0.0,0.0,0.0,0.0,0.0,0.0,-1.198,-1.2844,-1.0276,0.0,0.0,0.0,0.0,0.0,0.0,-1.7978,-1.7552,0.0,0.0,0.0,0.0,0.0,0.0,0.0,0.0,0.0,0.0,0.0,0.0,0.0,0.0,0.0,0.0,0.0,0.0,0.0,0.0,0.0,0.0,0.0,0.0,0.0,0.0,0.0,0.0,0.0,0.0,0.0,0.0,0.0,0.0,0.0,0.0,0.0,0.0,0.0,0.0,0.0,0.0,0.0,0.0,0.0,0.0,0.0,0.0,0.0,0.0,0.0,0.0,0.0,0.0,0.0,-0.5763,-0.6379,-0.6313,-0.5656,-0.6934,-0.7633,-0.754,-0.861,-0.892,0.0,0.0,0.0,0.0,0.0,0.0,0.0,0.0,0.0,0.0,0.0,0.0,0.0,0.0,0.0,0.0,0.0,0.0,0.0,0.0,0.0,0.0,0.0,0.0,0.0,0.0,0.0,0.0,0.0,0.0,0.0,0.0,0.0,0.0,0.0,0.0,0.0,0.0,0.0,0.0,0.0,-1.3532,-1.5973,-1.2134,0.0,0.0,0.0,0.0,-1.9282,-2.0807,0.0,0.0,0.0,0.0,0.0,0.0,0.0,0.0,0.0,0.0,0.0,0.0,0.0,0.0,0.0,0.0,0.0,0.0,0.0,0.0,0.0,0.0,0.0,0.0,0.0,0.0,0.0,0.0,0.0,0.0,0.0,0.0,0.0,0.0,0.0,0.0,0.0,0.0,0.0,0.0,0.0,0.0,0.0,0.0,0.0,0.0,0.0,0.0,0.0,0.0,0.0,0.0,0.0,0.0,0.0,0.0,-0.7182,-0.6973,-0.6676,-0.6437,-0.6718,-0.7026,-0.7464,-0.8312,-0.8699,0.0,0.0,0.0,0.0,0.0,0.0,0.0,0.0,0.0,0.0,0.0,0.0,0.0,0.0,0.0,0.0,0.0,0.0,0.0,0.0,0.0,0.0,0.0,0.0,0.0,0.0,0.0,0.0,0.0,0.0,0.0,0.0,0.0,0.0,0.0,0.0,0.0,0.0,0.0,0.0,0.0,-1.2052,-2.1247,-2.1711,-1.8627,0.0,0.0,-1.272,-1.8382,-1.4767,0.0,0.0,0.0,0.0,0.0,0.0,0.0,0.0,0.0,0.0,0.0,0.0,0.0,0.0,0.0,0.0,0.0,0.0,0.0,0.0,0.0,0.0,0.0,0.0,0.0,0.0,0.0,0.0,0.0,0.0,0.0,0.0,0.0,0.0,0.0,0.0,0.0,0.0,0.0,0.0,0.0,0.0,0.0,0.0,0.0,0.0,0.0,0.0,0.0,0.0,0.0,0.0,0.0,0.0,0.0,-0.5701,-0.7327,-0.6784,-0.6437,-0.6381,-0.7026,-0.7411,-0.748,-0.8676,-0.8938,0.0,0.0,0.0,0.0,0.0,0.0,0.0,0.0,0.0,0.0,0.0,0.0,0.0,0.0,0.0,0.0,0.0,0.0,0.0,0.0,0.0,0.0,0.0,0.0,0.0,0.0,0.0,0.0,0.0,0.0,0.0,0.0,0.0,0.0,0.0,0.0,0.0,0.0,0.0,0.0,0.0,0.0,-1.8307,-2.0158,0.0,0.0,0.0,-1.3352,-1.8317,0.0,0.0,0.0,0.0,0.0,0.0,0.0,0.0,0.0,0.0,0.0,0.0,0.0,0.0,0.0,0.0,0.0,0.0,0.0,0.0,0.0,0.0,0.0,0.0,0.0,0.0,0.0,0.0,0.0,0.0,0.0,0.0,0.0,0.0,0.0,0.0,0.0,0.0,0.0,0.0,0.0,0.0,0.0,0.0,0.0,0.0,0.0,0.0,0.0,0.0,0.0,0.0,0.0,0.0,0.0,0.0,0.0,-0.7704,-0.6591,-0.6124,-0.6381,-0.718,-0.7565,-0.754,-0.8657,0.0,0.0,0.0,0.0,0.0,0.0,0.0,0.0,0.0,0.0,0.0,0.0,0.0,0.0,0.0,0.0,0.0,0.0,0.0,0.0,0.0,0.0,0.0,0.0,0.0,0.0,0.0,-0.2312,0.0,0.0,0.0,0.0,0.0,0.0,0.0,0.0,0.0,0.0,0.0,0.0,0.0,0.0,-1.0068,-1.5337,-1.7798,-1.7549,0.0,0.0,-1.4185,-1.8987,-2.1099,-2.0311,0.0,0.0,0.0,0.0,0.0,0.0,0.0,0.0,0.0,0.0,0.0,0.0,0.0,0.0,0.0,0.0,0.0,0.0,0.0,0.0,0.0,0.0,0.0,0.0,0.0,0.0,0.0,0.0,0.0,0.0,0.0,0.0,0.0,0.0,0.0,0.0,0.0,0.0,0.0,0.0,0.0,0.0,0.0,0.0,0.0,0.0,0.0,0.0,0.0,0.0,0.0,0.0,0.0,0.0,0.0,-0.86,-0.6639,-0.6002,-0.6857,-0.6942,-0.7173,-0.7472,-0.7796,-0.8189,0.0,0.0,0.0,0.0,0.0,0.0,0.0,0.0,0.0,0.0,0.0,0.0,0.0,0.0,0.0,0.0,0.0,0.0,0.0,0.0,0.0,0.0,0.0,0.0,0.0,0.0,0.0,0.0,0.0,0.0,0.0,0.0,0.0,0.0,0.0,0.0,0.0,0.0,0.0,0.0,0.0,-1.0541,-1.5223,-1.7763,-1.7995,0.0,0.0,-1.5296,-2.0757,-2.0302,-1.8302,-1.5144,0.0,0.0,0.0,0.0,0.0,0.0,0.0,0.0,0.0,0.0,0.0,0.0,0.0,0.0,0.0,0.0,0.0,0.0,0.0,0.0,0.0,0.0,0.0,0.0,0.0,0.0,0.0,0.0,0.0,0.0,0.0,0.0,0.0,0.0,0.0,0.0,0.0,0.0,0.0,0.0,0.0,0.0,0.0,0.0,0.0,0.0,0.0,0.0,0.0,0.0,0.0,0.0,0.0,-0.6169,-0.8813,-0.7127,-0.64,-0.6857,-0.7173,-0.7326,-0.748,-0.8433,-0.8957,0.0,0.0,0.0,0.0,0.0,0.0,0.0,0.0,0.0,0.0,0.0,0.0,0.0,0.0,0.0,0.0,0.0,0.0,0.0,0.0,0.0,0.0,0.0,0.0,0.0,0.0,0.0,0.0,-0.6955,-0.996,-1.3939,0.0,0.0,0.0,0.0,0.0,0.0,0.0,0.0,0.0,0.0,-1.124,-1.5581,-1.8807,0.0,0.0,-1.8434,-1.931,-2.1439,-2.0265,-1.7943,-1.4606,-1.0666,0.0,0.0,0.0,0.0,0.0,0.0,0.0,0.0,0.0,0.0,0.0,0.0,0.0,0.0,0.0,0.0,0.0,0.0,0.0,0.0,0.0,0.0,0.0,0.0,0.0,0.0,0.0,0.0,0.0,0.0,0.0,0.0,0.0,0.0,0.0,0.0,0.0,0.0,0.0,0.0,0.0,0.0,0.0,0.0,0.0,0.0,0.0,0.0,0.0,0.0,0.0,0.0,-0.6624,-0.8664,-0.7256,-0.6518,-0.6703,-0.7096,-0.7403,-0.754,-0.845,-0.9018,0.0,0.0,0.0,0.0,0.0,0.0,0.0,0.0,0.0,0.0,0.0,0.0,0.0,0.0,0.0,0.0,0.0,0.0,0.0,0.0,0.0,0.0,0.0,0.0,0.0,0.0,0.0,0.0,-0.5546,-0.6399,-1.1018,0.0,0.0,0.0,0.0,0.0,0.0,0.0,0.0,0.0,0.0,-1.2658,-1.5655,-1.9137,-2.0472,-1.7755,-1.9698,-2.1415,-2.1415,-1.8497,-1.5329,-1.2577,0.0,0.0,0.0,0.0,0.0,0.0,0.0,0.0,0.0,0.0,0.0,0.0,0.0,0.0,0.0,0.0,0.0,0.0,0.0,0.0,0.0,0.0,0.0,0.0,0.0,0.0,0.0,0.0,0.0,0.0,-0.2595,0.0,0.0,0.0,0.0,0.0,0.0,0.0,0.0,0.0,0.0,0.0,0.0,0.0,0.0,0.0,0.0,0.0,0.0,0.0,0.0,0.0,0.0,-0.7051,-0.8163,-0.6907,-0.6234,-0.624,-0.671,-0.7096,-0.748,-0.7384,-0.7962,-0.9381,0.0,0.0,0.0,0.0,0.0,0.0,0.0,0.0,0.0,0.0,0.0,0.0,0.0,0.0,0.0,0.0,0.0,0.0,0.0,0.0,0.0,0.0,0.0,0.0,0.0,0.0,-1.1724,-0.7507,-0.4759,0.0,0.0,0.0,0.0,0.0,0.0,0.0,0.0,0.0,0.0,-1.4007,-1.5034,-1.5487,-1.834,-1.7999,-1.1249,-1.603,-2.0488,-2.0526,-1.4565,-0.9497,0.0,0.0,0.0,0.0,0.0,0.0,0.0,0.0,0.0,0.0,0.0,0.0,0.0,0.0,0.0,0.0,0.0,0.0,0.0,0.0,0.0,0.0,0.0,0.0,0.0,0.0,0.0,-0.8537,-0.8023,0.0,0.0,0.0,0.0,0.0,0.0,0.0,0.0,0.0,0.0,0.0,-0.8039,-0.8002,0.0,0.0,0.0,0.0,0.0,0.0,0.0,0.0,0.0,0.0,0.0,0.0,-0.7461,-0.8277,-0.6984,-0.6093,-0.5789,-0.6479,-0.6942,-0.7096,-0.7651,-0.8674,-1.0141,0.0,0.0,0.0,0.0,0.0,0.0,0.0,0.0,0.0,0.0,0.0,0.0,0.0,0.0,0.0,0.0,0.0,0.0,0.0,0.0,0.0,0.0,0.0,0.0,0.0,-0.8958,0.0,0.0,0.0,0.0,0.0,0.0,0.0,0.0,0.0,0.0,0.0,-1.1997,-1.4034,-1.5,-1.6277,-1.8546,-1.6743,-1.5201,0.0,0.0,0.0,0.0,0.0,0.0,0.0,0.0,0.0,0.0,0.0,0.0,0.0,0.0,-1.3867,-1.0683,-1.1902,-1.3273,-1.2785,0.0,0.0,0.0,0.0,0.0,0.0,0.0,0.0,0.0,0.0,0.0,0.0,0.0,0.0,-1.0549,0.0,-0.8396,0.0,0.0,0.0,0.0,0.0,0.0,0.0,0.0,-0.8348,-0.8381,-0.846,-0.8396,-0.8384,0.0,-0.8344,-0.8632,0.0,0.0,0.0,0.0,0.0,0.0,0.0,0.0,-0.8045,-0.8331,-0.6999,-0.6015,-0.5634,-0.6325,-0.6703,-0.6942,-0.8084,-0.9093,-0.9987,-0.9605,-0.9711,0.0,0.0,0.0,0.0,0.0,0.0,0.0,0.0,0.0,0.0,0.0,0.0,0.0,0.0,0.0,0.0,0.0,0.0,0.0,0.0,0.0,0.0,0.0,-0.7745,0.0,0.0,0.0,0.0,0.0,0.0,0.0,0.0,0.0,-1.025,-1.1375,-1.248,-1.3525,-1.4714,-1.6281,-1.8385,0.0,0.0,0.0,0.0,0.0,0.0,0.0,-1.0287,-1.0287,-1.4193,-1.6551,-1.4153,-1.5449,-1.7877,-2.1116,0.0,0.0,-1.5351,-1.6938,-1.8707,-1.8238,-2.124,-2.3896,-2.4236,-2.1175,-1.802,0.0,0.0,0.0,0.0,0.0,0.0,0.0,0.0,-1.0499,-1.028,0.0,-1.1457,0.0,0.0,0.0,0.0,0.0,-0.976,0.0,0.0,-0.9227,-0.9398,-0.9801,-0.9536,-0.9464,-0.9499,-0.9261,-0.9263,-0.9341,-0.7373,0.0,0.0,0.0,0.0,0.0,0.0,-0.8778,-0.8248,-0.6887,-0.6022,-0.5646,-0.6015,-0.6472,-0.6942,-0.8456,-0.9115,-0.903,-0.993,-1.0351,-1.0076,-1.0522,0.0,0.0,0.0,0.0,0.0,0.0,0.0,0.0,0.0,0.0,0.0,0.0,0.0,0.0,0.0,0.0,0.0,0.0,0.0,0.0,-0.8169,0.0,0.0,0.0,0.0,0.0,0.0,0.0,0.0,0.0,0.0,-1.6039,-1.6991,-1.584,-1.1685,0.0,0.0,0.0,0.0,-1.1541,-1.1496,-1.7705,-1.9617,-1.1751,-1.1146,-1.1725,-1.203,0.0,0.0,-2.2758,-2.3914,-2.4239,-2.4306,-2.4239,-2.3324,-2.0459,-2.2193,-2.4241,-2.4302,-2.4798,-2.5583,-2.6215,-2.4504,-2.3291,-1.2461,0.0,0.0,0.0,0.0,-1.1818,-1.2806,-1.3626,-1.3941,-1.4064,-1.4061,-1.3202,0.0,0.0,0.0,0.0,0.0,0.0,-1.1448,-1.056,-1.0155,-0.9653,-0.9045,-0.8692,-0.8195,-0.7682,-0.7628,-0.7366,-0.6972,-0.6266,-0.6921,-0.8958,0.0,0.0,0.0,0.0,-0.8537,-0.7456,-0.6446,-0.5689,-0.5297,-0.5905,-0.678,-0.794,-0.8399,-0.8978,-0.9595,-0.9712,-1.0143,-1.0843,-1.0265,0.0,0.0,0.0,0.0,0.0,0.0,0.0,0.0,0.0,0.0,0.0,0.0,0.0,0.0,0.0,0.0,0.0,0.0,0.0,-0.9688,-0.9072,-0.8532,0.0,0.0,0.0,0.0,0.0,0.0,0.0,0.0,0.0,-1.4568,-1.677,-1.6834,0.0,0.0,-1.2894,-1.4728,-1.3037,-1.2533,-1.5012,-1.4694,0.0,-1.5863,-1.4252,-1.4469,-1.8721,-2.2709,-2.4272,-2.0766,-2.4059,-2.7141,-2.7122,-2.6405,-2.5247,-2.3563,-2.4205,-2.5337,-2.553,-2.7179,-2.8132,-2.6586,-2.5828,-2.6794,-1.3965,-1.2572,-1.3112,-1.2941,-1.2336,-1.3132,-1.3823,-1.4419,-1.449,-1.5189,-1.6166,-1.4247,-1.3243,-1.2917,-1.3184,0.0,0.0,0.0,-1.1919,-1.0552,-1.0104,-0.9401,-0.8583,-0.8147,-0.7458,-0.6745,-0.6745,-0.6435,-0.5917,-0.6045,-0.7029,-0.855,0.0,0.0,-0.9109,-0.8572,-0.7769,-0.6768,-0.6094,-0.5403,-0.4885,-0.5937,-0.7165,-0.8475,-0.8713,-0.9084,-0.9765,-0.9862,-1.0195,-1.0797,-1.038,-1.0566,0.0,0.0,0.0,0.0,0.0,0.0,0.0,0.0,0.0,0.0,0.0,-0.6269,-0.8945,0.0,0.0,0.0,-0.9111,-0.9205,-1.0911,-1.0454,0.0,0.0,0.0,0.0,0.0,0.0,0.0,-1.6967,-1.6592,-1.5808,-1.4932,-1.7747,-1.8594,-1.5111,-1.29,-1.2175,-1.3769,0.0,-1.3996,-1.8589,-1.7036,-1.589,-1.7332,-1.7367,-1.8555,-2.2685,-2.5693,-2.639,-2.284,-2.5484,-2.8203,-2.8194,-2.7333,-2.6279,-2.5289,-2.5638,-2.6251,-2.6657,-2.7925,-2.8676,-2.7978,-2.7603,-2.8348,-1.4843,-1.3872,-1.4372,-1.42,-1.3547,-1.3899,-1.3783,-1.3444,-1.3432,-1.4599,-1.6374,-1.4894,-1.417,-1.4206,-1.4366,0.0,-1.2402,-1.237,-1.1571,-1.0157,-0.9604,-0.9027,-0.8457,-0.7886,-0.7221,-0.6455,-0.6455,-0.6178,-0.5779,-0.6405,-0.6715,-0.6599,-0.6725,-0.7212,-0.8066,-0.7408,-0.6708,-0.615,-0.5804,-0.5328,-0.4608,-0.6277,-0.7642,-0.8732,-0.9094,-0.9397,-0.9625,-1.0143,-1.0341,-1.0126,-1.0689,-1.0599,-0.9673,0.0,0.0,0.0,0.0,0.0,0.0,0.0,0.0,0.0,0.0,0.0,0.0,0.0,0.0,0.0,-1.0072,0.0,-1.2438,-1.2463,0.0,0.0,0.0,-1.4914,-1.6993,-1.7698,-1.9666,-2.3948,0.0,0.0,-1.7414,-2.0001,-2.0884,-1.862,-1.5219,-1.2902,-1.2957,-1.3872,-1.6312,-2.1837,-2.2601,-2.1202,-1.8213,-2.0062,-2.2584,-2.421,-2.5703,-2.6424,-2.5956,-2.7075,-2.8116,-2.7853,-2.7281,-2.6646,-2.6609,-2.6571,-2.6899,-2.7883,-2.7707,-2.7902,-2.9495,-2.9312,-2.8696,-1.5557,-1.5056,-1.519,-1.4779,-1.4026,-1.4854,-1.5655,-1.6346,-1.5925,-1.6303,-1.7018,-1.5857,-1.479,-1.3857,-1.325,-1.3039,-1.3201,-1.2971,-1.2559,-1.1738,-1.0624,-0.9799,-0.9005,-0.8144,-0.7413,-0.675,-0.6461,-0.6178,-0.5711,-0.5686,-0.5855,-0.612,-0.611,-0.6607,-0.7628,-0.7508,-0.6972,-0.6241,-0.6153,-0.6185,-0.6407,-0.7257,-0.8163,-0.9174,-0.9096,-0.9236,-0.9625,-0.9841,-1.0045,-0.9991,-1.011,-1.0193,-1.0237,-0.9241,0.0,0.0,0.0,0.0,0.0,0.0,0.0,0.0,0.0,-0.9158,-1.4959,0.0,-1.2677,0.0,-1.1933,-1.3476,-1.7171,-1.5789,0.0,0.0,-1.5254,-1.6951,-1.7447,-2.1567,-2.4815,-2.5908,-2.4893,-2.4126,-2.4199,-2.2888,-2.1739,-2.1075,-1.8541,-1.668,-1.6727,-1.8856,-2.1281,-2.3493,-2.3253,-2.2295,-2.1451,-2.1906,-2.3135,-2.455,-2.5845,-2.6328,-2.518,-2.6449,-2.7206,-2.6062,-2.6305,-2.6637,-2.6628,-2.6591,-2.67,-2.6899,-2.6899,-2.6899,-2.7511,-2.8846,-2.9517,-1.5463,-1.5451,-1.492,-1.4665,-1.4636,-1.5132,-1.577,-1.6386,-1.603,-1.5914,-1.5994,-1.5625,-1.4629,-1.3442,-1.3047,-1.2834,-1.2856,-1.2262,-1.1893,-1.1618,-1.034,-0.9355,-0.8691,-0.7909,-0.7186,-0.6435,-0.6241,-0.595,-0.547,-0.5326,-0.5274,-0.5407,-0.5359,-0.5746,-0.6525,-0.6845,-0.6723,-0.6102,-0.5633,-0.6093,-0.7468,-0.8427,-0.9058,-0.9503,-0.9296,-0.9319,-0.9464,-0.9768,-0.9924,-0.9752,-0.9829,-0.9992,-1.0207,-0.985,-0.9756,0.0,0.0,0.0,0.0,0.0,0.0,0.0,0.0,0.0,0.0,0.0,-1.3683,-1.3268,-1.3814,-1.5423,-1.8271,-1.8988,-1.805,-1.4888,-1.776,-1.9997,-1.9997,-2.2954,-2.5017,-2.5017,-2.5508,-2.5921,-2.5904,-2.3954,-2.2418,-2.2418,-2.0915,-2.0118,-2.0999,-2.2972,-2.4456,-2.4613,-2.4562,-2.4402,-2.4402,-2.4402,-2.4704,-2.5534,-2.6406,-2.6609,-2.5785,-2.6444,-2.6861,-2.6099,-2.6399,-2.6906,-2.6814,-2.6762,-2.6767,-2.6882,-2.7314,-2.738,-2.6738,-2.8026,-2.8574,-1.4786,-1.486,-1.3846,-1.3923,-1.4676,-1.4676,-1.4855,-1.5101,-1.4963,-1.4588,-1.4087,-1.4495,-1.3981,-1.2823,-1.3141,-1.273,-1.1897,-1.1105,-1.0628,-1.0408,-0.9253,-0.8478,-0.7952,-0.7359,-0.6653,-0.6042,-0.5942,-0.5641,-0.5236,-0.5053,-0.501,-0.4801,-0.4722,-0.5002,-0.5527,-0.6166,-0.6337,-0.605,-0.5082,-0.5747,-0.8122,-0.9307,-0.9853,-0.9656,-0.9476,-0.9322,-0.9219,-0.9662,-0.9811,-0.9626,-0.9785,-0.9947,-0.9955,-1.084,-1.1395,0.0,-1.2624,0.0,0.0,0.0,0.0,0.0,0.0,0.0,0.0,-1.371,-1.4101,-1.4697,-1.5287,-1.6077,-1.7068,-2.1329,-2.2026,-1.7301,-2.0408,-2.3085,-2.3244,-2.3292,-2.3276,-2.3276,-2.4356,-2.5103,-2.513,-2.4023,-2.3276,-2.3133,-2.2545,-2.2543,-2.4032,-2.5039,-2.548,-2.4684,-2.5569,-2.5918,-2.6077,-2.6244,-2.626,-2.6699,-2.6932,-2.7073,-2.6848,-2.6858,-2.6854,-2.697,-2.6987,-2.7142,-2.7073,-2.6964,-2.6889,-2.709,-2.7896,-2.8228,-2.7398,-2.7455,-2.7416,-1.2885,-1.2413,-1.2028,-1.2045,-1.2224,-1.2187,-1.3362,-1.5077,-1.4471,-1.3723,-1.2862,-1.2638,-1.2427,-1.2226,-1.2329,-1.1906,-1.1079,-1.0837,-1.0302,-0.9465,-0.882,-0.8123,-0.7508,-0.6691,-0.6235,-0.5947,-0.5541,-0.534,-0.514,-0.4918,-0.4971,-0.5294,-0.5266,-0.5731,-0.6551,0.0,0.0,0.0,-0.6518,-0.6624,-0.7928,-0.8854,-0.9261,-0.917,-0.8895,0.0,-0.8953,-0.9184,-0.9394,-0.9441,-0.9903,0.0,0.0,0.0,0.0,0.0,0.0,0.0,0.0,0.0,0.0,0.0,-1.5125,-1.4651,-1.4279,-1.5033,-1.5493,-1.5644,-1.4953,-1.4624,-1.4934,-1.9961,-2.3005,-2.2626,-2.2787,-2.3451,-2.4531,-2.4706,-2.4706,-2.4722,-2.4944,-2.5103,-2.5071,-2.4849,-2.4484,-2.3943,-2.3594,-2.3358,-2.331,-2.3599,-2.3568,-2.3456,-2.4479,-2.5162,-2.537,-2.5273,-2.5639,-2.6592,-2.7056,-2.7004,-2.7107,-2.7073,-2.709,-2.7073,-2.7073,-2.7073,-2.7073,-2.7056,-2.7107,-2.7039,-2.7315,-2.7709,-2.8355,-2.859,-2.8645,-1.2579,0.0,-1.1118,-1.0826,0.0,-1.0675,-1.1327,-1.2617,-1.2729,-1.2248,-1.1431,-1.1176,-1.0782,-1.0404,-1.116,-1.0809,-0.9738,-0.9792,-0.9235,-0.8361,-0.7773,-0.7229,-0.6604,-0.6187,-0.5955,-0.5695,-0.544,-0.5213,-0.5107,-0.4758,-0.4914,-0.5461,-0.5363,-0.5699,-0.6458,-0.6739,-0.7169,-0.7878,-0.7375,-0.7418,-0.7986,-0.8345,-0.8611,-0.869,-0.8576,0.0,0.0,0.0,0.0,0.0,0.0,0.0,0.0,0.0,0.0,-1.3525,-1.4748,-1.5515,-1.5687,-1.431,-1.4141,-1.5682,-1.579,-1.5447,-1.4921,-1.5511,-1.5672,-1.5148,-1.4515,-1.5148,-1.7371,-2.027,-2.2403,-2.3487,-2.3877,-2.4356,-2.496,-2.5103,-2.5103,-2.5103,-2.5103,-2.5103,-2.5103,-2.5103,-2.4976,-2.4611,-2.4277,-2.3927,-2.3578,-2.3213,-2.3022,-2.3038,-2.3796,-2.458,-2.5044,-2.5092,-2.5142,-2.5935,-2.6327,-2.6692,-2.7073,-2.7073,-2.7073,-2.7073,-2.7073,-2.7073,-2.7073,-2.7073,-2.7073,-2.7073,-2.7073,-2.7315,-2.79,-2.8037,-2.8259,-1.2471,-1.2031,-1.0332,-0.9882,-1.0174,-0.9464,-0.9305,-0.9595,0.0,0.0,0.0,-0.9889,-0.9244,-0.8478,-0.9761,-0.9593,-0.8501,-0.8381,-0.802,-0.7381,-0.6757,-0.6338,-0.5984,-0.5873,-0.5762,-0.5536,-0.5557,-0.5507,-0.5175,-0.4997,-0.5153,-0.5636,-0.5436,-0.5641,-0.6132,-0.6634,-0.7215,-0.7841,-0.7834,-0.7966,-0.8065,-0.7834,-0.799,-0.8345,-0.8277,-0.819,-0.7992,-0.91,-0.9829,-1.0079,-1.0207,-1.0625,-1.1195,-1.1489,-1.2071,-1.294,-1.3809,-1.4377,-1.4558,-1.4386,-1.469,-1.5851,-1.5731,-1.5543,-1.5306,-1.5457,-1.5256,-1.4299,-1.4191,-1.5779,-1.9361,-2.0257,-2.0888,-2.187,-2.3805,-2.5087,-2.5103,-2.5103,-2.5103,-2.5103,-2.5103,-2.5103,-2.5103,-2.5103,-2.5103,-2.5056,-2.4754,-2.4468,-2.4213,-2.3816,-2.3514,-2.3562,-2.3933,-2.4396,-2.4897,-2.5056,-2.5103,-2.521,-2.5594,-2.6205,-2.6692,-2.7073,-2.7073,-2.7073,-2.7073,-2.7073,-2.7073,-2.7073,-2.7073,-2.7073,-2.7073,-2.7073,-2.7073,-2.7073,-2.7435,-1.1232,-0.9958,-0.9335,-0.9017,-0.9086,-0.8592,-0.8224,-0.7967,-0.9208,-0.937,-0.8838,-0.8756,-0.8478,-0.8029,-0.8336,-0.8005,-0.7459,-0.7425,-0.7095,-0.6448,-0.6433,-0.6274,-0.6093,-0.5872,-0.5612,-0.5541,-0.6253,-0.6401,-0.5906,-0.6594,-0.6839,-0.6348,-0.6042,-0.6137,-0.6731,-0.7415,-0.7898,-0.797,-0.7739,-0.7809,-0.8011,-0.7531,-0.7554,-0.8098,-0.797,-0.7991,-0.8295,-0.8488,-0.9123,-1.0258,-1.119,-1.1666,-1.1793,-1.3088,-1.3918,-1.4063,-1.422,-1.469,-1.5584,-1.473,-1.4645,-1.5578,-1.4965,-1.4798,-1.5695,-1.4976,-1.4407,-1.4191,-1.4191,-1.4407,-1.524,-1.7818,-1.9211,-1.8459,-2.231,-2.5103,-2.5103,-2.5103,-2.5103,-2.5103,-2.5103,-2.5103,-2.5103,-2.5103,-2.5103,-2.5103,-2.5008,-2.496,-2.4897,-2.4881,-2.4817,-2.4738,-2.4356,-2.4404,-2.4928,-2.5103,-2.5103,-2.5103,-2.5226,-2.5472,-2.6083,-2.6571,-2.6952,-2.7073,-2.7073,-2.7073,-2.7073,-2.7073,-2.7073,-2.7073,-2.7073,-2.7073,-2.7073,-2.7073,-2.7194,-1.1416,-1.0513,-0.9658,-0.9274,-0.8946,-0.8696,-0.8365,-0.8051,-0.8506,-0.8301,-0.7739,-0.7679,-0.7326,-0.6811,-0.7188,-0.7051,-0.6618,-0.6991,-0.6779,-0.6184,-0.6189,-0.5973,-0.5762,-0.5652,-0.5845,-0.634,-0.6706,-0.6967,-0.7012,-0.7264,-0.7267,-0.7047,-0.7077,-0.7235,-0.7434,-0.7839,-0.8038,-0.8031,-0.7909,-0.7856,-0.79,-0.7719,-0.7667,-0.7819,-0.7819,-0.7914,-0.8078,-0.9055,-1.0002,-1.0765,-1.2037,-1.2916,-1.3218,-1.3438,-1.3675,-1.4208,-1.4253,-1.4446,-1.49,-1.4515,-1.4614,-1.5726,-1.5942,-1.5962,-1.5783,-1.5927,-1.5523,-1.4364,-1.4191,-1.4746,-1.5908,-1.9155,-1.9879,-1.6484,-2.1519,-2.4964,-2.5103,-2.5103,-2.5103,-2.5103,-2.5103,-2.5103,-2.5103,-2.5103,-2.5103,-2.5103,-2.5103,-2.5103,-2.5103,-2.5103,-2.5103,-2.5071,-2.4833,-2.4785,-2.5056,-2.5103,-2.5103,-2.5103,-2.5103,-2.5226,-2.5594,-2.5839,-2.6344,-2.6952,-2.7073,-2.7073,-2.7073,-2.7073,-2.7073,-2.7073,-2.7073,-2.7073,-2.7073,-2.7073,-2.7073,-1.0306,-1.069,-0.9546,-0.8997,-0.8878,-0.9032,-0.8971,-0.857,-0.8343,-0.7817,-0.7036,-0.6934,-0.6379,-0.585,-0.6299,-0.6255,-0.6027,-0.6491,-0.6393,-0.5923,-0.5823,-0.5643,-0.5373,-0.5489,-0.6047,-0.6811,-0.7166,-0.7539,-0.7822,-0.783,-0.7824,-0.7801,-0.7958,-0.8092,-0.8092,-0.7959,-0.7945,-0.8038,-0.8038,-0.7984,-0.7875,-0.7977,-0.7916,-0.7678,-0.765,-0.7828,-0.8153,-0.9567,-1.0644,-1.1419,-1.2459,-1.3389,-1.4146,-1.3512,-1.3416,-1.4105,-1.4191,-1.4191,-1.4191,-1.4191,-1.4658,-1.5909,-1.689,-1.7065,-1.6161,-1.6658,-1.6356,-1.4604,-1.5584,-1.7043,-1.88,-2.1496,-2.1948,-1.8451,-2.1689,-2.4585,-2.504,-2.5103,-2.5103,-2.5103,-2.5103,-2.5103,-2.5103,-2.5103,-2.5103,-2.5103,-2.5103,-2.5103,-2.5103,-2.5103,-2.5103,-2.5103,-2.5103,-2.5087,-2.5103,-2.5103,-2.5103,-2.5103,-2.5103,-2.5103,-2.5103,-2.5103,-2.5349,-2.6344,-2.6587,-2.6709,-2.6952,-2.7073,-2.6952,-2.6709,-2.683,-2.7073,-2.7073,-2.7073,-2.7073,-0.5369,-0.8435,-0.7341,-0.728,-0.8102,-0.9263,-0.9447,-0.9094,-0.8441,-0.7985,-0.7444,-0.6706,-0.6084,-0.5597,-0.5522,-0.5592,-0.5477,-0.5579,-0.5579,-0.5477,-0.5481,-0.5262,-0.515,-0.5819,-0.6154,-0.6265,-0.7796,-0.8388,-0.796,-0.8904,-0.9033,-0.8465,-0.8316,-0.8248,-0.8235,-0.7818,-0.7746,-0.8038,-0.8038,-0.8031,-0.8018,-0.8031,-0.7963,-0.7801,-0.7517,-0.7973,-0.9114,-0.9253,-1.034,-1.226,-1.1821,-1.221,-1.3925,-1.4118,-1.4094,-1.418,-1.4202,-1.4191,-1.4213,-1.4191,-1.4922,-1.6226,-1.7079,-1.7103,-1.6446,-1.6149,-1.5434,-1.5487,-1.9251,-2.1759,-2.2487,-2.3803,-2.428,-2.3551,-2.3386,-2.3689,-2.4849,-2.5103,-2.5103,-2.5103,-2.5103,-2.5103,-2.5103,-2.5103,-2.5103,-2.5103,-2.5103,-2.5103,-2.5103,-2.5103,-2.5103,-2.5103,-2.5103,-2.5103,-2.5103,-2.5103,-2.5103,-2.5103,-2.5103,-2.5103,-2.5103,-2.5103,-2.5226,-2.5472,-2.5472,-2.5839,-2.6587,-2.7073,-2.6587,-2.5961,-2.6222,-2.7073,-2.7073,-2.7073,-2.7073,-0.3228,-0.4967,-0.59,-0.6677,-0.7044,-0.7705,-0.768,-0.7243,-0.6927,-0.6623,-0.6558,-0.606,-0.5741,-0.559,-0.5549,-0.5484,-0.5386,-0.5382,-0.5382,-0.5382,-0.5382,-0.5489,-0.5819,-0.6042,-0.6705,-0.7593,-0.8478,-0.8893,-0.8941,-0.9075,-0.889,-0.8608,-0.8472,-0.8397,-0.8391,-0.8233,-0.8057,-0.7971,-0.7985,-0.7879,-0.7642,-0.7585,-0.7553,-0.7585,-0.756,-0.818,-0.9361,-0.9934,-1.1018,-1.2385,-1.282,-1.336,-1.4101,-1.419,-1.3867,-1.3325,-1.4119,-1.4729,-1.4999,-1.4762,-1.5659,-1.7977,-1.6997,-1.6419,-1.6655,-1.8609,-2.0155,-2.0798,-2.2139,-2.3022,-2.307,-2.3546,-2.4182,-2.4817,-2.4563,-2.4484,-2.5008,-2.5103,-2.5103,-2.5103,-2.5103,-2.5103,-2.5103,-2.5103,-2.5103,-2.5103,-2.5103,-2.5103,-2.5103,-2.5103,-2.5103,-2.5103,-2.5103,-2.5103,-2.5103,-2.5103,-2.5103,-2.5103,-2.5103,-2.5103,-2.5103,-2.5103,-2.5103,-2.5103,-2.5103,-2.5226,-2.5717,-2.6205,-2.6205,-2.5472,-2.5226,-2.5961,-2.5978,-2.6587,-2.6952,-0.2155,-0.2558,-0.483,-0.5767,-0.59,-0.6301,-0.6301,-0.603,-0.5708,-0.5686,-0.5675,-0.5569,-0.5522,-0.5445,-0.5626,-0.5622,-0.5467,-0.5455,-0.5535,-0.5609,-0.5601,-0.5935,-0.6376,-0.671,-0.7393,-0.8418,-0.8836,-0.9154,-0.9471,-0.905,-0.8771,-0.875,-0.8621,-0.8547,-0.8547,-0.8547,-0.8282,-0.7962,-0.7756,-0.756,-0.7467,-0.7374,-0.7339,-0.7522,-0.7836,-0.8594,-0.9877,-1.0791,-1.1773,-1.2762,-1.3542,-1.3975,-1.3975,-1.3759,-1.3423,-1.3128,-1.4722,-1.5772,-1.5677,-1.5268,-1.6138,-1.8313,-1.7793,-1.7455,-1.7855,-2.0433,-2.3181,-2.4617,-2.3832,-2.3022,-2.3022,-2.3022,-2.3562,-2.4642,-2.496,-2.5103,-2.5103,-2.5103,-2.5103,-2.5103,-2.5103,-2.5103,-2.5103,-2.5103,-2.5103,-2.5103,-2.5103,-2.5103,-2.5103,-2.5103,-2.5103,-2.5103,-2.5103,-2.5103,-2.5103,-2.5103,-2.5103,-2.5103,-2.5103,-2.5103,-2.5103,-2.5103,-2.5103,-2.5103,-2.5103,-2.5103,-2.5349,-2.5594,-2.5839,-2.5349,-2.5103,-2.5103,-2.5226,-2.7039,-2.8938,-0.2155,-0.2423,-0.3765,-0.4434,-0.4434,-0.5767,-0.6297,-0.6034,-0.5496,-0.5366,-0.5362,-0.5355,-0.5274,-0.5248,-0.5741,-0.569,-0.542,-0.5635,-0.5894,-0.6196,-0.6284,-0.6492,-0.6715,-0.7493,-0.7891,-0.8201,-0.8673,-0.8954,-0.9058,-0.8933,-0.8927,-0.892,-0.8791,-0.871,-0.8615,-0.852,-0.8278,-0.8119,-0.7188,-0.6883,-0.7535,-0.7567,-0.7679,-0.7736,-0.8508,-0.9563,-1.0774,-1.1567,-1.2436,-1.3542,-1.3434,-1.3315,-1.3315,-1.29,-1.3158,-1.4179,-1.6625,-1.734,-1.6049,-1.5751,-1.6385,-1.7843,-2.0385,-2.1517,-1.9452,-2.0524,-2.221,-2.4655,-2.3403,-2.2796,-2.2922,-2.2972,-2.3292,-2.4007,-2.4722,-2.5056,-2.5103,-2.5103,-2.5103,-2.5103,-2.5103,-2.5103,-2.5103,-2.5103,-2.5103,-2.5103,-2.5103,-2.5103,-2.5103,-2.5103,-2.5103,-2.5103,-2.5103,-2.5103,-2.5103,-2.5103,-2.5103,-2.5103,-2.5103,-2.5103,-2.5103,-2.5103,-2.5103,-2.5103,-2.5103,-2.5103,-2.5103,-2.5103,-2.5226,-2.5103,-2.5103,-2.5103,-2.5103,-3.0296,-3.1727,-0.2155,-0.229,-0.2692,-0.2961,-0.2959,-0.3495,-0.3763,-0.3629,-0.3497,-0.3631,-0.3897,-0.4034,-0.4948,-0.6362,-0.6031,-0.5843,-0.5839,-0.6659,-0.6936,-0.6808,-0.7497,-0.7875,-0.7743,-0.8369,-0.8723,-0.903,-0.9209,-0.93,-0.93,-0.93,-0.9462,-0.9412,-0.9181,-0.8923,-0.8784,-0.8691,-0.842,-0.7991,-0.7697,-0.7633,-0.7624,-0.9208,-0.9683,-0.8633,-0.9001,-1.0082,-1.1753,-1.2265,-1.2824,-1.3516,-1.3367,-1.3098,-1.293,-1.3861,-1.4625,-1.5221,-1.7183,-1.8533,-1.8796,-1.8109,-1.8214,-1.9708,-2.0247,-2.1061,-2.1005,-2.1094,-2.1313,-2.1441,-2.1088,-2.09,-2.1828,-2.2518,-2.3117,-2.3467,-2.4404,-2.5103,-2.5103,-2.5103,-2.5103,-2.5103,-2.5103,-2.5103,-2.5103,-2.5103,-2.5103,-2.5103,-2.5103,-2.5103,-2.5103,-2.5103,-2.5103,-2.5103,-2.5103,-2.5103,-2.5103,-2.5103,-2.5103,-2.5103,-2.5103,-2.5103,-2.5103,-2.5103,-2.5103,-2.5103,-2.5103,-2.5103,-2.5103,-2.5103,-2.5103,-2.5103,-2.5103,-2.5103,-2.5103,-2.8646,-2.9846,-0.2155,-0.2155,-0.2155,-0.2155,-0.2155,-0.2155,-0.2155,-0.2155,-0.2155,-0.2423,-0.2825,-0.3094,-0.444,-0.6191,-0.6049,-0.6325,-0.685,-0.7521,-0.7654,-0.7517,-0.8468,-0.894,-0.9122,-0.9401,-0.9627,-0.9889,-0.9874,-0.9846,-0.9795,-0.9788,-0.9853,-0.9824,-0.9617,-0.9273,-0.9142,-0.9078,-0.8813,-0.8408,-0.8395,-0.8413,-0.8482,-1.0242,-1.1121,-1.0405,-1.0308,-1.0914,-1.2289,-1.2748,-1.306,-1.3364,-1.3354,-1.3256,-1.3556,-1.4771,-1.5364,-1.5235,-1.7103,-1.9226,-2.0569,-2.0131,-2.0172,-2.1378,-2.104,-2.1146,-2.1732,-2.1754,-2.1382,-2.0722,-2.0648,-2.0929,-2.1328,-2.2676,-2.3514,-2.3324,-2.4261,-2.5087,-2.5103,-2.5103,-2.5103,-2.5103,-2.5103,-2.5103,-2.5103,-2.5103,-2.5103,-2.5103,-2.5103,-2.5103,-2.5103,-2.5103,-2.5103,-2.5103,-2.5103,-2.5103,-2.5103,-2.5103,-2.5103,-2.5103,-2.5103,-2.5103,-2.5103,-2.5103,-2.5103,-2.5103,-2.5103,-2.5103,-2.5103,-2.5103,-2.5103,-2.5103,-2.5103,-2.5103,-2.5349,-2.5717,-2.7159,-0.2155,-0.2155,-0.2155,-0.2155,-0.2155,-0.2155,-0.2155,-0.2155,-0.2155,-0.229,-0.2423,-0.2827,-0.3765,-0.4973,-0.5912,-0.7098,-0.8486,-0.8183,-0.8237,-0.8897,-0.9117,-0.9647,-1.045,-1.0472,-1.0576,-1.0532,-1.0665,-1.0465,-1.0308,-1.0301,-1.02,-0.9975,-0.9859,-0.9634,-0.9395,-0.9426,-0.9367,-0.9016,-0.8992,-0.9303,-1.0179,-1.0778,-1.1551,-1.2342,-1.2566,-1.2495,-1.2294,-1.3098,-1.347,-1.3461,-1.3317,-1.3848,-1.4949,-1.5332,-1.5007,-1.452,-1.6632,-1.9074,-2.0902,-2.1388,-2.1525,-2.2184,-2.2573,-2.227,-2.1811,-2.24,-2.2798,-2.2682,-2.2668,-2.2438,-2.1811,-2.3237,-2.4348,-2.3451,-2.4388,-2.5071,-2.5103,-2.5103,-2.5103,-2.5103,-2.5103,-2.5103,-2.5103,-2.5103,-2.5103,-2.5103,-2.5103,-2.5103,-2.5103,-2.5103,-2.5103,-2.5103,-2.5103,-2.5103,-2.5103,-2.5103,-2.5103,-2.5103,-2.5103,-2.5103,-2.5103,-2.5103,-2.5103,-2.5103,-2.5103,-2.5103,-2.5103,-2.5103,-2.5103,-2.5103,-2.5103,-2.5226,-2.5717,-2.6083,-2.6205,-0.2155,-0.2155,-0.2155,-0.2155,-0.2155,-0.2155,-0.2155,-0.2155,-0.2155,-0.2155,-0.2289,-0.2423,-0.3497,-0.5372,-0.6969,-0.8568,-0.9769,-0.9939,-1.0071,-1.0424,-1.1031,-1.1143,-1.1072,-1.1256,-1.131,-1.1117,-1.1327,-1.124,-1.0863,-1.0597,-1.0524,-1.0487,-0.9933,-0.9591,-0.9313,-0.9372,-0.9271,-0.9035,-0.968,-1.0065,-1.0186,-1.2113,-1.2919,-1.2525,-1.3177,-1.3618,-1.3268,-1.3731,-1.3849,-1.3603,-1.3613,-1.3798,-1.4262,-1.4291,-1.4162,-1.4043,-1.6161,-1.8739,-2.0888,-2.1553,-2.2039,-2.255,-2.2637,-2.2515,-2.2537,-2.285,-2.3106,-2.3106,-2.3106,-2.2856,-2.2731,-2.3106,-2.3871,-2.4379,-2.4849,-2.5103,-2.5103,-2.5103,-2.5103,-2.5103,-2.5103,-2.5103,-2.5103,-2.5103,-2.5103,-2.5103,-2.5103,-2.5103,-2.5103,-2.5103,-2.5103,-2.5103,-2.5103,-2.5103,-2.5103,-2.5103,-2.5103,-2.5103,-2.5103,-2.5103,-2.5103,-2.5103,-2.5103,-2.5103,-2.5103,-2.5103,-2.5103,-2.5103,-2.5103,-2.5103,-2.5103,-2.5472,-2.61,-2.6344,-2.6344,-0.2155,-0.2155,-0.2155,-0.2155,-0.2155,-0.2155,-0.2155,-0.2155,-0.2155,-0.2423,-0.2692,-0.2423,-0.3631,-0.5904,-0.7897,-0.9359,-1.0571,-1.1233,-1.1717,-1.1896,-1.2019,-1.1985,-1.1626,-1.1894,-1.1831,-1.1757,-1.1848,-1.1752,-1.1471,-1.1102,-1.0876,-1.0642,-1.0208,-0.9727,-0.9451,-0.9457,-0.9335,-0.9214,-1.0186,-1.0671,-1.1027,-1.2835,-1.3684,-1.3204,-1.3684,-1.3933,-1.3693,-1.3933,-1.3933,-1.3684,-1.3693,-1.3693,-1.3693,-1.3693,-1.3693,-1.4431,-1.7031,-1.9938,-2.1075,-2.173,-2.2315,-2.2871,-2.274,-2.2681,-2.3032,-2.3106,-2.3106,-2.3106,-2.3106,-2.3106,-2.3106,-2.3604,-2.4239,-2.498,-2.5087,-2.5103,-2.5103,-2.5103,-2.5103,-2.5103,-2.5103,-2.5103,-2.5103,-2.5103,-2.5103,-2.5103,-2.5103,-2.5103,-2.5103,-2.5103,-2.5103,-2.5103,-2.5103,-2.5103,-2.5103,-2.5103,-2.5103,-2.5103,-2.5103,-2.5103,-2.5103,-2.5103,-2.5103,-2.5103,-2.5103,-2.5103,-2.5103,-2.5103,-2.5103,-2.5103,-2.5103,-2.5349,-2.5733,-2.6344,-2.6466,-0.2155,-0.2155,-0.2155,-0.2155,-0.2155,-0.2155,-0.2155,-0.2155,-0.2155,-0.2692,-0.323,-0.2961,-0.4168,-0.6711,-0.8302,-0.9896,-1.1101,-1.2033,-1.27,-1.2816,-1.2545,-1.218,-1.2427,-1.2418,-1.2202,-1.2178,-1.2154,-1.2057,-1.1773,-1.1395,-1.1218,-1.0708,-1.0329,-1.0065,-0.9829,-0.9822,-0.9579,-0.97,-1.055,-1.1277,-1.1752,-1.2964,-1.3813,-1.3933,-1.3813,-1.3693,-1.3693,-1.3693,-1.3693,-1.3693,-1.3693,-1.3693,-1.3813,-1.3923,-1.4629,-1.4301,-1.9031,-2.1123,-2.1657,-2.2081,-2.2696,-2.3032,-2.3062,-2.3106,-2.3106,-2.3106,-2.3106,-2.3106,-2.323,-2.3355,-2.3604,-2.4239,-2.498,-2.5103,-2.5103,-2.5103,-2.5103,-2.5103,-2.5103,-2.5103,-2.5103,-2.5103,-2.5103,-2.5103,-2.5103,-2.5103,-2.5103,-2.5103,-2.5103,-2.5103,-2.5103,-2.5103,-2.5103,-2.5103,-2.5103,-2.5103,-2.5103,-2.5103,-2.5103,-2.5103,-2.5103,-2.5103,-2.5103,-2.5103,-2.5103,-2.5103,-2.5103,-2.5103,-2.5103,-2.5103,-2.5103,-2.5103,-2.5349,-2.5961,-2.6327,-0.2155,-0.2155,-0.2155,-0.2155,-0.2155,-0.2155,-0.2155,-0.2155,-0.2155,-0.2423,-0.2827,-0.4031,-0.497,-0.6439,-0.963,-1.1233,-1.1769,-1.2955,-1.3358,-1.3235,-1.284,-1.2553,-1.2735,-1.2588,-1.2371,-1.2098,-1.2012,-1.1775,-1.1477,-1.1217,-1.1003,-1.0609,-1.0341,-1.0046,-0.9842,-0.9585,-0.9822,-1.0429,-1.0914,-1.1639,-1.2354,-1.3204,-1.3693,-1.3813,-1.3813,-1.3693,-1.3693,-1.3693,-1.3693,-1.3693,-1.3693,-1.3693,-1.4162,-1.6973,-1.7479,-1.56,-1.8936,-2.2359,-2.255,-2.2593,-2.2784,-2.3062,-2.3106,-2.3106,-2.3106,-2.3106,-2.3106,-2.323,-2.3852,-2.4487,-2.461,-2.4857,-2.5103,-2.5103,-2.5103,-2.5103,-2.5103,-2.5103,-2.5103,-2.5103,-2.5103,-2.5103,-2.5103,-2.5103,-2.5103,-2.5103,-2.5103,-2.5103,-2.5103,-2.5103,-2.5103,-2.5103,-2.5103,-2.5103,-2.5103,-2.5103,-2.5103,-2.5103,-2.5103,-2.5103,-2.5103,-2.5103,-2.5103,-2.5103,-2.5103,-2.5103,-2.5103,-2.5103,-2.5103,-2.5103,-2.5103,-2.5103,-2.5103,-2.5472,-2.5717,-0.2155,-0.2155,-0.2155,-0.2155,-0.2155,-0.2155,-0.2155,-0.2155,-0.2155,-0.2423,-0.2961,-0.3631,-0.5235,-0.7369,-1.069,-1.2165,-1.2173,-1.3358,-1.3621,-1.3104,-1.2708,-1.27,-1.2676,-1.2449,-1.2157,-1.2141,-1.1926,-1.1592,-1.1509,-1.1449,-1.1446,-1.1301,-1.1031,-1.0732,-1.0537,-1.0162,-1.0162,-1.0638,-1.1316,-1.2113,-1.2475,-1.3324,-1.3684,-1.3693,-1.3693,-1.3721,-1.3807,-1.3825,-1.3825,-1.3807,-1.375,-1.4162,-1.5451,-1.8971,-2.0014,-1.778,-2.0889,-2.2754,-2.2974,-2.2915,-2.293,-2.3062,-2.3106,-2.3106,-2.3106,-2.3106,-2.3106,-2.323,-2.3867,-2.4239,-2.4363,-2.4734,-2.5103,-2.5103,-2.5103,-2.5103,-2.5103,-2.5103,-2.5103,-2.5103,-2.5103,-2.5103,-2.5103,-2.5103,-2.5103,-2.5103,-2.5103,-2.5103,-2.5103,-2.5103,-2.5103,-2.5103,-2.5103,-2.5103,-2.5103,-2.5103,-2.5103,-2.5103,-2.5103,-2.5103,-2.5103,-2.5103,-2.5103,-2.5103,-2.5103,-2.5103,-2.5103,-2.5103,-2.5103,-2.5103,-2.5103,-2.5472,-2.5717,-2.5945,-2.6189,-0.2289,-0.2155,-0.2289,-0.2289,-0.2289,-0.2155,-0.2155,-0.2155,-0.2155,-0.2692,-0.3365,-0.2961,-0.5232,-0.8701,-1.1615,-1.2824,-1.2437,-1.349,-1.3358,-1.2964,-1.2444,-1.2437,-1.2568,-1.2157,-1.201,-1.201,-1.1776,-1.1788,-1.1774,-1.2258,-1.2582,-1.2432,-1.225,-1.1979,-1.1555,-1.121,-1.0885,-1.0826,-1.1817,-1.2475,-1.2715,-1.3324,-1.3693,-1.3693,-1.375,-1.3835,-1.3958,-1.426,-1.4421,-1.4317,-1.3984,-1.4751,-1.6854,-1.9336,-2.118,-2.2219,-2.2587,-2.3047,-2.3106,-2.3076,-2.3091,-2.3106,-2.3106,-2.3106,-2.3106,-2.3106,-2.3106,-2.3106,-2.3106,-2.3355,-2.3867,-2.4487,-2.498,-2.5103,-2.5103,-2.5103,-2.5103,-2.5103,-2.5103,-2.5103,-2.5103,-2.5103,-2.5103,-2.5103,-2.5103,-2.5103,-2.5103,-2.5103,-2.5103,-2.5103,-2.5103,-2.5103,-2.5103,-2.5103,-2.5103,-2.5103,-2.5103,-2.5103,-2.5103,-2.5103,-2.5103,-2.5103,-2.5103,-2.5103,-2.5103,-2.5103,-2.5103,-2.5103,-2.5103,-2.5103,-2.5103,-2.5945,-2.69,-2.728,-2.7521,-0.3228,-0.2289,-0.3362,-0.3228,-0.2289,-0.2155,-0.229,-0.2289,-0.229,-0.2558,-0.2959,-0.4559,-0.6694,-0.8828,-1.2413,-1.3884,-1.2832,-1.349,-1.3481,-1.284,-1.218,-1.2173,-1.2312,-1.1916,-1.1644,-1.1512,-1.138,-1.168,-1.2185,-1.2586,-1.2952,-1.3514,-1.346,-1.3152,-1.244,-1.2092,-1.2051,-1.2043,-1.238,-1.2724,-1.3204,-1.3444,-1.3693,-1.3721,-1.3854,-1.3948,-1.4269,-1.5258,-1.5918,-1.5763,-1.5047,-1.4908,-1.5566,-1.6431,-1.8973,-2.2075,-2.3106,-2.3106,-2.3106,-2.3106,-2.3106,-2.3106,-2.3106,-2.3106,-2.3106,-2.3106,-2.3106,-2.3106,-2.3106,-2.3604,-2.4363,-2.4857,-2.5103,-2.5103,-2.5103,-2.5103,-2.5103,-2.5103,-2.5103,-2.5103,-2.5103,-2.5103,-2.5103,-2.5103,-2.5103,-2.5103,-2.5103,-2.5103,-2.5103,-2.5103,-2.5103,-2.5103,-2.5103,-2.5103,-2.5103,-2.5103,-2.5103,-2.5103,-2.5103,-2.5103,-2.5103,-2.5226,-2.5226,-2.5226,-2.5103,-2.5103,-2.5103,-2.5103,-2.5103,-2.5103,-2.5226,-2.6067,-2.7039,-2.7882,-2.8719,-0.3497,-0.2423,-0.4434,-0.4434,-0.3362,-0.3895,-0.3763,-0.3495,-0.4297,-0.3761,-0.336,-0.6423,-0.8811,-0.9883,-1.2939,-1.4015,-1.349,-1.3095,-1.2964,-1.2708,-1.218,-1.1909,-1.1916,-1.1784,-1.138,-1.124,-1.1687,-1.1988,-1.2548,-1.3392,-1.4166,-1.4231,-1.4324,-1.3807,-1.3098,-1.2708,-1.2499,-1.2604,-1.2759,-1.3204,-1.3564,-1.3693,-1.3759,-1.3825,-1.3967,-1.4317,-1.5286,-1.6003,-1.7314,-1.7955,-1.73,-1.6476,-1.6877,-1.7851,-2.0271,-2.2341,-2.3106,-2.3106,-2.3106,-2.3106,-2.3106,-2.3106,-2.3106,-2.3106,-2.3106,-2.3106,-2.3106,-2.323,-2.3728,-2.4363,-2.498,-2.5103,-2.5103,-2.5103,-2.5103,-2.5103,-2.5103,-2.5103,-2.5103,-2.5103,-2.5103,-2.5103,-2.5103,-2.5103,-2.5103,-2.5103,-2.5103,-2.5103,-2.5103,-2.5103,-2.5103,-2.5103,-2.5103,-2.5103,-2.5103,-2.5103,-2.5103,-2.5103,-2.5103,-2.5103,-2.5103,-2.5226,-2.5472,-2.5472,-2.5594,-2.5103,-2.5103,-2.5103,-2.5103,-2.5103,-2.5349,-2.6189,-2.6796,-2.7642,-2.8719,-0.3897,-0.3094,-0.5633,-0.59,-0.4967,-0.5767,-0.5633,-0.4967,-0.6694,-0.5759,-0.4562,-0.8679,-1.0802,-1.1863,-1.321,-1.4015,-1.3621,-1.2964,-1.2568,-1.2568,-1.2048,-1.1776,-1.1652,-1.138,-1.1351,-1.1468,-1.2003,-1.2419,-1.3518,-1.4671,-1.5227,-1.5145,-1.5135,-1.46,-1.3789,-1.3319,-1.3039,-1.2891,-1.3268,-1.3573,-1.3693,-1.3693,-1.3788,-1.3958,-1.4498,-1.5142,-1.6265,-1.7278,-1.8542,-2.0803,-2.0182,-1.9674,-2.0182,-2.1573,-2.3106,-2.3106,-2.3106,-2.3106,-2.3106,-2.3106,-2.3106,-2.3106,-2.3106,-2.3106,-2.3106,-2.3355,-2.3604,-2.3852,-2.4363,-2.498,-2.5103,-2.5103,-2.5103,-2.5103,-2.5103,-2.5103,-2.5103,-2.5103,-2.5103,-2.5103,-2.5103,-2.5103,-2.5103,-2.5103,-2.5103,-2.5103,-2.5103,-2.5103,-2.5103,-2.5151,-2.5183,-2.523,-2.5262,-2.5135,-2.5103,-2.5214,-2.5214,-2.5482,-2.5418,-2.5226,-2.5226,-2.5226,-2.5472,-2.6067,-2.6067,-2.5472,-2.5103,-2.5103,-2.5103,-2.5103,-2.6189,-2.7401,-2.7642,-2.7401,-2.8361,-0.59,-0.5897,-0.7503,-0.7369,-0.6168,-0.6301,-0.6301,-0.59,-0.7227,-0.7488,-0.7749,-1.0267,-1.266,-1.3726,-1.4137,-1.4015,-1.349,-1.284,-1.2576,-1.2437,-1.2048,-1.1652,-1.138,-1.1351,-1.1425,-1.198,-1.2652,-1.3518,-1.4671,-1.5592,-1.5817,-1.6045,-1.6023,-1.5428,-1.4471,-1.4331,-1.3759,-1.3425,-1.362,-1.3721,-1.3693,-1.3731,-1.3965,-1.4317,-1.5182,-1.6139,-1.7152,-1.8855,-2.0397,-2.1069,-2.1964,-2.223,-2.2215,-2.2731,-2.3106,-2.3106,-2.3106,-2.3106,-2.3106,-2.3106,-2.3106,-2.3106,-2.3106,-2.3106,-2.3355,-2.3991,-2.4239,-2.461,-2.4857,-2.5103,-2.5103,-2.5103,-2.5103,-2.5103,-2.5103,-2.5103,-2.5103,-2.5103,-2.5103,-2.5103,-2.5103,-2.5103,-2.5103,-2.5103,-2.5103,-2.5103,-2.5103,-2.5103,-2.5103,-2.523,-2.5357,-2.5405,-2.5469,-2.5278,-2.5103,-2.5278,-2.5389,-2.5959,-2.6004,-2.561,-2.5472,-2.5226,-2.5349,-2.5823,-2.5823,-2.5349,-2.5103,-2.5226,-2.5823,-2.6432,-2.7642,-2.8957,-2.8002,-2.7263,-2.728,-0.7231,-0.6702,-0.8706,-0.8839,-0.7769,-0.8307,-0.8302,-0.8163,-0.9486,-0.9612,-0.9738,-1.1724,-1.3595,-1.4268,-1.4268,-1.3752,-1.3095,-1.2708,-1.2576,-1.2437,-1.2041,-1.1784,-1.1615,-1.1687,-1.2443,-1.3181,-1.3941,-1.4328,-1.5318,-1.5915,-1.5937,-1.5504,-1.5461,-1.4986,-1.4401,-1.4052,-1.4052,-1.3712,-1.3797,-1.3797,-1.3731,-1.3816,-1.4288,-1.5431,-1.6129,-1.7312,-1.8981,-1.9954,-2.1321,-2.209,-2.2731,-2.2981,-2.3106,-2.3106,-2.3106,-2.3106,-2.3106,-2.3106,-2.3106,-2.3106,-2.3106,-2.3106,-2.3106,-2.3106,-2.323,-2.3604,-2.4487,-2.498,-2.5103,-2.5103,-2.5103,-2.5103,-2.5103,-2.5103,-2.5103,-2.5103,-2.5103,-2.5103,-2.5103,-2.5103,-2.5103,-2.5103,-2.5103,-2.5103,-2.5103,-2.5103,-2.5103,-2.5103,-2.5103,-2.5214,-2.5357,-2.6103,-2.6215,-2.6596,-2.6559,-2.6876,-2.6514,-2.6869,-2.6909,-2.6521,-2.6361,-2.6377,-2.5733,-2.5472,-2.5226,-2.5823,-2.5945,-2.6432,-2.7159,-2.7762,-2.8719,-2.9076,-2.7744,-2.7021,-2.7401,-0.8435,-0.7503,-0.9782,-1.0047,-0.9244,-1.0054,-1.0313,-1.03,-1.1754,-1.1212,-0.9877,-1.28,-1.4399,-1.4006,-1.3752,-1.349,-1.2832,-1.2576,-1.2568,-1.2429,-1.2382,-1.2111,-1.2196,-1.2838,-1.3536,-1.4471,-1.5094,-1.5661,-1.5806,-1.6164,-1.5731,-1.5224,-1.4748,-1.4311,-1.399,-1.3908,-1.3769,-1.3863,-1.3958,-1.3967,-1.3929,-1.4602,-1.5232,-1.6624,-1.7058,-1.8578,-2.0384,-2.1195,-2.1964,-2.2606,-2.3106,-2.3106,-2.3106,-2.3106,-2.3106,-2.3106,-2.3106,-2.3106,-2.3106,-2.3106,-2.3106,-2.3106,-2.3106,-2.3106,-2.323,-2.3604,-2.41,-2.4857,-2.5103,-2.5103,-2.5103,-2.5103,-2.5103,-2.5103,-2.5103,-2.5103,-2.5103,-2.5103,-2.5103,-2.5103,-2.5103,-2.5103,-2.5103,-2.5103,-2.5103,-2.5103,-2.5103,-2.5103,-2.5103,-2.5103,-2.5514,-2.6568,-2.7198,-2.7864,-2.8398,-2.9206,-2.8785,-2.8286,-2.8415,-2.8096,-2.7957,-2.792,-2.7245,-2.6796,-2.7159,-2.7642,-2.7642,-2.7039,-2.6918,-2.7401,-2.9076,-2.9194,-2.7864,-2.7744,-2.8104,-0.9504,-1.018,-1.0585,-1.0452,-1.0054,-1.0193,-1.0445,-1.0836,-1.1894,-1.2025,-1.1483,-1.3341,-1.4268,-1.3875,-1.3498,-1.3235,-1.284,-1.2708,-1.2437,-1.2289,-1.2816,-1.2872,-1.2564,-1.3527,-1.4481,-1.5289,-1.5703,-1.6406,-1.6533,-1.656,-1.6065,-1.5353,-1.465,-1.436,-1.391,-1.3929,-1.4071,-1.4194,-1.4251,-1.4251,-1.4673,-1.6361,-1.6859,-1.7252,-1.8348,-2.0005,-2.0943,-2.1839,-2.2606,-2.2981,-2.3106,-2.3106,-2.3106,-2.3106,-2.3106,-2.3106,-2.3106,-2.3106,-2.3106,-2.3106,-2.3106,-2.3106,-2.3106,-2.3106,-2.3479,-2.41,-2.4734,-2.498,-2.5103,-2.5103,-2.5103,-2.5103,-2.5103,-2.5103,-2.5103,-2.5103,-2.5103,-2.5103,-2.5103,-2.5103,-2.5103,-2.5103,-2.5103,-2.5103,-2.5103,-2.5103,-2.5103,-2.5119,-2.5493,-2.573,-2.5659,-2.6745,-2.7883,-2.8538,-2.9241,-3.029,-3.0825,-3.0065,-2.9885,-2.9701,-2.9008,-2.8756,-2.9387,-2.9076,-2.9313,-2.8719,-2.7882,-2.7039,-2.6311,-2.7039,-2.8719,-2.8719,-2.7984,-2.8343,-2.9076,-1.0445,-1.0717,-1.0717,-1.0591,-1.0591,-1.0857,-1.1372,-1.2025,-1.2816,-1.335,-1.3613,-1.4006,-1.4146,-1.3613,-1.3235,-1.2972,-1.284,-1.2824,-1.27,-1.2521,-1.3155,-1.343,-1.3497,-1.4404,-1.5512,-1.5803,-1.6406,-1.6651,-1.6785,-1.6301,-1.5601,-1.4639,-1.4301,-1.4029,-1.4014,-1.4014,-1.4128,-1.4241,-1.4326,-1.4809,-1.6032,-1.7502,-1.8732,-1.8867,-2.0131,-2.1069,-2.1839,-2.248,-2.2981,-2.3106,-2.3106,-2.3106,-2.3106,-2.3106,-2.3106,-2.3106,-2.3106,-2.3106,-2.3106,-2.3106,-2.3106,-2.3106,-2.323,-2.3479,-2.41,-2.461,-2.5103,-2.5103,-2.5103,-2.5103,-2.5103,-2.5103,-2.5103,-2.5103,-2.5103,-2.5103,-2.5103,-2.5103,-2.5103,-2.5103,-2.5103,-2.5103,-2.5258,-2.5601,-2.5477,-2.523,-2.5214,-2.5183,-2.6189,-2.7437,-2.7309,-2.7078,-2.8163,-2.923,-2.9752,-3.0567,-3.2128,-3.1873,-3.1854,-3.1339,-2.9632,-2.9392,-2.9911,-3.0274,-3.0294,-2.9331,-2.8122,-2.728,-2.6675,-2.7521,-2.848,-2.8719,-2.9076,-2.9549,-3.0157,-1.0982,-1.0717,-1.0717,-1.0717,-1.0857,-1.1387,-1.2165,-1.2947,-1.3473,-1.4137,-1.467,-1.4399,-1.3988,-1.3683,-1.3404,-1.3396,-1.3274,-1.35,-1.3257,-1.3457,-1.3824,-1.4304,-1.4788,-1.5655,-1.62,-1.6211,-1.6651,-1.6796,-1.6194,-1.5591,-1.4878,-1.3933,-1.4019,-1.3901,-1.4052,-1.4194,-1.4326,-1.4506,-1.4515,-1.5278,-1.6894,-1.9,-2.0182,-2.0816,-2.1335,-2.1964,-2.2731,-2.3106,-2.3106,-2.3106,-2.3106,-2.3106,-2.3106,-2.3106,-2.3106,-2.3106,-2.3106,-2.3106,-2.3106,-2.3106,-2.3106,-2.323,-2.3604,-2.41,-2.4734,-2.5103,-2.5103,-2.5103,-2.5103,-2.5103,-2.5103,-2.5103,-2.5103,-2.5103,-2.5103,-2.5103,-2.5103,-2.5103,-2.5103,-2.5103,-2.5103,-2.5103,-2.5413,-2.5945,-2.5993,-2.5482,-2.5326,-2.5294,-2.6968,-2.8852,-2.9515,-2.9282,-2.9848,-3.084,-3.1083,-3.1744,-3.3019,-3.3418,-3.3418,-3.2991,-3.1233,-3.0391,-3.0526,-3.0782,-3.0898,-3.0528,-2.945,-2.8241,-2.728,-2.86,-2.9686,-3.0294,-3.0645,-3.0898,-3.0898,-1.0717,-1.0717,-1.0717,-1.085,-1.1115,-1.1247,-1.2033,-1.321,-1.3341,-1.4006,-1.467,-1.4006,-1.3908,-1.4171,-1.4272,-1.4263,-1.4491,-1.5428,-1.4867,-1.4818,-1.5484,-1.5953,-1.6199,-1.6549,-1.7185,-1.7185,-1.7138,-1.6431,-1.5731,-1.5406,-1.4779,-1.453,-1.4115,-1.409,-1.4288,-1.4459,-1.4738,-1.489,-1.4919,-1.5703,-1.7848,-2.017,-2.1839,-2.1209,-2.1853,-2.2606,-2.2731,-2.2981,-2.3106,-2.3106,-2.3106,-2.3106,-2.3106,-2.3106,-2.3106,-2.3106,-2.3106,-2.3106,-2.3106,-2.3106,-2.3106,-2.3479,-2.4115,-2.4734,-2.498,-2.5103,-2.5103,-2.5103,-2.5103,-2.5103,-2.5103,-2.5103,-2.5103,-2.5103,-2.5103,-2.5103,-2.5103,-2.5103,-2.5103,-2.5103,-2.5594,-2.6311,-2.6895,-2.7835,-2.8445,-2.8123,-2.5878,-2.583,-2.8484,-3.0462,-3.1922,-3.2332,-3.2504,-3.2853,-3.295,-3.3418,-3.3418,-3.3418,-3.3418,-3.3418,-3.2845,-3.2266,-3.1211,-3.0898,-3.0898,-3.0898,-3.0898,-2.9686,-2.9331,-3.0294,-3.0898,-3.0898,-3.0898,-3.0898,-3.0898,-1.0982,-1.138,-1.138,-1.1512,-1.1644,-1.2033,-1.2692,-1.3613,-1.4137,-1.4277,-1.4277,-1.3481,-1.3639,-1.4263,-1.4591,-1.4906,-1.5418,-1.5836,-1.5587,-1.5525,-1.6097,-1.6563,-1.6691,-1.7043,-1.7491,-1.7491,-1.715,-1.6651,-1.5806,-1.5434,-1.4953,-1.4524,-1.4185,-1.4232,-1.4459,-1.4804,-1.5346,-1.5784,-1.5694,-1.6213,-1.9534,-2.1069,-2.2355,-2.2355,-2.223,-2.2731,-2.2856,-2.2981,-2.3106,-2.3106,-2.3106,-2.3106,-2.3106,-2.3106,-2.3106,-2.3106,-2.3106,-2.3106,-2.3106,-2.3106,-2.323,-2.3852,-2.4487,-2.5103,-2.5103,-2.5103,-2.5103,-2.5103,-2.5103,-2.5103,-2.5103,-2.5103,-2.5103,-2.5103,-2.5226,-2.5472,-2.5349,-2.5472,-2.5945,-2.6311,-2.7762,-2.9076,-2.9665,-3.0139,-3.0631,-3.0717,-2.8237,-2.6898,-2.9665,-3.1488,-3.2765,-3.3418,-3.3417,-3.3367,-3.333,-3.3418,-3.3418,-3.3418,-3.3418,-3.3418,-3.3359,-3.2656,-3.1738,-3.1328,-3.0898,-3.0898,-3.0898,-3.0898,-3.0898,-3.0898,-3.0898,-3.0898,-3.0898,-3.0898,-3.0898,-1.085,-1.138,-1.1512,-1.1909,-1.2437,-1.2955,-1.3481,-1.4137,-1.4539,-1.4408,-1.3744,-1.3561,-1.4069,-1.4798,-1.5428,-1.5836,-1.6541,-1.6941,-1.6719,-1.6774,-1.6903,-1.7051,-1.7113,-1.7327,-1.7636,-1.7612,-1.7351,-1.6891,-1.6043,-1.5799,-1.5195,-1.4538,-1.4288,-1.443,-1.4699,-1.5326,-1.6084,-1.6462,-1.698,-1.7496,-2.0816,-2.1964,-2.2606,-2.2981,-2.2856,-2.2856,-2.2981,-2.3106,-2.3106,-2.3106,-2.3106,-2.3106,-2.3106,-2.3106,-2.3106,-2.3106,-2.3106,-2.3106,-2.3106,-2.3604,-2.4702,-2.6866,-2.5333,-2.5349,-2.5103,-2.5103,-2.5103,-2.5103,-2.5103,-2.5226,-2.5472,-2.6189,-2.728,-2.7882,-2.7762,-2.7762,-2.6554,-2.6311,-2.7039,-2.7642,-2.925,-3.0603,-3.1488,-3.1788,-3.1856,-3.1828,-2.9992,-2.9235,-3.1355,-3.2638,-3.3019,-3.3418,-3.335,-3.335,-3.3418,-3.3418,-3.3418,-3.3418,-3.3418,-3.3418,-3.3203,-3.2656,-3.1973,-3.1211,-3.0898,-3.0898,-3.0898,-3.0898,-3.0898,-3.0898,-3.0898,-3.0898,-3.0645,-3.0528,-3.0645,-1.0187,-1.0326,-1.0982,-1.2305,-1.3744,-1.3875,-1.4146,-1.467,-1.4408,-1.4137,-1.384,-1.4336,-1.5266,-1.6043,-1.6853,-1.7346,-1.7721,-1.8513,-1.8526,-1.7817,-1.7863,-1.8164,-1.8133,-1.7995,-1.7877,-1.7805,-1.7537,-1.692,-1.628,-1.5794,-1.5051,-1.5062,-1.5091,-1.4983,-1.4785,-1.61,-1.6969,-1.7238,-1.8139,-1.9546,-2.1209,-2.248,-2.2856,-2.2981,-2.2981,-2.2981,-2.3106,-2.3106,-2.3106,-2.3106,-2.3106,-2.3106,-2.3106,-2.3106,-2.3106,-2.3106,-2.3106,-2.3106,-2.323,-2.4363,-2.6762,-2.9747,-2.7727,-2.6172,-2.5472,-2.5349,-2.6067,-2.7021,-2.6294,-2.5823,-2.6675,-2.8122,-2.945,-2.9922,-2.9686,-2.9431,-2.8241,-2.79,-2.8618,-2.9562,-3.0452,-3.1465,-3.2578,-3.3175,-3.3116,-3.26,-3.1341,-3.1616,-3.3019,-3.3418,-3.3418,-3.3418,-3.3418,-3.3418,-3.3418,-3.3418,-3.3418,-3.3418,-3.3418,-3.3418,-3.3418,-3.3164,-3.2344,-3.1289,-3.1269,-3.1582,-3.125,-3.0898,-3.0898,-3.0898,-3.0898,-3.0898,-3.0528,-3.0274,-3.0294,-1.0717,-1.1108,-1.1901,-1.3087,-1.4408,-1.4137,-1.4137,-1.4408,-1.4006,-1.3944,-1.4336,-1.4757,-1.5648,-1.6841,-1.754,-1.8126,-1.8816,-1.8998,-1.892,-1.8558,-1.8614,-1.8501,-1.8348,-1.8313,-1.8155,-1.7923,-1.7538,-1.7055,-1.6527,-1.5898,-1.6032,-1.6177,-1.6583,-1.6368,-1.5734,-1.6193,-1.7367,-1.8267,-1.8908,-2.0055,-2.2215,-2.2856,-2.3106,-2.3106,-2.2856,-2.2856,-2.3106,-2.3106,-2.3106,-2.3106,-2.3106,-2.3106,-2.3106,-2.3106,-2.3106,-2.3106,-2.323,-2.3604,-2.4115,-2.5226,-2.6537,-2.892,-3.01,-2.8086,-2.5945,-2.8683,-2.963,-2.9865,-2.9394,-2.9294,-2.9903,-2.9922,-3.0645,-3.0645,-3.0528,-3.0411,-2.9922,-3.0077,-3.0642,-3.1654,-3.2676,-3.2519,-3.3164,-3.3418,-3.3418,-3.3418,-3.2256,-3.2256,-3.3292,-3.3418,-3.3418,-3.3418,-3.3418,-3.3418,-3.3418,-3.3418,-3.3418,-3.3418,-3.3418,-3.3418,-3.3418,-3.3418,-3.3164,-3.2344,-3.2324,-3.2305,-3.1523,-3.0898,-3.0898,-3.0898,-3.0782,-3.0294,-2.9823,-2.9686,-2.9804,-1.1505,-1.1769,-1.2553,-1.3481,-1.4268,-1.4268,-1.4277,-1.4146,-1.3621,-1.3908,-1.4629,-1.4906,-1.6053,-1.7455,-1.8233,-1.8601,-1.9506,-1.9533,-1.9561,-1.9189,-1.8974,-1.8955,-1.8716,-1.8507,-1.842,-1.8197,-1.7781,-1.7278,-1.6764,-1.6637,-1.6968,-1.7697,-1.8524,-1.7859,-1.7227,-1.7871,-1.8896,-1.9801,-2.0436,-2.1335,-2.2606,-2.3106,-2.3106,-2.3106,-2.2981,-2.2856,-2.2981,-2.3106,-2.3106,-2.3106,-2.3106,-2.3106,-2.3106,-2.3106,-2.3106,-2.3106,-2.5635,-2.5668,-2.5456,-2.7607,-2.9157,-3.0353,-3.1903,-3.0937,-2.8683,-3.0704,-3.1767,-3.2363,-3.2727,-3.1923,-3.1112,-3.1015,-3.0898,-3.0918,-3.0898,-3.0782,-3.0918,-3.1074,-3.1914,-3.3066,-3.3379,-3.3398,-3.3418,-3.3418,-3.3418,-3.3418,-3.3292,-3.3418,-3.3418,-3.3418,-3.3418,-3.3418,-3.3418,-3.3418,-3.3418,-3.3418,-3.3418,-3.3418,-3.3418,-3.3418,-3.3418,-3.3418,-3.3418,-3.3418,-3.3086,-3.2539,-3.1445,-3.0898,-3.0898,-3.0645,-3.0294,-2.9823,-2.9112,-2.9213,-2.945,-1.2561,-1.2297,-1.2955,-1.3341,-1.3604,-1.4399,-1.4408,-1.3875,-1.3613,-1.3882,-1.4709,-1.5732,-1.6864,-1.7853,-1.8933,-1.9469,-1.9773,-1.9813,-1.988,-1.9811,-1.9511,-1.9318,-1.905,-1.8839,-1.8799,-1.8518,-1.8082,-1.7502,-1.7238,-1.7953,-1.8605,-1.9024,-1.9546,-1.9419,-1.9674,-2.0182,-2.0816,-2.0943,-2.1839,-2.2466,-2.3106,-2.3106,-2.3106,-2.3106,-2.3106,-2.2981,-2.3106,-2.3106,-2.3106,-2.3106,-2.3106,-2.3106,-2.3106,-2.3106,-2.3106,-2.4671,-2.8747,-2.8664,-2.7607,-3.01,-3.1169,-3.1767,-3.2363,-3.2498,-3.2383,-3.2133,-3.2498,-3.2727,-3.2612,-3.1923,-3.1248,-3.1151,-3.0937,-3.0937,-3.0918,-3.1035,-3.1211,-3.1777,-3.2773,-3.3418,-3.3398,-3.3418,-3.3418,-3.3418,-3.3418,-3.3418,-3.3418,-3.3418,-3.3418,-3.3418,-3.3418,-3.3418,-3.3418,-3.3418,-3.3418,-3.3418,-3.3418,-3.3418,-3.3418,-3.3418,-3.3418,-3.3418,-3.3418,-3.3418,-3.3418,-3.291,-3.209,-3.1387,-3.0762,-3.0411,-2.9861,-2.9587,-2.8975,-2.8975,-2.9112,-1.2824,-1.4015,-1.3875,-1.4006,-1.4408,-1.4277,-1.3884,-1.3613,-1.4003,-1.4709,-1.5732,-1.673,-1.7841,-1.9179,-1.9588,-1.9867,-2.0013,-2.0147,-2.0064,-1.9963,-1.982,-1.9575,-1.9424,-1.9145,-1.9079,-1.8593,-1.8116,-1.7905,-1.8652,-1.9419,-2.0055,-2.0563,-2.1195,-2.1587,-2.1839,-2.2215,-2.1839,-2.1713,-2.2591,-2.2981,-2.3106,-2.3106,-2.3106,-2.3106,-2.3106,-2.3106,-2.3106,-2.3106,-2.3106,-2.3106,-2.3106,-2.3106,-2.3106,-2.3106,-2.323,-2.3837,-2.839,-3.1787,-3.0704,-3.0236,-3.082,-3.2363,-3.2727,-3.2727,-3.2727,-3.2727,-3.2727,-3.2727,-3.2612,-3.2153,-3.146,-3.1248,-3.1191,-3.123,-3.1269,-3.1445,-3.168,-3.2324,-3.3281,-3.3418,-3.3418,-3.3418,-3.3418,-3.3418,-3.3418,-3.3418,-3.3418,-3.3418,-3.3418,-3.3418,-3.3418,-3.3418,-3.3418,-3.3418,-3.3418,-3.3418,-3.3418,-3.3418,-3.3418,-3.3418,-3.3418,-3.3418,-3.3418,-3.3418,-3.3418,-3.3301,-3.3008,-3.2163,-3.1007,-2.9955,-2.9305,-2.9131,-2.9012,-2.925,-2.9342,-1.4259,-1.48,-1.48,-1.467,-1.4408,-1.3884,-1.3718,-1.3891,-1.4272,-1.5332,-1.6764,-1.7561,-1.8564,-1.9589,-1.992,-2.012,-2.0388,-2.0414,-2.0438,-2.0289,-2.0078,-1.9802,-1.9546,-1.9316,-1.906,-1.8688,-1.8547,-1.8407,-1.9431,-2.0449,-2.1209,-2.1964,-2.2856,-2.2981,-2.2981,-2.2856,-2.2606,-2.248,-2.2606,-2.2981,-2.3106,-2.3106,-2.3106,-2.3106,-2.3106,-2.3106,-2.3106,-2.3106,-2.3106,-2.3106,-2.3106,-2.3106,-2.3106,-2.3106,-2.5513,-2.6712,-3.0081,-3.2477,-3.2018,-3.1305,-3.1652,-3.2133,-3.2727,-3.2727,-3.2727,-3.2727,-3.2727,-3.2727,-3.2612,-3.2383,-3.1808,-3.1384,-3.1505,-3.1601,-3.1777,-3.1953,-3.2402,-3.2891,-3.3184,-3.3359,-3.3418,-3.3418,-3.3418,-3.3418,-3.3418,-3.3418,-3.3418,-3.3418,-3.3418,-3.3418,-3.3418,-3.3418,-3.3418,-3.3418,-3.3418,-3.3418,-3.3418,-3.3418,-3.3418,-3.3418,-3.3418,-3.3418,-3.3418,-3.3418,-3.3418,-3.332,-3.3223,-3.2047,-3.0926,-3.0082,-2.9727,-2.9984,-3.013,-3.0259,-3.0277,-1.6353,-1.5323,-1.5844,-1.5313,-1.4137,-1.3988,-1.4271,-1.4738,-1.4954,-1.5867,-1.7525,-1.8264,-1.8993,-1.9933,-2.0187,-2.0428,-2.0628,-2.0722,-2.0748,-2.069,-2.0459,-2.0106,-1.9853,-1.9546,-1.9649,-1.9419,-1.9304,-1.9419,-1.9686,-2.0829,-2.209,-2.3106,-2.3106,-2.3106,-2.3106,-2.3106,-2.2981,-2.2856,-2.2856,-2.3106,-2.3106,-2.3106,-2.3106,-2.3106,-2.3106,-2.3106,-2.3106,-2.3106,-2.3106,-2.323,-2.3106,-2.3106,-2.3106,-2.4794,-2.7913,-2.9846,-3.2133,-3.2477,-3.2727,-3.2248,-3.2363,-3.2612,-3.2727,-3.2727,-3.2727,-3.2727,-3.2727,-3.2727,-3.2612,-3.2383,-3.1787,-3.1384,-3.1309,-3.1836,-3.2305,-3.2559,-3.293,-3.3242,-3.3281,-3.3418,-3.3418,-3.3418,-3.3418,-3.3418,-3.3418,-3.3418,-3.3418,-3.3418,-3.3418,-3.3418,-3.3418,-3.3418,-3.3418,-3.3418,-3.3418,-3.3418,-3.3418,-3.3418,-3.3418,-3.3418,-3.3418,-3.3418,-3.3418,-3.3418,-3.3418,-3.3418,-3.3155,-3.2074,-3.1351,-3.1135,-3.0882,-3.1157,-3.1249,-3.1084,-3.0992,-1.7389,-1.8045,-1.713,-1.6353,-1.5923,-1.59,-1.6308,-1.7245,-1.7304,-1.7549,-1.8179,-1.9216,-1.9955,-2.0428,-2.0508,-2.0722,-2.0922,-2.0935,-2.1146,-2.1091,-2.0926,-2.0552,-2.0526,-2.0552,-2.0506,-2.0397,-2.0449,-2.069,-2.1195,-2.1964,-2.2606,-2.3106,-2.3106,-2.3106,-2.3106,-2.3106,-2.3106,-2.3106,-2.3106,-2.3106,-2.3106,-2.3106,-2.3106,-2.3106,-2.3106,-2.3106,-2.3106,-2.3106,-2.3728,-2.4332,-2.3479,-2.323,-2.3106,-2.7674,-3.0684,-3.2363,-3.2727,-3.2727,-3.2727,-3.2727,-3.2727,-3.2727,-3.2727,-3.2727,-3.2727,-3.2727,-3.2727,-3.2727,-3.2612,-3.2268,-3.1984,-3.1483,-3.123,-3.2051,-3.2812,-3.3125,-3.3418,-3.3418,-3.3418,-3.3418,-3.3418,-3.3418,-3.3418,-3.3418,-3.3418,-3.3418,-3.3418,-3.3418,-3.3418,-3.3418,-3.3418,-3.3418,-3.3418,-3.3418,-3.3418,-3.3418,-3.3418,-3.3418,-3.3418,-3.3418,-3.3418,-3.3418,-3.3418,-3.3418,-3.3418,-3.3418,-3.3038,-3.2218,-3.1561,-3.1506,-3.1377,-3.1377,-3.1377,-3.1249,-3.1286,-1.8431,-1.8816,-1.7389,-1.6797,-1.6957,-1.7041,-1.7679,-1.8617,-1.8914,-1.9274,-1.9678,-2.0183,-2.0521,-2.0722,-2.0802,-2.0909,-2.1096,-2.1096,-2.1173,-2.1231,-2.1231,-2.0931,-2.104,-2.1435,-2.1218,-2.1132,-2.1546,-2.1964,-2.2466,-2.2716,-2.2981,-2.3106,-2.3106,-2.3106,-2.3106,-2.3106,-2.3106,-2.3106,-2.3106,-2.3106,-2.3106,-2.3106,-2.3106,-2.3106,-2.3106,-2.3106,-2.3106,-2.323,-2.3976,-2.4949,-2.4933,-2.6608,-2.7674,-3.0548,-3.2133,-3.2612,-3.2727,-3.2727,-3.2727,-3.2727,-3.2727,-3.2727,-3.2727,-3.2727,-3.2727,-3.2727,-3.2727,-3.2727,-3.2727,-3.2383,-3.217,-3.186,-3.174,-3.2226,-3.2871,-3.332,-3.3418,-3.3418,-3.3418,-3.3418,-3.3418,-3.3418,-3.3418,-3.3418,-3.3418,-3.3418,-3.3418,-3.3418,-3.3418,-3.3418,-3.3418,-3.3418,-3.3418,-3.3418,-3.3418,-3.3418,-3.3418,-3.3418,-3.3418,-3.3418,-3.3418,-3.3418,-3.3418,-3.3418,-3.3418,-3.3418,-3.2912,-3.2019,-3.1635,-3.1377,-3.1377,-3.1377,-3.1377,-3.1377,-3.1377,-1.9072,-1.8816,-1.7518,-1.7257,-1.784,-1.7978,-1.8734,-1.9814,-2.0151,-2.0757,-2.1355,-2.1107,-2.0859,-2.0953,-2.0962,-2.1056,-2.1109,-2.1109,-2.1173,-2.1505,-2.1435,-2.1469,-2.1655,-2.1754,-2.209,-2.2428,-2.2754,-2.3076,-2.3479,-2.3355,-2.323,-2.3106,-2.3106,-2.3106,-2.3106,-2.3106,-2.3106,-2.3106,-2.3106,-2.3106,-2.3106,-2.3106,-2.3106,-2.3106,-2.3106,-2.3106,-2.3106,-2.3604,-2.4085,-2.5546,-2.6987,-2.9002,-3.0451,-3.2133,-3.2248,-3.2727,-3.2727,-3.2727,-3.2727,-3.2727,-3.2727,-3.2727,-3.2727,-3.2727,-3.2727,-3.2727,-3.2727,-3.2727,-3.2727,-3.2629,-3.2411,-3.2435,-3.2348,-3.2363,-3.2949,-3.3418,-3.3418,-3.3418,-3.3418,-3.3418,-3.3418,-3.3418,-3.3418,-3.3418,-3.3418,-3.3418,-3.3418,-3.3418,-3.3418,-3.3418,-3.3418,-3.3418,-3.3418,-3.3418,-3.3418,-3.3418,-3.3418,-3.3418,-3.3418,-3.3418,-3.3418,-3.3418,-3.3418,-3.3418,-3.3418,-3.3292,-3.2785,-3.1891,-3.1635,-3.1377,-3.1377,-3.1377,-3.1377,-3.1377,-3.1377,-1.9072,-1.9072,-1.8688,-1.9152,-1.9954,-2.0065,-2.0664,-2.1506,-2.1754,-2.1948,-2.1964,-2.1895,-2.1658,-2.1393,-2.1182,-2.1109,-2.1096,-2.1195,-2.1944,-2.2527,-2.2137,-2.226,-2.2541,-2.2855,-2.3762,-2.4055,-2.39,-2.4085,-2.3867,-2.3604,-2.3355,-2.3106,-2.3106,-2.3106,-2.3106,-2.3106,-2.3106,-2.3106,-2.3106,-2.3106,-2.3106,-2.3106,-2.3106,-2.3106,-2.3106,-2.3106,-2.3355,-2.4579,-2.5546,-2.7125,-2.9039,-3.0937,-3.1903,-3.2612,-3.2727,-3.2727,-3.2727,-3.2727,-3.2727,-3.2727,-3.2727,-3.2727,-3.2727,-3.2727,-3.2727,-3.2727,-3.2727,-3.2727,-3.2736,-3.2936,-3.2933,-3.3006,-3.3027,-3.2832,-3.3086,-3.3301,-3.3418,-3.3418,-3.3418,-3.3418,-3.3418,-3.3418,-3.3418,-3.3418,-3.3418,-3.3418,-3.3418,-3.3418,-3.3418,-3.3418,-3.3418,-3.3418,-3.3418,-3.3418,-3.3418,-3.3418,-3.3418,-3.3418,-3.3418,-3.3418,-3.3418,-3.3418,-3.3418,-3.3418,-3.3165,-3.3038,-3.2403,-3.1763,-3.1635,-3.1377,-3.1377,-3.1377,-3.1377,-3.1377,-3.1377]},{"header":{"parameterUnit":"m.s-1","parameterCategory":1,"la1":31.0,"la2":29.5877,"lo1":-88.7671,"lo2":-86.6584,"dy":0.0162,"dx":0.0185,"nx":115,"ny":88,"refTime":"2024-07-31T12:00:00:Z","depth":0,"parameterNumber":3,"parameterNumberName":"V-component_of_WINDS"},"data":[0.0,0.0,0.0,0.0,0.0,0.0,0.0,0.0,0.0,0.0,0.0,0.0,0.0,0.0,0.0,0.0,0.0,0.0,0.0,0.0,0.0,0.0,0.0,0.0,0.0,0.0,0.0,0.0,0.0,0.0,0.0,0.0,0.0,0.0,0.0,0.0,0.0,0.0,0.0,0.0,0.0,0.0,0.0,0.0,0.0,0.0,0.0,0.0,0.0,0.0,0.0,0.0,0.0,0.0,0.0,0.0,0.0,0.0,0.0,0.0,0.0,0.0,0.0,0.0,0.0,0.0,0.0,0.0,0.0,0.0,0.0,0.0,0.0,0.0,0.0,0.0,0.0,0.0,0.0,0.0,0.0,0.0,0.0,0.0,0.0,0.0,0.0,0.0,0.0,0.0,0.0,0.0,0.0,0.0,0.0,0.0,0.0,0.0,0.0,0.0,0.0,0.0,0.0,0.0,0.0,0.0,0.0,0.0,0.0,0.0,0.0,0.0,0.0,0.0,0.0,0.0,0.0,0.0,0.0,0.0,0.0,0.0,0.0,0.0,0.0,0.0,0.0,0.0,0.0,0.0,0.0,0.0,0.0,0.0,0.0,0.0,0.0,0.0,0.0,0.0,0.0,0.0,0.0,0.0,0.0,0.0,0.0,0.0,0.0,0.0,0.0,0.0,0.0,0.0,0.0,0.0,0.0,0.0,0.0,0.0,0.0,0.0,0.0,0.0,0.0,0.0,0.0,0.0,0.0,0.0,0.0,0.0,0.0,0.0,0.0,0.0,0.0,0.0,0.0,0.0,0.0,0.0,0.0,0.0,0.0,0.0,0.0,0.0,0.0,0.0,0.0,0.0,0.0,0.0,0.0,0.0,0.0,0.0,0.0,0.0,0.0,0.0,0.0,0.0,0.0,0.0,0.0,0.0,0.0,0.0,0.0,0.0,0.0,0.0,0.0,0.0,0.0,0.0,0.0,0.0,0.0,0.0,0.0,0.0,0.0,0.0,0.0,0.0,0.0,0.0,0.0,0.0,0.0,0.0,0.0,0.0,0.0,0.0,0.0,0.0,0.0,0.0,0.0,0.0,0.0,0.0,0.0,0.0,0.0,0.0,0.0,0.0,0.0,0.0,0.0,0.0,0.0,0.0,0.0,0.0,0.0,0.0,0.0,0.0,0.0,0.0,0.0,0.0,0.0,0.0,0.0,0.0,0.0,0.0,0.0,0.0,0.0,0.0,0.0,0.0,0.0,0.0,0.0,0.0,0.0,0.0,0.0,0.0,0.0,0.0,0.0,0.0,0.0,0.0,0.0,0.0,0.0,0.0,0.0,0.0,0.0,0.0,0.0,0.0,0.0,0.0,0.0,0.0,0.0,0.0,0.0,0.0,0.0,0.0,0.0,0.0,0.0,0.0,0.0,0.0,0.0,0.0,0.0,0.0,0.0,0.0,0.0,0.0,0.0,0.0,0.0,0.0,0.0,0.0,0.0,0.0,0.0,0.0,0.0,0.0,0.0,0.0,0.0,0.0,0.0,0.0,0.0,0.0,0.0,0.0,0.0,0.0,0.0,0.0,0.0,0.0,0.0,0.0,0.0,0.0,0.0,0.0,0.0,0.0,0.0,0.0,0.0,0.0,0.0,0.0,0.0,0.0,0.0,0.0,0.0,0.0,0.0,0.0,0.0,0.0,0.0,0.0,0.0,0.0,0.0,0.0,0.0,0.0,0.0,0.0,0.0,0.0,0.0,0.0,0.0,0.0,0.0,0.0,0.0,0.0,0.0,0.0,0.0,0.0,0.0,0.0,0.0,0.0,0.0,0.0,0.0,0.0,0.0,0.0,0.0,0.0,0.0,0.0,0.0,0.0,0.0,0.0,0.0,0.0,0.0,0.0,0.0,0.0,0.0,0.0,0.0,0.0,0.0,0.0,0.0,0.0,0.0,0.0,0.0,0.0,0.0,0.0,0.0,0.0,0.0,0.0,0.0,0.0,0.0,0.0,0.0,0.0,0.0,0.0,0.0,0.0,0.0,0.0,0.0,0.0,0.0,0.0,0.0,0.0,0.0,0.0,0.0,0.0,0.0,0.0,0.0,0.0,0.0,0.0,0.0,0.0,0.0,0.0,0.0,0.0,0.0,0.0,0.0,0.0,0.0,0.0,0.0,0.0,0.0,0.0,0.0,0.0,0.0,0.0,0.0,0.0,0.0,0.0,0.0,0.0,0.0,0.0,0.0,0.0,0.0,0.0,0.0,0.0,0.0,0.0,0.0,0.0,0.0,0.0,0.0,0.0,0.0,0.0,0.0,0.0,0.0,0.0,0.0,0.0,0.0,0.0,0.0,0.0,0.0,0.0,0.0,0.0,0.0,0.0,0.0,0.0,0.0,0.0,0.0,0.0,0.0,0.0,0.0,0.0,0.0,0.0,0.0,0.0,0.0,0.0,0.0,0.0,0.0,0.0,0.0,0.0,0.0,0.0,0.0,0.0,0.0,0.0,0.0,0.0,0.0,0.0,0.0,0.0,0.0,0.0,0.0,0.0,0.0,0.0,0.0,0.0,0.0,0.0,0.0,0.0,0.0,0.0,0.0,0.0,0.0,0.0,0.0,0.0,0.0,0.0,0.0,0.0,0.0,0.0,0.0,0.0,0.0,0.0,0.0,0.0,0.0,0.0,0.0,0.0,0.0,0.0,0.0,0.0,0.0,0.0,0.0,0.0,0.0,0.0,0.0,0.0,0.0,0.0,0.0,0.0,0.0,0.0,0.0,0.0,0.0,0.0,0.0,0.0,0.0,0.0,0.0,0.0,0.0,0.0,0.0,0.0,0.0,0.0,0.0,0.0,0.0,0.0,0.0,0.0,0.0,0.0,0.0,0.0,0.0,0.0,0.0,0.0,0.0,0.0,0.0,0.0,0.0,0.0,0.0,0.0,0.0,0.0,0.0,0.0,0.0,0.0,0.0,0.0,0.0,0.0,0.0,0.0,0.0,0.0,0.0,0.0,0.0,0.0,0.0,0.0,0.0,0.0,0.0,0.0,0.0,0.0,0.0,0.0,0.0,0.0,0.0,0.0,0.0,0.0,0.0,0.0,0.0,0.0,0.0,0.0,0.0,0.0,0.0,0.0,0.0,0.0,0.0,0.0,0.0,0.0,0.0,0.0,0.0,0.0,0.0,0.0,0.0,0.0,0.0,0.0,0.0,0.0,0.0,0.0,0.0,0.0,0.0,0.0,0.0,0.0,0.0,0.0,0.0,0.0,0.0,0.0,0.0,0.0,0.0,0.0,0.0,0.0,0.0,0.0,0.0,0.0,0.0,0.0,0.0,0.0,0.0,0.0,0.0,0.0,0.0,0.0,0.0,0.0,0.0,0.0,0.0,0.0,0.0,0.0,0.0,0.0,0.0,0.0,0.0,0.0,0.0,0.0,0.0,0.0,0.0,0.0,0.0,0.0,0.0,0.0,0.0,0.0,0.0,0.0,0.0,0.0,0.0,0.0,0.0,0.0,0.0,0.0,0.0,0.0,0.0,0.0,0.0,0.0,0.0,0.0,0.0,0.0,0.0,0.0,0.0,0.0,0.0,0.0,0.0,0.0,0.0,0.0,0.0,0.0,0.0,0.0,0.0,0.0,0.0,0.0,0.0,0.0,0.0,0.0,0.0,0.0,0.0,0.0,0.0,0.0,0.0,0.0,0.0,0.0,0.0,0.0,0.0,0.0,0.0,0.0,0.0,0.0,0.0,0.0,0.0,0.0,0.0,0.0,0.0,0.0,0.0,0.0,0.0,0.0,0.0,0.0,0.0,0.0,0.0,0.0,0.0,0.0,0.0,0.0,0.0,0.0,0.0,0.0,0.0,0.0,0.0,0.0,0.0,0.0,0.0,0.0,0.0,0.0,0.0,0.0,0.0,0.0,0.0,0.0,0.0,0.0,0.0,0.0,0.0,0.0,0.0,0.0,0.0,0.0,0.0,0.0,0.0,0.0,0.0,0.0,0.0,0.0,0.0,0.0,0.0,0.0,0.0,0.0,0.0,0.0,0.0,0.0,0.0,0.0,0.0,0.0,0.0,0.0,0.0,0.0,0.0,0.0,0.0,0.0,0.0,0.0,0.0,0.0,0.0,0.0,0.0,0.0,0.0,0.0,0.0,0.0,0.0,0.0,0.0,0.0,0.0,0.0,0.0,0.0,0.0,0.0,0.0,0.0,0.0,0.0,0.0,0.0,0.0,0.0,0.0,0.0,0.0,0.0,0.0,0.0,0.0,0.0,0.0,0.0,0.0,0.0,-0.4906,0.0,0.0,0.0,0.0,0.0,0.0,0.0,0.0,0.0,0.0,0.0,0.0,0.0,0.0,0.0,0.0,0.0,0.0,0.0,0.0,0.0,0.0,0.0,0.0,0.0,0.0,0.0,0.0,0.0,0.0,0.0,0.0,0.0,0.0,0.0,0.0,0.0,0.0,0.0,0.0,0.0,0.0,0.0,0.0,0.0,0.0,0.0,0.0,0.0,0.0,0.0,0.0,0.0,0.0,0.0,0.0,0.0,0.0,0.0,0.0,0.0,0.0,0.0,0.0,0.0,0.0,0.0,0.0,0.0,0.0,0.0,0.0,0.0,0.0,0.0,0.0,0.0,0.0,0.0,0.0,0.0,0.0,0.0,0.0,0.0,0.0,0.0,0.0,0.0,0.0,0.0,0.0,0.0,0.0,0.0,0.0,0.0,0.0,0.0,0.0,0.0,0.0,0.0,0.0,0.0,0.0,0.0,0.0,0.0,0.0,-0.4868,-0.4842,-0.4838,-0.4846,-0.4838,0.0,0.0,0.0,0.0,0.0,0.0,0.0,0.0,0.0,0.0,0.0,0.0,0.0,0.0,0.0,0.0,0.0,0.0,0.0,0.0,0.0,0.0,0.0,0.0,0.0,0.0,0.0,0.0,0.0,0.0,0.0,0.0,0.0,0.0,0.0,0.0,0.0,0.0,0.0,0.0,0.0,0.0,0.0,0.0,0.0,0.0,0.0,0.0,0.0,0.0,0.0,0.0,0.0,0.0,0.0,0.0,0.0,0.0,0.0,0.0,0.0,0.0,0.0,0.0,0.0,0.0,0.0,0.0,0.0,0.0,0.0,0.0,0.0,0.0,0.0,0.0,0.0,0.0,0.0,0.0,0.0,0.0,0.0,0.0,0.0,0.0,0.0,0.0,0.0,0.0,0.0,0.0,0.0,0.0,0.0,0.0,0.0,0.0,0.0,0.0,0.0,0.0,0.0,0.0,0.0,0.0,0.0,0.0,0.0,0.0,0.0,0.0,-0.474,-0.4732,-0.4736,0.0,0.0,0.0,0.0,0.0,0.0,0.0,0.0,0.0,0.0,0.0,0.0,0.0,0.0,0.0,0.0,0.0,0.0,0.0,0.0,0.0,0.0,0.0,0.0,0.0,0.0,0.0,0.0,0.0,0.0,0.0,0.0,0.0,0.0,0.0,0.0,0.0,0.0,0.0,0.0,0.0,0.0,0.0,0.0,0.0,0.0,0.0,0.0,0.0,0.0,0.0,0.0,0.0,0.0,0.0,0.0,0.0,0.0,0.0,0.0,0.0,0.0,0.0,0.0,0.0,0.0,0.0,0.0,0.0,0.0,0.0,0.0,0.0,0.0,0.0,0.0,0.0,0.0,0.0,0.0,0.0,0.0,0.0,0.0,0.0,0.0,0.0,0.0,0.0,0.0,0.0,0.0,0.0,0.0,0.0,0.0,0.0,0.0,0.0,0.0,0.0,0.0,0.0,0.0,0.0,0.0,0.0,0.0,0.0,0.0,-0.4574,-0.4629,-0.457,0.0,-0.4539,0.0,0.0,0.0,0.0,0.0,0.0,0.0,0.0,0.0,0.0,0.0,0.0,0.0,0.0,0.0,0.0,0.0,0.0,0.0,0.0,0.0,0.0,0.0,0.0,0.0,0.0,0.0,0.0,0.0,0.0,0.0,0.0,0.0,0.0,0.0,0.0,0.0,0.0,0.0,0.0,0.0,0.0,0.0,0.0,0.0,0.0,0.0,0.0,0.0,0.0,0.0,0.0,0.0,0.0,0.0,0.0,0.0,0.0,0.0,0.0,0.0,0.0,0.0,0.0,0.0,0.0,0.0,0.0,0.0,0.0,0.0,0.0,0.0,0.0,0.0,0.0,0.0,0.0,0.0,0.0,0.0,0.0,0.0,0.0,0.0,0.0,0.0,0.0,0.0,0.0,0.0,0.0,0.0,0.0,0.0,0.0,0.0,0.0,0.0,0.0,0.0,0.0,0.0,0.0,0.0,0.0,0.0,0.0,0.0,0.0,0.0,-0.4364,-0.4353,-0.4324,0.0,0.0,0.0,0.0,0.0,0.0,0.0,0.0,0.0,0.0,0.0,0.0,0.0,0.0,0.0,0.0,0.0,0.0,0.0,0.0,0.0,0.0,0.0,0.0,0.0,0.0,0.0,0.0,0.0,0.0,0.0,0.0,0.0,0.0,0.0,0.0,0.0,0.0,0.0,0.0,0.0,0.0,0.0,0.0,0.0,0.0,0.0,0.0,0.0,0.0,0.0,0.0,0.0,0.0,0.0,0.0,0.0,0.0,0.0,0.0,0.0,0.0,0.0,0.0,0.0,0.0,0.0,0.0,0.0,0.0,0.0,0.0,0.0,0.0,0.0,0.0,0.0,0.0,0.0,0.0,0.0,0.0,0.0,0.0,0.0,0.0,0.0,0.0,0.0,0.0,0.0,0.0,0.0,0.0,0.0,0.0,0.0,0.0,0.0,0.0,0.0,0.0,0.0,0.0,0.0,0.0,0.0,0.0,0.0,0.0,-0.3977,0.0,-0.4153,-0.432,-0.4325,-0.412,0.0,0.0,0.0,0.0,0.0,0.0,0.0,0.0,0.0,0.0,0.0,0.0,0.0,0.0,0.0,0.0,0.0,0.0,0.0,0.0,0.0,0.0,0.0,0.0,0.0,0.0,0.0,0.0,0.0,0.0,0.0,0.0,0.0,0.0,0.0,0.0,0.0,0.0,0.0,0.0,0.0,0.0,0.0,0.0,0.0,0.0,0.0,0.0,0.0,0.0,0.0,0.0,0.0,0.0,0.0,0.0,0.0,0.0,0.0,0.0,0.0,0.0,0.0,0.0,0.0,0.0,0.0,0.0,0.0,0.0,0.0,0.0,0.0,0.0,0.0,0.0,0.0,0.0,0.0,0.0,0.0,0.0,0.0,0.0,0.0,0.0,0.0,0.0,0.0,0.0,0.0,0.0,0.0,0.0,0.0,0.0,0.0,0.0,0.0,0.0,0.0,0.0,0.0,0.0,0.0,0.0,0.0,0.0,0.0,-0.3802,-0.3943,-0.4042,-0.464,-0.4639,0.0,0.0,0.0,0.0,0.0,0.0,0.0,0.0,0.0,0.0,0.0,0.0,0.0,0.0,0.0,0.0,0.0,0.0,0.0,0.0,0.0,0.0,0.0,0.0,0.0,0.0,0.0,0.0,0.0,0.0,0.0,0.0,0.0,0.0,0.0,0.0,0.0,0.0,0.0,0.0,0.0,0.0,0.0,0.0,0.0,0.0,0.0,0.0,0.0,0.0,0.0,0.0,0.0,0.0,0.0,0.0,0.0,0.0,0.0,0.0,0.0,0.0,0.0,0.0,0.0,0.0,0.0,0.0,0.0,0.0,0.0,0.0,0.0,0.0,0.0,0.0,0.0,0.0,0.0,0.0,0.0,0.0,0.0,0.0,0.0,0.0,0.0,0.0,0.0,0.0,0.0,0.0,0.0,0.0,0.0,0.0,0.0,0.0,0.0,0.0,0.0,0.0,0.0,0.0,0.0,0.0,0.0,0.0,0.0,-0.3417,-0.4257,-0.4663,0.0,-0.4823,-0.4591,0.0,0.0,0.0,0.0,0.0,0.0,0.0,0.0,0.0,0.0,0.0,0.0,0.0,0.0,0.0,0.0,0.0,0.0,0.0,0.0,0.0,0.0,0.0,0.0,0.0,0.0,0.0,0.0,0.0,0.0,0.0,0.0,0.0,0.0,0.0,0.0,0.0,0.0,0.0,0.0,0.0,0.0,0.0,0.0,0.0,0.0,0.0,0.0,0.0,0.0,0.0,0.0,0.0,0.0,0.0,0.0,0.0,0.0,0.0,0.0,0.0,0.0,0.0,0.0,0.0,0.0,0.0,0.0,0.0,0.0,0.0,0.0,0.0,0.0,0.0,0.0,0.0,0.0,0.0,0.0,0.0,0.0,0.0,0.0,0.0,0.0,0.0,0.0,0.0,0.0,0.0,0.0,0.0,0.0,0.0,0.0,0.0,0.0,0.0,0.0,0.0,0.0,0.0,0.0,0.0,0.0,0.0,0.0,0.0,-0.3774,0.0,-0.5576,0.0,-0.5265,-0.4853,0.0,0.0,0.0,0.0,0.0,0.0,0.0,0.0,0.0,0.0,0.0,0.0,0.0,0.0,0.0,0.0,0.0,0.0,0.0,0.0,0.0,0.0,0.0,0.0,0.0,0.0,0.0,0.0,0.0,0.0,0.0,0.0,0.0,0.0,0.0,0.0,0.0,0.0,0.0,0.0,0.0,0.0,0.0,0.0,0.0,0.0,0.0,0.0,0.0,0.0,0.0,0.0,0.0,0.0,0.0,0.0,0.0,0.0,0.0,0.0,0.0,0.0,0.0,0.0,0.0,0.0,0.0,0.0,0.0,0.0,0.0,0.0,0.0,0.0,0.0,0.0,0.0,0.0,0.0,0.0,0.0,0.0,0.0,0.0,0.0,0.0,0.0,0.0,0.0,0.0,0.0,0.0,0.0,0.0,0.0,0.0,0.0,0.0,0.0,0.0,0.0,0.0,0.0,0.0,0.0,0.0,0.0,0.0,-0.388,-0.4846,-0.6197,-0.6674,-0.6053,-0.6053,-0.5585,0.0,0.0,0.0,0.0,0.0,0.0,0.0,0.0,0.0,0.0,0.0,0.0,0.0,0.0,0.0,0.0,0.0,0.0,0.0,0.0,0.0,0.0,0.0,0.0,0.0,0.0,0.0,0.0,0.0,0.0,0.0,0.0,0.0,0.0,0.0,0.0,0.0,0.0,0.0,0.0,0.0,0.0,0.0,0.0,0.0,0.0,0.0,0.0,0.0,0.0,0.0,0.0,0.0,0.0,0.0,0.0,0.0,0.0,0.0,0.0,0.0,0.0,0.0,0.0,0.0,0.0,0.0,0.0,0.0,0.0,0.0,0.0,0.0,0.0,0.0,0.0,0.0,0.0,0.0,0.0,0.0,0.0,0.0,0.0,0.0,0.0,0.0,0.0,0.0,0.0,0.0,0.0,0.0,0.0,0.0,0.0,0.0,0.0,0.0,0.0,0.0,0.0,0.0,0.0,0.0,0.0,0.0,0.0,0.0,-0.7147,-0.888,-0.9133,-0.7819,-0.7648,-0.6691,0.0,0.0,0.0,0.0,0.0,0.0,0.0,0.0,0.0,0.0,0.0,0.0,0.0,0.0,0.0,0.0,0.0,0.0,0.0,0.0,0.0,0.0,0.0,0.0,0.0,0.0,0.0,0.0,0.0,0.0,0.0,0.0,0.0,0.0,0.0,0.0,0.0,0.0,0.0,0.0,0.0,0.0,0.0,0.0,0.0,0.0,0.0,0.0,0.0,0.0,0.0,0.0,0.0,0.0,0.0,0.0,0.0,0.0,0.0,0.0,0.0,0.0,0.0,0.0,0.0,0.0,0.0,0.0,0.0,0.0,0.0,0.0,0.0,0.0,0.0,0.0,0.0,0.0,0.0,0.0,0.0,0.0,0.0,0.0,0.0,0.0,0.0,0.0,0.0,0.0,0.0,0.0,0.0,0.0,0.0,0.0,0.0,0.0,0.0,0.0,0.0,0.0,0.0,0.0,0.0,0.0,0.0,0.0,0.0,-1.154,-1.4567,-1.4588,-1.1498,-1.0814,-0.8973,-0.5829,0.0,0.0,0.0,0.0,0.0,0.0,0.0,0.0,0.0,0.0,0.0,0.0,0.0,0.0,0.0,0.0,0.0,0.0,0.0,0.0,0.0,0.0,0.0,0.0,0.0,0.0,0.0,0.0,0.0,0.0,0.0,0.0,0.0,0.0,0.0,0.0,0.0,0.0,0.0,0.0,0.0,0.0,0.0,0.0,0.0,0.0,0.0,0.0,0.0,0.0,0.0,0.0,0.0,0.0,0.0,0.0,0.0,0.0,0.0,0.0,0.0,0.0,0.0,0.0,0.0,0.0,0.0,0.0,0.0,0.0,0.0,0.0,0.0,0.0,0.0,0.0,0.0,0.0,0.0,0.0,0.0,0.0,0.0,0.0,0.0,0.0,0.0,0.0,0.0,0.0,0.0,0.0,0.0,0.0,0.0,0.0,0.0,0.0,0.0,0.0,0.0,0.0,0.0,0.0,0.0,0.0,0.0,0.0,-1.7607,-2.2578,-2.2435,-1.6907,-1.5145,-1.2192,0.0,0.0,0.0,0.0,0.0,0.0,0.0,0.0,0.0,0.0,0.0,0.0,0.0,0.0,0.0,0.0,0.0,0.0,0.0,0.0,0.0,0.0,0.0,0.0,0.0,0.0,0.0,0.0,0.0,0.0,0.0,0.0,0.0,0.0,0.0,0.0,0.0,0.0,0.0,0.0,0.0,0.0,0.0,0.0,0.0,0.0,0.0,0.0,0.0,0.0,0.0,0.0,0.0,0.0,0.0,0.0,0.0,0.0,0.0,0.0,0.0,0.0,0.0,0.0,0.0,0.0,0.0,0.0,0.0,0.0,0.0,0.0,0.0,0.0,0.0,0.0,0.0,0.0,0.0,0.0,0.0,0.0,0.0,0.0,0.0,0.0,0.0,0.0,0.0,0.0,0.0,0.0,0.0,0.0,0.0,0.0,0.0,0.0,0.0,0.0,0.0,0.0,0.0,0.0,0.0,0.0,0.0,0.0,0.0,-2.1465,-2.8886,-2.9036,-2.1565,-1.8243,-1.5167,0.0,0.0,0.0,0.0,0.0,0.0,0.0,0.0,0.0,0.0,0.0,0.0,0.0,0.0,0.0,0.0,0.0,0.0,0.0,0.0,0.0,0.0,0.0,0.0,0.0,0.0,0.0,0.0,0.0,0.0,0.0,0.0,0.0,0.0,0.0,0.0,0.0,0.0,0.0,0.0,0.0,0.0,0.0,0.0,0.0,0.0,0.0,0.0,0.0,0.0,0.0,0.0,0.0,0.0,0.0,0.0,0.0,0.0,0.0,0.0,0.0,0.0,0.0,0.0,0.0,0.0,0.0,0.0,0.0,0.0,0.0,0.0,0.0,0.0,0.0,0.0,0.0,0.0,0.0,0.0,0.0,0.0,0.0,0.0,0.0,0.0,0.0,0.0,0.0,0.0,0.0,0.0,0.0,0.0,0.0,0.0,0.0,0.0,0.0,0.0,0.0,0.0,0.0,0.0,0.0,0.0,0.0,0.0,-1.3543,-2.4016,-3.1537,-3.3012,-2.8051,-2.2747,-1.8141,0.0,0.0,0.0,0.0,0.0,0.0,0.0,0.0,0.0,0.0,0.0,0.0,0.0,0.0,0.0,0.0,0.0,0.0,0.0,0.0,0.0,0.0,0.0,0.0,0.0,0.0,0.0,0.0,0.0,0.0,0.0,0.0,0.0,0.0,0.0,0.0,0.0,0.0,0.0,0.0,0.0,0.0,0.0,0.0,0.0,0.0,0.0,0.0,0.0,0.0,0.0,0.0,0.0,0.0,0.0,0.0,0.0,0.0,0.0,0.0,0.0,0.0,0.0,0.0,0.0,0.0,0.0,0.0,0.0,0.0,0.0,0.0,0.0,0.0,0.0,0.0,0.0,0.0,0.0,0.0,0.0,0.0,0.0,0.0,0.0,0.0,0.0,0.0,0.0,0.0,0.0,0.0,0.0,0.0,0.0,0.0,0.0,0.0,0.0,0.0,0.0,0.0,0.0,0.0,0.0,0.0,0.0,0.0,-1.4684,-2.5822,-3.1993,-3.503,-3.4585,-2.7463,-2.1129,0.0,0.0,0.0,0.0,0.0,0.0,0.0,0.0,0.0,0.0,0.0,0.0,0.0,0.0,0.0,0.0,0.0,0.0,0.0,0.0,0.0,0.0,0.0,0.0,0.0,0.0,0.0,0.0,0.0,0.0,0.0,0.0,0.0,0.0,0.0,0.0,0.0,0.0,0.0,0.0,0.0,0.0,0.0,0.0,0.0,0.0,0.0,0.0,0.0,0.0,0.0,0.0,0.0,0.0,0.0,0.0,0.0,0.0,0.0,0.0,0.0,0.0,0.0,0.0,0.0,0.0,0.0,0.0,0.0,0.0,0.0,0.0,0.0,0.0,0.0,0.0,0.0,0.0,0.0,0.0,0.0,0.0,0.0,0.0,0.0,0.0,0.0,0.0,0.0,0.0,0.0,0.0,0.0,0.0,0.0,0.0,0.0,0.0,0.0,0.0,0.0,0.0,0.0,0.0,0.0,0.0,0.0,0.0,-1.7824,-2.87,-3.3164,-3.5178,-3.487,-2.8442,-2.3638,0.0,0.0,0.0,0.0,0.0,0.0,0.0,0.0,0.0,0.0,0.0,0.0,0.0,0.0,0.0,0.0,0.0,0.0,0.0,0.0,0.0,0.0,0.0,0.0,0.0,0.0,0.0,0.0,0.0,0.0,0.0,0.0,0.0,0.0,0.0,0.0,0.0,0.0,0.0,0.0,0.0,0.0,0.0,0.0,0.0,0.0,0.0,0.0,-0.2047,0.0,0.0,0.0,0.0,0.0,0.0,0.0,0.0,0.0,0.0,0.0,0.0,0.0,0.0,0.0,0.0,0.0,0.0,0.0,0.0,0.0,0.0,0.0,0.0,0.0,0.0,0.0,0.0,0.0,0.0,0.0,0.0,0.0,0.0,0.0,0.0,0.0,0.0,0.0,0.0,0.0,0.0,0.0,0.0,0.0,0.0,0.0,0.0,0.0,0.0,0.0,0.0,0.0,0.0,0.0,0.0,0.0,0.0,0.0,-2.2337,-3.0289,-3.3661,-3.5184,-3.4793,-3.034,-2.6113,0.0,0.0,0.0,0.0,0.0,0.0,0.0,0.0,0.0,0.0,0.0,0.0,0.0,0.0,0.0,0.0,0.0,0.0,0.0,0.0,0.0,0.0,0.0,0.0,0.0,0.0,0.0,0.0,0.0,0.0,0.0,0.0,0.0,0.0,0.0,0.0,0.0,0.0,0.0,0.0,0.0,0.0,0.0,0.0,0.0,0.0,0.0,0.0,0.0,0.0,0.0,0.0,0.0,0.0,0.0,0.0,0.0,0.0,0.0,0.0,0.0,0.0,0.0,0.0,0.0,0.0,0.0,0.0,0.0,0.0,0.0,0.0,0.0,0.0,0.0,0.0,0.0,0.0,0.0,0.0,0.0,0.0,0.0,0.0,0.0,0.0,0.0,0.0,0.0,0.0,0.0,0.0,0.0,0.0,0.0,0.0,0.0,0.0,0.0,0.0,0.0,0.0,0.0,0.0,0.0,0.0,0.0,-2.1671,-2.6564,-3.1737,-3.4082,-3.5124,-3.4944,-3.2127,-2.8103,-2.2712,0.0,0.0,0.0,0.0,0.0,0.0,0.0,0.0,0.0,0.0,0.0,0.0,0.0,0.0,0.0,0.0,0.0,0.0,0.0,0.0,0.0,0.0,0.0,0.0,0.0,0.0,0.0,0.0,0.0,0.0,0.0,0.0,0.0,0.0,0.0,0.0,0.0,0.0,-0.412,-0.4422,0.0,0.0,0.0,0.0,0.0,0.0,0.0,0.0,-1.4688,0.0,0.0,0.0,0.0,0.0,0.0,0.0,0.0,0.0,0.0,0.0,0.0,0.0,0.0,0.0,0.0,0.0,0.0,0.0,0.0,0.0,0.0,0.0,0.0,0.0,0.0,0.0,0.0,0.0,0.0,0.0,0.0,0.0,0.0,0.0,0.0,0.0,0.0,0.0,0.0,0.0,0.0,0.0,0.0,0.0,0.0,0.0,0.0,0.0,0.0,0.0,0.0,0.0,0.0,0.0,0.0,-2.0504,-2.3037,-2.7695,-3.4525,-3.5047,-3.5124,-3.4906,-3.2204,-2.8313,-2.3252,0.0,0.0,0.0,0.0,0.0,0.0,0.0,0.0,0.0,0.0,0.0,0.0,0.0,0.0,0.0,0.0,0.0,0.0,0.0,0.0,0.0,0.0,0.0,0.0,0.0,0.0,0.0,0.0,0.0,0.0,0.0,0.0,0.0,0.0,0.0,0.0,0.0,0.0,0.0,-0.9383,-0.9069,0.0,0.0,0.0,0.0,0.0,0.0,0.0,0.0,-2.0572,0.0,0.0,0.0,0.0,0.0,0.0,0.0,0.0,0.0,0.0,0.0,0.0,0.0,0.0,0.0,0.0,0.0,0.0,0.0,0.0,0.0,0.0,0.0,0.0,0.0,0.0,0.0,0.0,0.0,0.0,0.0,0.0,0.0,0.0,0.0,0.0,0.0,0.0,0.0,0.0,0.0,0.0,0.0,0.0,0.0,0.0,0.0,0.0,0.0,0.0,0.0,0.0,0.0,0.0,0.0,-2.123,-2.4623,-2.9268,-3.5162,-3.527,-3.5124,-3.5051,-3.2147,-2.8108,0.0,0.0,0.0,0.0,0.0,0.0,0.0,0.0,0.0,0.0,0.0,0.0,0.0,0.0,0.0,0.0,0.0,0.0,0.0,0.0,0.0,0.0,0.0,0.0,0.0,0.0,0.0,0.0,0.0,0.0,0.0,0.0,0.0,0.0,0.0,0.0,0.0,0.0,0.0,0.0,-1.1773,-1.2677,-1.0549,0.0,0.0,0.0,0.0,0.0,0.0,-2.1425,-2.1675,0.0,0.0,0.0,0.0,0.0,0.0,0.0,0.0,0.0,0.0,0.0,0.0,0.0,0.0,0.0,0.0,0.0,0.0,0.0,0.0,0.0,0.0,0.0,0.0,0.0,0.0,0.0,0.0,0.0,0.0,0.0,0.0,0.0,0.0,0.0,0.0,0.0,0.0,0.0,0.0,0.0,0.0,0.0,0.0,0.0,0.0,0.0,0.0,0.0,0.0,0.0,0.0,0.0,0.0,0.0,-2.1507,-2.6067,-3.0685,-3.5213,-3.5262,-3.5157,-3.5098,-3.1582,-2.7249,0.0,0.0,0.0,0.0,0.0,0.0,0.0,0.0,0.0,0.0,0.0,0.0,0.0,0.0,0.0,0.0,0.0,0.0,0.0,0.0,0.0,0.0,0.0,0.0,0.0,0.0,0.0,0.0,0.0,0.0,0.0,0.0,0.0,0.0,0.0,0.0,0.0,0.0,0.0,0.0,0.0,-1.4833,-1.6613,-1.4397,0.0,0.0,0.0,0.0,-2.3288,-2.4147,0.0,0.0,0.0,0.0,0.0,0.0,0.0,0.0,0.0,0.0,0.0,0.0,0.0,0.0,0.0,0.0,0.0,0.0,0.0,0.0,0.0,0.0,0.0,0.0,0.0,0.0,0.0,0.0,0.0,0.0,0.0,0.0,0.0,0.0,0.0,0.0,0.0,0.0,0.0,0.0,0.0,0.0,0.0,0.0,0.0,0.0,0.0,0.0,0.0,0.0,0.0,0.0,0.0,0.0,0.0,0.0,-2.194,-2.6964,-3.1408,-3.5158,-3.5383,-3.5324,-3.5114,-2.9719,-2.5263,0.0,0.0,0.0,0.0,0.0,0.0,0.0,0.0,0.0,0.0,0.0,0.0,0.0,0.0,0.0,0.0,0.0,0.0,0.0,0.0,0.0,0.0,0.0,0.0,0.0,0.0,0.0,0.0,0.0,0.0,0.0,0.0,0.0,0.0,0.0,0.0,0.0,0.0,0.0,0.0,0.0,-1.4363,-2.4334,-2.5533,-2.3417,0.0,0.0,-1.9871,-2.8305,-2.0799,0.0,0.0,0.0,0.0,0.0,0.0,0.0,0.0,0.0,0.0,0.0,0.0,0.0,0.0,0.0,0.0,0.0,0.0,0.0,0.0,0.0,0.0,0.0,0.0,0.0,0.0,0.0,0.0,0.0,0.0,0.0,0.0,0.0,0.0,0.0,0.0,0.0,0.0,0.0,0.0,0.0,0.0,0.0,0.0,0.0,0.0,0.0,0.0,0.0,0.0,0.0,0.0,0.0,0.0,0.0,-1.7287,-2.2057,-2.8259,-3.2732,-3.5287,-3.5324,-3.5245,-3.519,-2.9289,-2.4557,0.0,0.0,0.0,0.0,0.0,0.0,0.0,0.0,0.0,0.0,0.0,0.0,0.0,0.0,0.0,0.0,0.0,0.0,0.0,0.0,0.0,0.0,0.0,0.0,0.0,0.0,0.0,0.0,0.0,0.0,0.0,0.0,0.0,0.0,0.0,0.0,0.0,0.0,0.0,0.0,0.0,0.0,-2.1914,-2.6629,0.0,0.0,0.0,-2.2782,-2.9457,0.0,0.0,0.0,0.0,0.0,0.0,0.0,0.0,0.0,0.0,0.0,0.0,0.0,0.0,0.0,0.0,0.0,0.0,0.0,0.0,0.0,0.0,0.0,0.0,0.0,0.0,0.0,0.0,0.0,0.0,0.0,0.0,0.0,0.0,0.0,0.0,0.0,0.0,0.0,0.0,0.0,0.0,0.0,0.0,0.0,0.0,0.0,0.0,0.0,0.0,0.0,0.0,0.0,0.0,0.0,0.0,0.0,-2.2218,-2.9427,-3.3865,-3.5287,-3.5293,-3.5212,-3.5098,-2.9701,0.0,0.0,0.0,0.0,0.0,0.0,0.0,0.0,0.0,0.0,0.0,0.0,0.0,0.0,0.0,0.0,0.0,0.0,0.0,0.0,0.0,0.0,0.0,0.0,0.0,0.0,0.0,-0.0387,0.0,0.0,0.0,0.0,0.0,0.0,0.0,0.0,0.0,0.0,0.0,0.0,0.0,0.0,-1.3003,-1.9195,-2.6018,-2.892,0.0,0.0,-2.5723,-3.0833,-2.9717,-2.6954,0.0,0.0,0.0,0.0,0.0,0.0,0.0,0.0,0.0,0.0,0.0,0.0,0.0,0.0,0.0,0.0,0.0,0.0,0.0,0.0,0.0,0.0,0.0,0.0,0.0,0.0,0.0,0.0,0.0,0.0,0.0,0.0,0.0,0.0,0.0,0.0,0.0,0.0,0.0,0.0,0.0,0.0,0.0,0.0,0.0,0.0,0.0,0.0,0.0,0.0,0.0,0.0,0.0,0.0,0.0,-2.2849,-3.0257,-3.4481,-3.5277,-3.53,-3.5254,-3.5152,-3.1269,-2.6784,0.0,0.0,0.0,0.0,0.0,0.0,0.0,0.0,0.0,0.0,0.0,0.0,0.0,0.0,0.0,0.0,0.0,0.0,0.0,0.0,0.0,0.0,0.0,0.0,0.0,0.0,0.0,0.0,0.0,0.0,0.0,0.0,0.0,0.0,0.0,0.0,0.0,0.0,0.0,0.0,0.0,-1.431,-1.9485,-2.6089,-2.9655,0.0,0.0,-2.9073,-3.3872,-3.2177,-2.8867,-2.4713,0.0,0.0,0.0,0.0,0.0,0.0,0.0,0.0,0.0,0.0,0.0,0.0,0.0,0.0,0.0,0.0,0.0,0.0,0.0,0.0,0.0,0.0,0.0,0.0,0.0,0.0,0.0,0.0,0.0,0.0,0.0,0.0,0.0,0.0,0.0,0.0,0.0,0.0,0.0,0.0,0.0,0.0,0.0,0.0,0.0,0.0,0.0,0.0,0.0,0.0,0.0,0.0,0.0,-1.9271,-2.281,-3.0266,-3.4529,-3.5277,-3.5254,-3.5223,-3.519,-3.1751,-2.7566,0.0,0.0,0.0,0.0,0.0,0.0,0.0,0.0,0.0,0.0,0.0,0.0,0.0,0.0,0.0,0.0,0.0,0.0,0.0,0.0,0.0,0.0,0.0,0.0,0.0,0.0,0.0,0.0,-0.6345,-1.2691,-2.0376,0.0,0.0,0.0,0.0,0.0,0.0,0.0,0.0,0.0,0.0,-1.6354,-2.2991,-2.9239,0.0,0.0,-3.2252,-3.2782,-3.4645,-3.2431,-2.9137,-2.5171,-1.8198,0.0,0.0,0.0,0.0,0.0,0.0,0.0,0.0,0.0,0.0,0.0,0.0,0.0,0.0,0.0,0.0,0.0,0.0,0.0,0.0,0.0,0.0,0.0,0.0,0.0,0.0,0.0,0.0,0.0,0.0,0.0,0.0,0.0,0.0,0.0,0.0,0.0,0.0,0.0,0.0,0.0,0.0,0.0,0.0,0.0,0.0,0.0,0.0,0.0,0.0,0.0,0.0,-1.9656,-2.2867,-3.0516,-3.4745,-3.5307,-3.527,-3.5207,-3.5098,-3.2675,-2.9267,0.0,0.0,0.0,0.0,0.0,0.0,0.0,0.0,0.0,0.0,0.0,0.0,0.0,0.0,0.0,0.0,0.0,0.0,0.0,0.0,0.0,0.0,0.0,0.0,0.0,0.0,0.0,0.0,-0.4633,-0.5736,-1.449,0.0,0.0,0.0,0.0,0.0,0.0,0.0,0.0,0.0,0.0,-1.9679,-2.5546,-3.1383,-3.441,-3.2363,-3.3777,-3.5118,-3.5118,-3.1402,-2.7232,-2.3529,0.0,0.0,0.0,0.0,0.0,0.0,0.0,0.0,0.0,0.0,0.0,0.0,0.0,0.0,0.0,0.0,0.0,0.0,0.0,0.0,0.0,0.0,0.0,0.0,0.0,0.0,0.0,0.0,0.0,0.0,-0.0569,0.0,0.0,0.0,0.0,0.0,0.0,0.0,0.0,0.0,0.0,0.0,0.0,0.0,0.0,0.0,0.0,0.0,0.0,0.0,0.0,0.0,0.0,-2.0625,-2.305,-3.1157,-3.5353,-3.5391,-3.5345,-3.527,-3.519,-3.4372,-3.2234,-2.866,0.0,0.0,0.0,0.0,0.0,0.0,0.0,0.0,0.0,0.0,0.0,0.0,0.0,0.0,0.0,0.0,0.0,0.0,0.0,0.0,0.0,0.0,0.0,0.0,0.0,0.0,-2.1593,-1.0238,-0.236,0.0,0.0,0.0,0.0,0.0,0.0,0.0,0.0,0.0,0.0,-2.22,-2.4414,-2.6556,-3.1765,-3.2809,-2.5564,-3.0629,-3.5487,-3.5374,-2.9054,-2.2788,0.0,0.0,0.0,0.0,0.0,0.0,0.0,0.0,0.0,0.0,0.0,0.0,0.0,0.0,0.0,0.0,0.0,0.0,0.0,0.0,0.0,0.0,0.0,0.0,0.0,0.0,0.0,-0.4979,-0.4044,0.0,0.0,0.0,0.0,0.0,0.0,0.0,0.0,0.0,0.0,0.0,-1.8824,-1.9559,0.0,0.0,0.0,0.0,0.0,0.0,0.0,0.0,0.0,0.0,0.0,0.0,-2.1516,-2.421,-3.1501,-3.5457,-3.5547,-3.5388,-3.53,-3.527,-3.4874,-3.2657,-2.8441,0.0,0.0,0.0,0.0,0.0,0.0,0.0,0.0,0.0,0.0,0.0,0.0,0.0,0.0,0.0,0.0,0.0,0.0,0.0,0.0,0.0,0.0,0.0,0.0,0.0,-1.2274,0.0,0.0,0.0,0.0,0.0,0.0,0.0,0.0,0.0,0.0,0.0,-2.1755,-2.5983,-2.5981,-2.736,-3.1962,-3.1489,-3.0657,0.0,0.0,0.0,0.0,0.0,0.0,0.0,0.0,0.0,0.0,0.0,0.0,0.0,0.0,-1.6308,-0.9205,-0.9383,-1.0796,-1.1311,0.0,0.0,0.0,0.0,0.0,0.0,0.0,0.0,0.0,0.0,0.0,0.0,0.0,0.0,-1.0828,0.0,-0.5504,0.0,0.0,0.0,0.0,0.0,0.0,0.0,0.0,-2.1607,-2.434,-2.5468,-2.6228,-2.6191,0.0,-2.4063,-1.9503,0.0,0.0,0.0,0.0,0.0,0.0,0.0,0.0,-2.2719,-2.5263,-3.1897,-3.547,-3.5572,-3.5416,-3.5307,-3.53,-3.5016,-3.3353,-3.0064,-2.5351,-2.0944,0.0,0.0,0.0,0.0,0.0,0.0,0.0,0.0,0.0,0.0,0.0,0.0,0.0,0.0,0.0,0.0,0.0,0.0,0.0,0.0,0.0,0.0,0.0,-0.7611,0.0,0.0,0.0,0.0,0.0,0.0,0.0,0.0,0.0,-1.556,-2.0626,-2.503,-2.8041,-2.7967,-2.9072,-3.2997,0.0,0.0,0.0,0.0,0.0,0.0,0.0,-2.5461,-2.5461,-3.0965,-3.3563,-2.808,-2.8904,-3.2252,-3.8094,0.0,0.0,-1.7659,-1.9229,-2.2394,-2.2928,-3.255,-3.9187,-3.4292,-2.7721,-2.2452,0.0,0.0,0.0,0.0,0.0,0.0,0.0,0.0,-2.0604,-1.8642,0.0,-1.1358,0.0,0.0,0.0,0.0,0.0,-2.105,0.0,0.0,-3.2992,-3.5698,-3.2826,-3.2985,-3.3006,-3.2589,-2.915,-2.7093,-2.6197,-2.1877,0.0,0.0,0.0,0.0,0.0,0.0,-2.4282,-2.6561,-3.2401,-3.5509,-3.5649,-3.547,-3.535,-3.53,-3.4888,-3.4318,-3.341,-2.9465,-2.6277,-2.4028,-1.359,0.0,0.0,0.0,0.0,0.0,0.0,0.0,0.0,0.0,0.0,0.0,0.0,0.0,0.0,0.0,0.0,0.0,0.0,0.0,0.0,-0.6794,0.0,0.0,0.0,0.0,0.0,0.0,0.0,0.0,0.0,0.0,-2.9695,-3.2991,-3.2476,-2.7036,0.0,0.0,0.0,0.0,-2.8746,-2.9185,-3.5126,-3.6509,-2.8196,-2.7937,-2.884,-2.9222,0.0,0.0,-4.1915,-4.4044,-4.5111,-4.5474,-4.5111,-4.1648,-2.9355,-3.3372,-3.8606,-3.8891,-4.0467,-4.2367,-4.2989,-3.5487,-2.889,-3.065,0.0,0.0,0.0,0.0,-2.3832,-2.4601,-2.536,-2.5411,-2.3176,-1.9623,-2.219,0.0,0.0,0.0,0.0,0.0,0.0,-2.7983,-3.1108,-3.5124,-3.7327,-3.8041,-3.8804,-3.8553,-3.7343,-3.6277,-3.5414,-3.4657,-3.3402,-2.7502,-1.7487,0.0,0.0,0.0,0.0,-2.7494,-3.0468,-3.4361,-3.6433,-3.6532,-3.5766,-3.5292,-3.5089,-3.4982,-3.4717,-3.4308,-3.2526,-3.0095,-2.6838,-2.4329,0.0,0.0,0.0,0.0,0.0,0.0,0.0,0.0,0.0,0.0,0.0,0.0,0.0,0.0,0.0,0.0,0.0,0.0,0.0,-1.5503,-1.7999,-1.6389,0.0,0.0,0.0,0.0,0.0,0.0,0.0,0.0,0.0,-2.8439,-3.4195,-3.5897,0.0,0.0,-2.8294,-3.1405,-2.9983,-3.0071,-3.4321,-3.3394,0.0,-3.3634,-3.2778,-3.4087,-4.0147,-4.3623,-4.4471,-4.0976,-4.4543,-4.7971,-4.7937,-4.838,-4.6742,-4.1648,-4.1504,-4.3014,-4.3127,-4.3495,-4.4372,-4.5587,-4.2355,-3.8985,-3.9436,-3.4541,-3.1268,-2.994,-3.0152,-3.0751,-3.1601,-3.2577,-3.2545,-3.1142,-2.8867,-3.038,-3.0277,-2.9012,-2.8763,0.0,0.0,0.0,-3.3198,-3.6798,-3.838,-3.9924,-4.1265,-4.1911,-4.1761,-4.0853,-4.0853,-4.0626,-4.0192,-3.8711,-3.4167,-2.6712,0.0,0.0,-2.3575,-2.7606,-3.0873,-3.3264,-3.5932,-3.7266,-3.7102,-3.5958,-3.5216,-3.4964,-3.4946,-3.4811,-3.4626,-3.4111,-3.2583,-3.0073,-3.0798,-2.6822,0.0,0.0,0.0,0.0,0.0,0.0,0.0,0.0,0.0,0.0,0.0,-0.492,-1.4813,0.0,0.0,0.0,-1.0763,-1.5704,-2.1884,-2.1673,0.0,0.0,0.0,0.0,0.0,0.0,0.0,-2.6891,-2.8308,-2.942,-3.1482,-3.7842,-4.0334,-3.5172,-3.0764,-2.9035,-3.1667,0.0,-3.2973,-3.9863,-3.8039,-3.6112,-3.6958,-3.7889,-4.0481,-4.6,-4.8321,-4.7854,-4.3642,-4.6212,-4.8849,-4.908,-4.9564,-4.9424,-4.7562,-4.6975,-4.6635,-4.6404,-4.6474,-4.6795,-4.7261,-4.6166,-4.4929,-4.6025,-4.5021,-3.8957,-3.6516,-3.6721,-3.7424,-3.8921,-4.077,-4.0733,-4.0662,-4.0275,-3.6407,-3.7155,-4.0966,-3.447,0.0,-3.5266,-3.697,-3.9064,-4.151,-4.2443,-4.2928,-4.3004,-4.3073,-4.315,-4.3192,-4.3192,-4.3272,-4.3169,-3.9879,-3.8084,-3.7906,-3.5422,-3.253,-2.9584,-3.2086,-3.4112,-3.5328,-3.7167,-3.7909,-3.7531,-3.6059,-3.5196,-3.5022,-3.4849,-3.4768,-3.4706,-3.4517,-3.4091,-3.3381,-3.3902,-3.2864,-2.9551,0.0,0.0,0.0,0.0,0.0,0.0,0.0,0.0,0.0,0.0,0.0,0.0,0.0,0.0,0.0,-1.8844,0.0,-2.6223,-2.0948,0.0,0.0,0.0,-1.8833,-2.1173,-2.5041,-3.225,-4.4336,0.0,0.0,-3.8211,-4.3385,-4.5301,-4.1096,-3.5424,-3.1735,-3.1671,-3.3491,-3.7292,-4.5022,-4.6084,-4.4202,-3.9736,-4.2538,-4.6049,-4.8032,-4.9375,-4.9436,-4.7557,-4.8099,-4.8944,-4.9229,-4.9727,-5.0114,-5.0045,-4.9711,-4.9801,-4.9033,-4.9222,-4.9067,-4.7897,-4.7137,-4.7058,-4.616,-4.5997,-4.4428,-4.3536,-4.3169,-4.3139,-4.3603,-4.4307,-4.3754,-4.3031,-4.2122,-4.0775,-4.0634,-4.1415,-3.9888,-3.9834,-4.0932,-4.1455,-4.2398,-4.3806,-4.425,-4.42,-4.3771,-4.3939,-4.3712,-4.3226,-4.3231,-4.3272,-4.3376,-4.2473,-4.1661,-4.0951,-4.0281,-3.7469,-3.2716,-3.3865,-3.5454,-3.7294,-3.7783,-3.7976,-3.7781,-3.6074,-3.5359,-3.5796,-3.5171,-3.4771,-3.4706,-3.4604,-3.4464,-3.4277,-3.4405,-3.4136,-3.3224,-2.7224,0.0,0.0,0.0,0.0,0.0,0.0,0.0,0.0,0.0,-1.232,-3.6338,0.0,-2.6282,0.0,-1.9762,-2.5749,-3.2986,-2.8049,0.0,0.0,-3.2712,-4.0671,-4.1353,-4.3022,-4.5466,-4.8471,-4.7064,-4.61,-4.6986,-4.7985,-4.8259,-4.7059,-4.1645,-3.7684,-3.7792,-4.0902,-4.412,-4.6863,-4.6895,-4.5712,-4.4472,-4.5163,-4.7171,-4.9783,-5.1276,-5.1118,-4.837,-4.8712,-4.959,-5.0332,-5.135,-5.1442,-5.0345,-5.0011,-4.9952,-4.9801,-4.9801,-4.9801,-4.9376,-4.8245,-4.7699,-4.759,-4.7553,-4.7681,-4.7229,-4.6419,-4.589,-4.5798,-4.5955,-4.5584,-4.463,-4.3355,-4.3821,-4.404,-4.3968,-4.4046,-4.4393,-4.4834,-4.4595,-4.4775,-4.5332,-4.5239,-4.4975,-4.471,-4.4855,-4.4739,-4.438,-4.4407,-4.4447,-4.4548,-4.4172,-4.3746,-4.3257,-4.2869,-4.0887,-3.7483,-3.7386,-3.7647,-3.799,-3.8851,-3.9019,-3.8421,-3.7622,-3.6671,-3.5468,-3.4997,-3.4182,-3.3006,-3.3243,-3.3237,-3.2922,-3.3998,-3.4561,-3.4458,-3.2729,-2.4454,0.0,0.0,0.0,0.0,0.0,0.0,0.0,0.0,0.0,0.0,0.0,-2.9177,-2.431,-2.8639,-3.4438,-4.1038,-3.7672,-3.2066,-2.4777,-3.9426,-4.9807,-4.9807,-5.0368,-5.0729,-5.0729,-5.2011,-5.2853,-5.2818,-5.1369,-5.0352,-5.0352,-4.6702,-4.389,-4.3779,-4.6075,-4.8258,-4.9098,-4.8467,-4.7891,-4.7891,-4.7891,-4.8746,-5.1214,-5.2962,-5.3079,-5.0606,-5.053,-5.1326,-5.2634,-5.3532,-5.3672,-5.2625,-5.1685,-5.1419,-5.2195,-5.2191,-5.1494,-5.0287,-4.9535,-4.9492,-4.9519,-4.9375,-4.9506,-4.8957,-4.8002,-4.7266,-4.6759,-4.6475,-4.6397,-4.5574,-4.4339,-4.5972,-4.6824,-4.7033,-4.6986,-4.7099,-4.7276,-4.6706,-4.6496,-4.6466,-4.5992,-4.5744,-4.568,-4.5819,-4.5887,-4.5893,-4.5906,-4.5944,-4.5953,-4.5226,-4.4838,-4.4743,-4.4005,-4.307,-4.1981,-4.126,-4.0009,-3.8196,-3.9951,-4.0256,-3.9047,-3.9143,-3.7759,-3.4819,-3.4463,-3.333,-3.1124,-3.1603,-3.1598,-3.1001,-3.3034,-3.4127,-3.388,-3.3115,-2.6523,0.0,-1.0782,0.0,0.0,0.0,0.0,0.0,0.0,0.0,0.0,-2.2156,-2.7975,-3.4415,-4.0617,-4.5401,-4.82,-4.7073,-4.1643,-3.1052,-4.2546,-5.1851,-5.2208,-5.2315,-5.2279,-5.2279,-5.4706,-5.6383,-5.6114,-5.3956,-5.2279,-5.1958,-5.0637,-4.9181,-4.8732,-4.9408,-5.0279,-5.0892,-5.0453,-5.0055,-5.0632,-5.0414,-5.0714,-5.2683,-5.4314,-5.4898,-5.3265,-5.2997,-5.3568,-5.4992,-5.5332,-5.5343,-5.5507,-5.408,-5.3637,-5.4933,-5.4748,-5.3652,-5.1528,-5.1365,-5.1563,-5.0733,-5.073,-5.01,-4.9694,-4.9489,-4.9337,-4.8181,-4.6401,-4.5898,-4.5597,-4.5604,-4.7164,-4.7624,-4.7273,-4.7246,-4.7314,-4.7514,-4.741,-4.7449,-4.7583,-4.7588,-4.7276,-4.6744,-4.6868,-4.6577,-4.5945,-4.5956,-4.598,-4.6003,-4.5831,-4.5393,-4.4727,-4.4494,-4.3531,-4.1952,0.0,0.0,0.0,-4.002,-4.0121,-3.8967,-3.6882,-3.5491,-3.4829,-3.3487,0.0,-3.2014,-3.2029,-3.1969,-3.1873,-3.2142,0.0,0.0,0.0,0.0,0.0,0.0,0.0,0.0,0.0,0.0,0.0,-3.3972,-2.9709,-2.5894,-3.6519,-4.4365,-4.5759,-4.7425,-4.8589,-4.923,-5.0032,-4.8232,-4.3005,-4.7773,-5.2671,-5.5098,-5.5491,-5.5491,-5.5526,-5.6026,-5.6383,-5.6311,-5.5812,-5.4991,-5.3778,-5.2993,-5.2157,-5.115,-5.1189,-5.1418,-5.147,-5.1034,-5.1876,-5.4717,-5.269,-5.199,-5.4221,-5.5168,-5.5367,-5.4968,-5.4898,-5.4933,-5.5507,-5.5507,-5.5507,-5.5507,-5.5168,-5.4968,-5.5437,-5.5389,-5.4974,-5.3894,-5.377,-5.3873,-5.3422,0.0,-5.1749,-5.0932,0.0,-4.9686,-4.858,-4.7089,-4.7504,-4.7791,-4.8074,-4.8895,-4.9143,-4.8945,-4.8338,-4.8257,-4.8405,-4.7597,-4.7509,-4.8028,-4.773,-4.7658,-4.7748,-4.7804,-4.7637,-4.7236,-4.6833,-4.6663,-4.6635,-4.624,-4.5792,-4.5297,-4.5309,-4.4795,-4.3863,-4.3781,-4.2842,-4.1008,-3.9791,-3.9544,-4.0151,-3.7641,-3.6217,-3.6198,-3.5382,0.0,0.0,0.0,0.0,0.0,0.0,0.0,0.0,0.0,0.0,-3.0024,-3.1094,-3.1635,-3.1637,-3.7771,-4.2885,-4.587,-4.3679,-3.9467,-3.3123,-4.2616,-4.8959,-4.9164,-4.9396,-4.9164,-4.8382,-4.8937,-4.9159,-4.8694,-5.1792,-5.4706,-5.6062,-5.6383,-5.6383,-5.6383,-5.6383,-5.6383,-5.6383,-5.6383,-5.6097,-5.5277,-5.4527,-5.3742,-5.2957,-5.2136,-5.1708,-5.1744,-5.2216,-5.3318,-5.5596,-5.506,-5.3918,-5.5617,-5.5822,-5.5648,-5.5507,-5.5507,-5.5507,-5.5507,-5.5507,-5.5507,-5.5507,-5.5507,-5.5507,-5.5507,-5.5507,-5.5389,-5.5053,-5.5026,-5.4869,-5.6251,-5.4268,-5.3782,-5.2675,-5.1146,-5.0448,-4.9603,-4.8792,0.0,0.0,0.0,-5.0287,-5.0489,-5.0663,-4.9635,-4.935,-4.947,-4.8143,-4.7927,-4.8662,-4.8082,-4.8139,-4.8735,-4.871,-4.8684,-4.8592,-4.7842,-4.7416,-4.7256,-4.6568,-4.6119,-4.5905,-4.5929,-4.5944,-4.5802,-4.5061,-4.4299,-4.3359,-4.03,-3.9597,-4.1489,-3.9385,-3.7997,-3.7641,-3.7336,-3.6194,-3.4276,-3.4564,-3.4851,-3.4861,-3.2128,-3.0425,-3.0345,-3.3845,-3.7151,-3.9825,-4.25,-4.4246,-4.4804,-4.4941,-4.6238,-4.9148,-4.9145,-4.6453,-4.0401,-4.5534,-4.9131,-4.9459,-4.949,-4.8925,-4.7621,-4.8604,-5.0118,-5.2798,-5.5076,-5.6347,-5.6383,-5.6383,-5.6383,-5.6383,-5.6383,-5.6383,-5.6383,-5.6383,-5.6383,-5.6276,-5.5598,-5.4955,-5.4384,-5.3492,-5.2814,-5.2921,-5.344,-5.4474,-5.5919,-5.6276,-5.6383,-5.6292,-5.6162,-5.5879,-5.5648,-5.5507,-5.5507,-5.5507,-5.5507,-5.5507,-5.5507,-5.5507,-5.5507,-5.5507,-5.5507,-5.5507,-5.5507,-5.5507,-5.5329,-5.7785,-5.6472,-5.5787,-5.5364,-5.5036,-5.4246,-5.3433,-5.2524,-5.0297,-4.9353,-4.949,-5.0298,-5.0663,-5.0696,-5.0488,-5.0542,-5.0665,-5.0433,-5.048,-5.0685,-5.0569,-5.0195,-4.9627,-4.9615,-4.9252,-4.8631,-4.8308,-4.7816,-4.7249,-4.6922,-4.6452,-4.5891,-4.5893,-4.5841,-4.5718,-4.5533,-4.5372,-4.5201,-4.3338,-4.2134,-4.1698,-4.0636,-3.932,-3.7695,-3.6323,-3.5678,-3.593,-3.6045,-3.6252,-3.6678,-3.6037,-3.5639,-3.5762,-3.9983,-4.2835,-4.328,-4.3763,-4.5212,-4.7961,-4.8557,-4.9439,-5.0953,-5.0118,-4.8781,-4.7596,-4.8604,-4.9427,-4.949,-4.949,-4.9427,-4.9463,-5.3641,-5.6594,-5.7664,-5.7,-5.6383,-5.6383,-5.6383,-5.6383,-5.6383,-5.6383,-5.6383,-5.6383,-5.6383,-5.6383,-5.6383,-5.6169,-5.6062,-5.5919,-5.5883,-5.574,-5.5562,-5.4706,-5.4813,-5.599,-5.6383,-5.6383,-5.6383,-5.6328,-5.6217,-5.5936,-5.5706,-5.5566,-5.5507,-5.5507,-5.5507,-5.5507,-5.5507,-5.5507,-5.5507,-5.5507,-5.5507,-5.5507,-5.5507,-5.5448,-5.9421,-5.8873,-5.7713,-5.6945,-5.6483,-5.5692,-5.515,-5.4684,-5.2954,-5.1681,-5.1018,-5.1382,-5.1315,-5.0874,-5.0349,-5.0171,-5.0269,-4.9745,-4.9814,-5.0364,-5.0403,-5.0468,-5.0571,-5.0584,-5.0326,-4.9833,-4.9272,-4.8802,-4.8361,-4.789,-4.7217,-4.6461,-4.5982,-4.568,-4.5648,-4.562,-4.5586,-4.5547,-4.4855,-4.3991,-4.315,-4.3222,-4.2398,-4.0701,-4.0224,-4.0245,-4.0611,-4.0844,-4.1266,-4.2002,-4.0312,-3.9751,-4.068,-4.2947,-4.5081,-4.6838,-4.6987,-4.7623,-4.9118,-4.9396,-5.014,-5.1439,-5.174,-5.1407,-5.044,-5.1295,-5.1174,-4.9684,-4.949,-5.0183,-5.1628,-5.3718,-5.5367,-5.6553,-5.6426,-5.6402,-5.6383,-5.6383,-5.6383,-5.6383,-5.6383,-5.6383,-5.6383,-5.6383,-5.6383,-5.6383,-5.6383,-5.6383,-5.6383,-5.6383,-5.6383,-5.6311,-5.5776,-5.5669,-5.6276,-5.6383,-5.6383,-5.6383,-5.6383,-5.6328,-5.6162,-5.6049,-5.5857,-5.5566,-5.5507,-5.5507,-5.5507,-5.5507,-5.5507,-5.5507,-5.5507,-5.5507,-5.5507,-5.5507,-5.5507,-6.0773,-6.0627,-5.9433,-5.8452,-5.768,-5.7023,-5.6638,-5.6502,-5.5825,-5.4757,-5.3445,-5.267,-5.1953,-5.1347,-5.0389,-5.004,-4.9989,-4.9301,-4.9393,-5.0041,-5.0132,-5.0506,-5.1125,-5.1152,-5.1089,-5.0874,-5.0194,-4.9705,-4.9384,-4.875,-4.8039,-4.7251,-4.6313,-4.5893,-4.5893,-4.5719,-4.5642,-4.5586,-4.5586,-4.5278,-4.4662,-4.524,-4.4893,-4.3547,-4.3948,-4.4393,-4.4533,-4.501,-4.565,-4.6228,-4.4175,-4.3453,-4.4526,-4.5252,-4.6786,-4.9189,-4.949,-4.949,-4.949,-4.949,-5.029,-5.2036,-5.3163,-5.3312,-5.2449,-5.3236,-5.2675,-5.0102,-4.9806,-5.0935,-5.2725,-5.3204,-5.3315,-5.4748,-5.5062,-5.5544,-5.624,-5.6383,-5.6383,-5.6383,-5.6383,-5.6383,-5.6383,-5.6383,-5.6383,-5.6383,-5.6383,-5.6383,-5.6383,-5.6383,-5.6383,-5.6383,-5.6383,-5.6347,-5.6383,-5.6383,-5.6383,-5.6383,-5.6383,-5.6383,-5.6383,-5.6383,-5.6273,-5.5857,-5.5742,-5.5683,-5.5566,-5.5507,-5.5566,-5.5683,-5.5625,-5.5507,-5.5507,-5.5507,-5.5507,-6.1367,-6.0982,-6.0887,-6.0383,-5.9529,-5.932,-5.8816,-5.8239,-5.8219,-5.7731,-5.6543,-5.3645,-5.2382,-5.2161,-5.1462,-5.1062,-5.1035,-5.0945,-5.0945,-5.1035,-5.1074,-5.1136,-5.1147,-5.1076,-5.1037,-5.1023,-5.0653,-5.0123,-4.956,-4.924,-4.874,-4.8009,-4.7163,-4.6778,-4.6701,-4.61,-4.5676,-4.5586,-4.5586,-4.5547,-4.547,-4.5547,-4.5163,-4.4239,-4.4328,-4.4645,-4.5303,-4.5992,-4.6641,-4.6981,-4.6973,-4.6792,-4.6637,-4.8047,-4.9152,-4.9452,-4.9527,-4.949,-4.9565,-4.949,-5.0783,-5.3491,-5.3758,-5.3833,-5.3792,-5.4086,-5.2953,-5.0654,-5.0811,-5.1574,-5.2028,-5.4096,-5.5508,-5.5821,-5.4107,-5.3207,-5.5812,-5.6383,-5.6383,-5.6383,-5.6383,-5.6383,-5.6383,-5.6383,-5.6383,-5.6383,-5.6383,-5.6383,-5.6383,-5.6383,-5.6383,-5.6383,-5.6383,-5.6383,-5.6383,-5.6383,-5.6383,-5.6383,-5.6383,-5.6383,-5.6383,-5.6383,-5.6328,-5.6217,-5.6217,-5.6049,-5.5742,-5.5507,-5.5742,-5.5993,-5.5914,-5.5507,-5.5507,-5.5507,-5.5507,-6.1595,-6.1401,-6.1279,-6.0963,-6.0647,-6.0566,-6.0373,-6.0073,-5.9638,-5.9279,-5.8697,-5.6473,-5.4621,-5.3183,-5.2795,-5.2173,-5.1241,-5.1202,-5.1202,-5.1202,-5.1202,-5.1152,-5.1076,-5.105,-5.0928,-5.0803,-5.0663,-5.0433,-5.0067,-4.9567,-4.9163,-4.8817,-4.8048,-4.7625,-4.7586,-4.7296,-4.6891,-4.639,-4.5873,-4.5851,-4.6287,-4.594,-4.5748,-4.594,-4.642,-4.6989,-4.7604,-4.8286,-4.8691,-4.8764,-4.8692,-4.8587,-4.8377,-4.9084,-4.9582,-4.973,-5.0485,-5.1367,-5.2306,-5.148,-5.1622,-5.3341,-5.3907,-5.4127,-5.4055,-5.3289,-5.285,-5.3481,-5.2474,-5.1708,-5.1815,-5.2886,-5.4313,-5.574,-5.5169,-5.4991,-5.6169,-5.6383,-5.6383,-5.6383,-5.6383,-5.6383,-5.6383,-5.6383,-5.6383,-5.6383,-5.6383,-5.6383,-5.6383,-5.6383,-5.6383,-5.6383,-5.6383,-5.6383,-5.6383,-5.6383,-5.6383,-5.6383,-5.6383,-5.6383,-5.6383,-5.6383,-5.6383,-5.6383,-5.6383,-5.6328,-5.6106,-5.5879,-5.5879,-5.6217,-5.6328,-5.5993,-5.6028,-5.5742,-5.5566,-6.172,-6.1666,-6.1373,-6.1292,-6.1279,-6.1239,-6.1239,-6.1227,-6.0669,-6.0436,-6.0319,-5.9192,-5.7352,-5.5279,-5.4672,-5.3494,-5.2018,-5.1901,-5.1579,-5.1217,-5.1139,-5.1102,-5.1009,-5.0966,-5.099,-5.0989,-5.076,-5.0624,-5.0486,-5.0048,-4.974,-4.9625,-4.8894,-4.8471,-4.8471,-4.8471,-4.82,-4.758,-4.6348,-4.642,-4.7819,-4.7912,-4.7681,-4.7494,-4.8116,-4.874,-4.9094,-4.9701,-5.0,-4.9797,-4.9671,-4.9551,-4.9551,-4.9612,-4.9663,-4.9863,-5.0922,-5.2404,-5.4225,-5.3245,-5.2783,-5.3185,-5.3567,-5.372,-5.3753,-5.358,-5.4281,-5.5616,-5.3528,-5.1708,-5.1708,-5.1708,-5.2921,-5.5348,-5.6062,-5.6383,-5.6383,-5.6383,-5.6383,-5.6383,-5.6383,-5.6383,-5.6383,-5.6383,-5.6383,-5.6383,-5.6383,-5.6383,-5.6383,-5.6383,-5.6383,-5.6383,-5.6383,-5.6383,-5.6383,-5.6383,-5.6383,-5.6383,-5.6383,-5.6383,-5.6383,-5.6383,-5.6383,-5.6383,-5.6383,-5.6383,-5.6273,-5.6162,-5.6049,-5.6273,-5.6383,-5.6383,-5.6328,-5.5437,-5.4425,-6.172,-6.1671,-6.1564,-6.1481,-6.1481,-6.1292,-6.12,-6.1266,-6.1277,-6.1328,-6.1289,-6.1211,-6.0277,-5.8515,-5.7016,-5.5294,-5.3829,-5.3611,-5.2758,-5.1386,-5.1178,-5.1034,-5.1005,-5.0897,-5.1271,-5.1776,-5.1145,-5.0779,-5.0721,-5.0664,-5.0625,-5.0587,-4.9856,-4.9394,-4.949,-4.9586,-4.9468,-4.9178,-4.7388,-4.7472,-5.0417,-5.2189,-5.1382,-4.8844,-4.8874,-4.9196,-4.9105,-4.9607,-4.9879,-4.9671,-4.9701,-4.9692,-4.9692,-4.9882,-4.9977,-4.9859,-5.0416,-5.1824,-5.3749,-5.404,-5.4015,-5.3716,-5.2761,-5.2268,-5.3445,-5.5632,-5.6746,-5.6367,-5.3504,-5.1808,-5.2094,-5.1901,-5.2315,-5.392,-5.5526,-5.6276,-5.6383,-5.6383,-5.6383,-5.6383,-5.6383,-5.6383,-5.6383,-5.6383,-5.6383,-5.6383,-5.6383,-5.6383,-5.6383,-5.6383,-5.6383,-5.6383,-5.6383,-5.6383,-5.6383,-5.6383,-5.6383,-5.6383,-5.6383,-5.6383,-5.6383,-5.6383,-5.6383,-5.6383,-5.6383,-5.6383,-5.6383,-5.6383,-5.6328,-5.6383,-5.6383,-5.6383,-5.6383,-5.3547,-5.2803,-6.172,-6.1715,-6.166,-6.1648,-6.1609,-6.1541,-6.1526,-6.1534,-6.158,-6.1573,-6.1517,-6.1547,-6.1167,-6.0526,-5.9892,-5.8027,-5.5553,-5.5225,-5.4521,-5.3514,-5.3343,-5.2696,-5.1807,-5.2105,-5.2127,-5.1876,-5.1567,-5.1431,-5.1431,-5.1431,-5.168,-5.2046,-5.1413,-5.126,-5.1799,-5.1934,-5.1702,-5.1177,-5.0748,-5.1073,-5.1785,-5.3589,-5.3546,-5.1587,-5.1048,-5.0687,-5.0406,-5.1087,-5.1433,-5.1336,-5.0325,-4.975,-4.9996,-5.173,-5.2736,-5.2648,-5.2494,-5.1618,-5.0273,-5.2223,-5.4044,-5.4516,-5.3441,-5.3126,-5.4364,-5.642,-5.7005,-5.4782,-5.3535,-5.3399,-5.4713,-5.3374,-5.1922,-5.2707,-5.4813,-5.6383,-5.6383,-5.6383,-5.6383,-5.6383,-5.6383,-5.6383,-5.6383,-5.6383,-5.6383,-5.6383,-5.6383,-5.6383,-5.6383,-5.6383,-5.6383,-5.6383,-5.6383,-5.6383,-5.6383,-5.6383,-5.6383,-5.6383,-5.6383,-5.6383,-5.6383,-5.6383,-5.6383,-5.6383,-5.6383,-5.6383,-5.6383,-5.6383,-5.6383,-5.6383,-5.6383,-5.6383,-5.6383,-5.4447,-5.3844,-6.172,-6.172,-6.172,-6.172,-6.172,-6.172,-6.172,-6.172,-6.172,-6.1671,-6.1615,-6.1602,-6.1559,-6.1486,-6.1421,-6.0176,-5.7877,-5.7124,-5.6239,-5.5233,-5.5016,-5.415,-5.3089,-5.3318,-5.3238,-5.2713,-5.2636,-5.2483,-5.2214,-5.2176,-5.2521,-5.3003,-5.2525,-5.2587,-5.3205,-5.3532,-5.3379,-5.3088,-5.3762,-5.3878,-5.3551,-5.4594,-5.4661,-5.3529,-5.3031,-5.2471,-5.1684,-5.2096,-5.2381,-5.2143,-5.1177,-5.0799,-5.1488,-5.3263,-5.4476,-5.4472,-5.3833,-5.2113,-4.9658,-5.1435,-5.3595,-5.4974,-5.4811,-5.4729,-5.5171,-5.6671,-5.6437,-5.5057,-5.4501,-5.5606,-5.6666,-5.5085,-5.2814,-5.2386,-5.4491,-5.6347,-5.6383,-5.6383,-5.6383,-5.6383,-5.6383,-5.6383,-5.6383,-5.6383,-5.6383,-5.6383,-5.6383,-5.6383,-5.6383,-5.6383,-5.6383,-5.6383,-5.6383,-5.6383,-5.6383,-5.6383,-5.6383,-5.6383,-5.6383,-5.6383,-5.6383,-5.6383,-5.6383,-5.6383,-5.6383,-5.6383,-5.6383,-5.6383,-5.6383,-5.6383,-5.6383,-5.6383,-5.6273,-5.6106,-5.5378,-6.172,-6.172,-6.172,-6.172,-6.172,-6.172,-6.172,-6.172,-6.172,-6.1715,-6.1671,-6.1654,-6.1564,-6.1479,-6.1396,-6.1112,-6.0383,-5.9163,-5.7696,-5.6175,-5.5981,-5.5416,-5.4396,-5.4511,-5.4411,-5.4181,-5.4235,-5.3836,-5.3031,-5.2992,-5.3091,-5.3174,-5.3196,-5.3276,-5.328,-5.4147,-5.4513,-5.4612,-5.521,-5.5594,-5.5599,-5.5446,-5.4931,-5.3998,-5.4428,-5.4123,-5.2726,-5.2532,-5.2559,-5.2521,-5.2437,-5.3067,-5.3903,-5.4364,-5.4576,-5.4667,-5.398,-5.3125,-5.2391,-5.2278,-5.3277,-5.4907,-5.6224,-5.6176,-5.5727,-5.6503,-5.7143,-5.6853,-5.6817,-5.7328,-5.7569,-5.6798,-5.5009,-5.2671,-5.4777,-5.6311,-5.6383,-5.6383,-5.6383,-5.6383,-5.6383,-5.6383,-5.6383,-5.6383,-5.6383,-5.6383,-5.6383,-5.6383,-5.6383,-5.6383,-5.6383,-5.6383,-5.6383,-5.6383,-5.6383,-5.6383,-5.6383,-5.6383,-5.6383,-5.6383,-5.6383,-5.6383,-5.6383,-5.6383,-5.6383,-5.6383,-5.6383,-5.6383,-5.6383,-5.6383,-5.6383,-5.6328,-5.6106,-5.5936,-5.5879,-6.172,-6.172,-6.172,-6.172,-6.172,-6.172,-6.172,-6.172,-6.172,-6.172,-6.1676,-6.1671,-6.158,-6.1406,-6.1167,-6.0963,-6.0822,-6.0201,-5.9386,-5.8373,-5.8103,-5.7325,-5.6304,-5.6587,-5.6217,-5.526,-5.5058,-5.4637,-5.3996,-5.389,-5.4143,-5.4588,-5.4254,-5.4395,-5.4919,-5.5265,-5.5401,-5.548,-5.5609,-5.566,-5.5638,-5.521,-5.4867,-5.4798,-5.4886,-5.4617,-5.422,-5.4065,-5.4035,-5.4057,-5.4095,-5.433,-5.4654,-5.4767,-5.4761,-5.4791,-5.4123,-5.3285,-5.269,-5.3013,-5.4207,-5.5812,-5.6029,-5.6079,-5.649,-5.6912,-5.7188,-5.7188,-5.7188,-5.7289,-5.7338,-5.7188,-5.6237,-5.508,-5.5812,-5.6383,-5.6383,-5.6383,-5.6383,-5.6383,-5.6383,-5.6383,-5.6383,-5.6383,-5.6383,-5.6383,-5.6383,-5.6383,-5.6383,-5.6383,-5.6383,-5.6383,-5.6383,-5.6383,-5.6383,-5.6383,-5.6383,-5.6383,-5.6383,-5.6383,-5.6383,-5.6383,-5.6383,-5.6383,-5.6383,-5.6383,-5.6383,-5.6383,-5.6383,-5.6383,-5.6383,-5.6217,-5.5971,-5.5857,-5.5857,-6.172,-6.172,-6.172,-6.172,-6.172,-6.172,-6.172,-6.172,-6.172,-6.1671,-6.166,-6.1671,-6.1573,-6.1318,-6.1014,-6.0807,-6.0727,-6.0608,-6.0278,-5.9805,-5.974,-5.891,-5.7787,-5.7813,-5.7506,-5.6524,-5.6346,-5.5887,-5.5148,-5.5183,-5.5308,-5.5393,-5.5078,-5.5164,-5.5728,-5.5766,-5.5787,-5.5807,-5.5638,-5.5547,-5.5437,-5.5047,-5.4882,-5.5,-5.4882,-5.486,-5.492,-5.486,-5.486,-5.4882,-5.492,-5.492,-5.492,-5.492,-5.492,-5.4812,-5.4429,-5.3683,-5.2826,-5.3784,-5.5233,-5.6609,-5.6283,-5.6138,-5.7007,-5.7188,-5.7188,-5.7188,-5.7188,-5.7188,-5.7188,-5.6984,-5.676,-5.6437,-5.6347,-5.6383,-5.6383,-5.6383,-5.6383,-5.6383,-5.6383,-5.6383,-5.6383,-5.6383,-5.6383,-5.6383,-5.6383,-5.6383,-5.6383,-5.6383,-5.6383,-5.6383,-5.6383,-5.6383,-5.6383,-5.6383,-5.6383,-5.6383,-5.6383,-5.6383,-5.6383,-5.6383,-5.6383,-5.6383,-5.6383,-5.6383,-5.6383,-5.6383,-5.6383,-5.6383,-5.6383,-5.6273,-5.6141,-5.5857,-5.5799,-6.172,-6.172,-6.172,-6.172,-6.172,-6.172,-6.172,-6.172,-6.172,-6.166,-6.1634,-6.1648,-6.1539,-6.1274,-6.1,-6.0762,-6.0633,-6.0494,-6.0398,-6.0293,-6.0311,-5.9867,-5.9098,-5.8421,-5.8028,-5.7913,-5.7798,-5.734,-5.6601,-5.6638,-5.6395,-5.5738,-5.573,-5.566,-5.5742,-5.5703,-5.5745,-5.5724,-5.557,-5.5427,-5.5288,-5.5057,-5.489,-5.486,-5.489,-5.492,-5.492,-5.492,-5.492,-5.492,-5.492,-5.492,-5.489,-5.4822,-5.4597,-5.4805,-5.488,-5.4318,-5.3603,-5.4653,-5.6174,-5.7007,-5.708,-5.7188,-5.7188,-5.7188,-5.7188,-5.7188,-5.7138,-5.7087,-5.6984,-5.676,-5.6437,-5.6383,-5.6383,-5.6383,-5.6383,-5.6383,-5.6383,-5.6383,-5.6383,-5.6383,-5.6383,-5.6383,-5.6383,-5.6383,-5.6383,-5.6383,-5.6383,-5.6383,-5.6383,-5.6383,-5.6383,-5.6383,-5.6383,-5.6383,-5.6383,-5.6383,-5.6383,-5.6383,-5.6383,-5.6383,-5.6383,-5.6383,-5.6383,-5.6383,-5.6383,-5.6383,-5.6383,-5.6383,-5.6383,-5.6383,-5.6273,-5.5993,-5.5822,-6.172,-6.172,-6.172,-6.172,-6.172,-6.172,-6.172,-6.172,-6.172,-6.1671,-6.1654,-6.1509,-6.144,-6.1264,-6.0804,-6.0608,-6.0546,-6.0304,-6.0256,-6.0323,-6.0408,-6.0349,-5.9911,-5.9224,-5.883,-5.8807,-5.8386,-5.7877,-5.7698,-5.7709,-5.7273,-5.6552,-5.6483,-5.6258,-5.5818,-5.5784,-5.5703,-5.5593,-5.5499,-5.5352,-5.5157,-5.5,-5.492,-5.489,-5.489,-5.492,-5.492,-5.492,-5.492,-5.492,-5.492,-5.492,-5.4761,-5.3833,-5.3794,-5.4856,-5.4995,-5.5341,-5.5812,-5.5921,-5.6391,-5.708,-5.7188,-5.7188,-5.7188,-5.7188,-5.7188,-5.7138,-5.6881,-5.6653,-5.66,-5.6492,-5.6383,-5.6383,-5.6383,-5.6383,-5.6383,-5.6383,-5.6383,-5.6383,-5.6383,-5.6383,-5.6383,-5.6383,-5.6383,-5.6383,-5.6383,-5.6383,-5.6383,-5.6383,-5.6383,-5.6383,-5.6383,-5.6383,-5.6383,-5.6383,-5.6383,-5.6383,-5.6383,-5.6383,-5.6383,-5.6383,-5.6383,-5.6383,-5.6383,-5.6383,-5.6383,-5.6383,-5.6383,-5.6383,-5.6383,-5.6383,-5.6383,-5.6217,-5.6106,-6.172,-6.172,-6.172,-6.172,-6.172,-6.172,-6.172,-6.172,-6.172,-6.1671,-6.1648,-6.1573,-6.1379,-6.112,-6.0627,-6.0468,-6.0506,-6.0256,-6.0197,-6.0352,-6.0436,-6.0398,-6.0283,-5.9852,-5.9752,-5.9676,-5.9281,-5.8949,-5.8527,-5.8221,-5.7544,-5.6816,-5.675,-5.6529,-5.6168,-5.6198,-5.6198,-5.603,-5.5618,-5.521,-5.513,-5.4971,-5.4882,-5.492,-5.492,-5.5034,-5.5375,-5.5451,-5.5451,-5.5375,-5.5148,-5.4761,-5.433,-5.3203,-5.3529,-5.5544,-5.5871,-5.6319,-5.6862,-5.6717,-5.6754,-5.708,-5.7188,-5.7188,-5.7188,-5.7188,-5.7188,-5.7138,-5.6917,-5.676,-5.6707,-5.6546,-5.6383,-5.6383,-5.6383,-5.6383,-5.6383,-5.6383,-5.6383,-5.6383,-5.6383,-5.6383,-5.6383,-5.6383,-5.6383,-5.6383,-5.6383,-5.6383,-5.6383,-5.6383,-5.6383,-5.6383,-5.6383,-5.6383,-5.6383,-5.6383,-5.6383,-5.6383,-5.6383,-5.6383,-5.6383,-5.6383,-5.6383,-5.6383,-5.6383,-5.6383,-5.6383,-5.6383,-5.6383,-5.6383,-5.6383,-5.6217,-5.6106,-5.5957,-5.5844,-6.1676,-6.172,-6.1676,-6.1676,-6.1676,-6.172,-6.172,-6.172,-6.172,-6.166,-6.1627,-6.1648,-6.134,-6.0944,-6.0457,-6.0332,-6.0453,-6.0226,-6.0256,-6.0342,-6.0491,-6.0453,-6.0425,-6.043,-6.0379,-6.0379,-6.0585,-5.9946,-5.9192,-5.8295,-5.7347,-5.666,-5.642,-5.6358,-5.6167,-5.6357,-5.6659,-5.6352,-5.5594,-5.513,-5.5075,-5.4971,-5.492,-5.492,-5.5148,-5.5489,-5.5981,-5.6147,-5.6267,-5.6374,-5.5572,-5.505,-5.4279,-5.3487,-5.4464,-5.6406,-5.6975,-5.7043,-5.7188,-5.7116,-5.7152,-5.7188,-5.7188,-5.7188,-5.7188,-5.7188,-5.7188,-5.7188,-5.7188,-5.7087,-5.6917,-5.6653,-5.6437,-5.6383,-5.6383,-5.6383,-5.6383,-5.6383,-5.6383,-5.6383,-5.6383,-5.6383,-5.6383,-5.6383,-5.6383,-5.6383,-5.6383,-5.6383,-5.6383,-5.6383,-5.6383,-5.6383,-5.6383,-5.6383,-5.6383,-5.6383,-5.6383,-5.6383,-5.6383,-5.6383,-5.6383,-5.6383,-5.6383,-5.6383,-5.6383,-5.6383,-5.6383,-5.6383,-5.6383,-5.6383,-5.6383,-5.5957,-5.5461,-5.5319,-5.5199,-6.1595,-6.1676,-6.1588,-6.1595,-6.1676,-6.172,-6.1715,-6.1676,-6.1715,-6.1666,-6.1609,-6.1354,-6.1119,-6.0887,-6.0338,-6.0137,-6.037,-6.0226,-6.0188,-6.0408,-6.0545,-6.0506,-6.0518,-6.0597,-6.061,-6.0635,-6.066,-6.0086,-5.9228,-5.8585,-5.7825,-5.6291,-5.6063,-5.5855,-5.5538,-5.5694,-5.5504,-5.5465,-5.5271,-5.5113,-5.5,-5.4941,-5.492,-5.5034,-5.5564,-5.5943,-5.6185,-5.6451,-5.6917,-5.7325,-5.7154,-5.6625,-5.661,-5.73,-5.7538,-5.7134,-5.7188,-5.7188,-5.7188,-5.7188,-5.7188,-5.7188,-5.7188,-5.7188,-5.7188,-5.7188,-5.7188,-5.7188,-5.7188,-5.6984,-5.6707,-5.6492,-5.6383,-5.6383,-5.6383,-5.6383,-5.6383,-5.6383,-5.6383,-5.6383,-5.6383,-5.6383,-5.6383,-5.6383,-5.6383,-5.6383,-5.6383,-5.6383,-5.6383,-5.6383,-5.6383,-5.6383,-5.6383,-5.6383,-5.6383,-5.6383,-5.6383,-5.6383,-5.6383,-5.6383,-5.6383,-5.6328,-5.6328,-5.6328,-5.6383,-5.6383,-5.6383,-5.6383,-5.6383,-5.6383,-5.6328,-5.5901,-5.5437,-5.5018,-5.4586,-6.158,-6.1671,-6.1481,-6.1481,-6.1588,-6.1478,-6.1526,-6.1541,-6.1451,-6.1487,-6.1549,-6.1109,-6.0771,-6.0685,-6.0227,-6.0106,-6.0226,-6.0313,-6.0342,-6.0436,-6.0545,-6.0559,-6.0597,-6.0623,-6.066,-6.0647,-6.0125,-5.9587,-5.9033,-5.8005,-5.6815,-5.6034,-5.5889,-5.5898,-5.5627,-5.5597,-5.5805,-5.5701,-5.5265,-5.5,-5.4912,-5.492,-5.5185,-5.5451,-5.6019,-5.6374,-5.705,-5.7218,-5.7529,-5.7823,-5.7941,-5.7937,-5.7903,-5.8387,-5.8047,-5.7449,-5.7188,-5.7188,-5.7188,-5.7188,-5.7188,-5.7188,-5.7188,-5.7188,-5.7188,-5.7188,-5.7188,-5.7138,-5.6933,-5.6707,-5.6437,-5.6383,-5.6383,-5.6383,-5.6383,-5.6383,-5.6383,-5.6383,-5.6383,-5.6383,-5.6383,-5.6383,-5.6383,-5.6383,-5.6383,-5.6383,-5.6383,-5.6383,-5.6383,-5.6383,-5.6383,-5.6383,-5.6383,-5.6383,-5.6383,-5.6383,-5.6383,-5.6383,-5.6383,-5.6383,-5.6383,-5.6328,-5.6217,-5.6217,-5.6162,-5.6383,-5.6383,-5.6383,-5.6383,-5.6383,-5.6273,-5.5844,-5.5555,-5.5139,-5.4586,-6.1517,-6.1602,-6.1304,-6.1279,-6.1401,-6.1292,-6.1304,-6.1401,-6.1119,-6.1214,-6.1393,-6.079,-6.0488,-6.0329,-6.0208,-6.0106,-6.0197,-6.0342,-6.0425,-6.0425,-6.0571,-6.0585,-6.0649,-6.066,-6.0507,-6.0405,-5.9664,-5.906,-5.7976,-5.6727,-5.5852,-5.5551,-5.5513,-5.5454,-5.5822,-5.6016,-5.5922,-5.5836,-5.5265,-5.495,-5.492,-5.492,-5.5299,-5.5981,-5.657,-5.7008,-5.7672,-5.7866,-5.7925,-5.7941,-5.8201,-5.8375,-5.8201,-5.77,-5.7188,-5.7188,-5.7188,-5.7188,-5.7188,-5.7188,-5.7188,-5.7188,-5.7188,-5.7188,-5.7188,-5.7087,-5.6984,-5.6881,-5.6707,-5.6437,-5.6383,-5.6383,-5.6383,-5.6383,-5.6383,-5.6383,-5.6383,-5.6383,-5.6383,-5.6383,-5.6383,-5.6383,-5.6383,-5.6383,-5.6383,-5.6383,-5.6383,-5.6383,-5.6383,-5.649,-5.6561,-5.6668,-5.674,-5.6454,-5.6383,-5.6633,-5.6633,-5.6898,-5.6756,-5.6328,-5.6328,-5.6328,-5.6217,-5.5901,-5.5901,-5.6217,-5.6383,-5.6383,-5.6383,-5.6383,-5.5844,-5.5259,-5.5139,-5.5259,-5.4772,-6.1279,-6.124,-6.1103,-6.112,-6.1253,-6.1239,-6.1239,-6.1279,-6.1058,-6.0987,-6.0915,-6.0542,-6.0207,-6.0053,-6.0038,-6.0106,-6.0226,-6.0408,-6.0464,-6.0453,-6.0571,-6.0649,-6.066,-6.0507,-6.0175,-5.9549,-5.8891,-5.7976,-5.6727,-5.5751,-5.516,-5.4605,-5.453,-5.4702,-5.4963,-5.4919,-5.5185,-5.5388,-5.5139,-5.5034,-5.492,-5.5072,-5.5496,-5.6374,-5.7159,-5.7707,-5.7904,-5.8029,-5.8002,-5.7886,-5.7594,-5.7534,-5.7498,-5.7338,-5.7188,-5.7188,-5.7188,-5.7188,-5.7188,-5.7188,-5.7188,-5.7188,-5.7188,-5.7188,-5.7087,-5.6865,-5.676,-5.66,-5.6492,-5.6383,-5.6383,-5.6383,-5.6383,-5.6383,-5.6383,-5.6383,-5.6383,-5.6383,-5.6383,-5.6383,-5.6383,-5.6383,-5.6383,-5.6383,-5.6383,-5.6383,-5.6383,-5.6383,-5.6383,-5.6668,-5.6954,-5.7061,-5.7204,-5.6775,-5.6383,-5.6775,-5.7025,-5.7626,-5.7391,-5.6197,-5.6217,-5.6328,-5.6273,-5.6014,-5.6014,-5.6273,-5.6383,-5.6328,-5.6014,-5.5729,-5.5139,-5.446,-5.4957,-5.5284,-5.5319,-6.1097,-6.1196,-6.0983,-6.0964,-6.107,-6.1039,-6.1,-6.0979,-6.0748,-6.0689,-6.0629,-6.0316,-6.0082,-6.0007,-6.0007,-6.0167,-6.0313,-6.0436,-6.0464,-6.0453,-6.0533,-6.0623,-6.0457,-6.0125,-5.9175,-5.8254,-5.7514,-5.6936,-5.5706,-5.505,-5.4678,-5.4518,-5.4368,-5.45,-5.4698,-5.4829,-5.4829,-5.4996,-5.5337,-5.5337,-5.5072,-5.5413,-5.6261,-5.7092,-5.767,-5.7978,-5.7988,-5.795,-5.7794,-5.7546,-5.7338,-5.7239,-5.7188,-5.7188,-5.7188,-5.7188,-5.7188,-5.7188,-5.7188,-5.7188,-5.7188,-5.7188,-5.7188,-5.7188,-5.7138,-5.6984,-5.6653,-5.6437,-5.6383,-5.6383,-5.6383,-5.6383,-5.6383,-5.6383,-5.6383,-5.6383,-5.6383,-5.6383,-5.6383,-5.6383,-5.6383,-5.6383,-5.6383,-5.6383,-5.6383,-5.6383,-5.6383,-5.6383,-5.6383,-5.6633,-5.6954,-5.7947,-5.8196,-5.8023,-5.761,-5.7635,-5.7846,-5.8284,-5.7706,-5.6551,-5.5892,-5.5928,-5.6141,-5.6217,-5.6328,-5.6014,-5.5957,-5.5729,-5.5378,-5.5079,-5.4586,-5.4397,-5.5044,-5.5402,-5.5259,-6.0982,-6.1103,-6.0899,-6.0856,-6.0943,-6.0894,-6.0811,-6.0734,-6.047,-6.0493,-6.0646,-6.0217,-5.9975,-6.0068,-6.0167,-6.0226,-6.037,-6.0464,-6.0425,-6.0414,-6.0185,-6.02,-5.9944,-5.913,-5.8052,-5.698,-5.6333,-5.5529,-5.5122,-5.457,-5.4412,-5.4434,-5.4565,-5.4843,-5.5087,-5.5269,-5.5223,-5.5602,-5.5981,-5.6019,-5.5868,-5.6463,-5.7347,-5.7976,-5.8053,-5.8036,-5.7965,-5.784,-5.7594,-5.7388,-5.7188,-5.7188,-5.7188,-5.7188,-5.7188,-5.7188,-5.7188,-5.7188,-5.7188,-5.7188,-5.7188,-5.7188,-5.7188,-5.7188,-5.7138,-5.6984,-5.6776,-5.6492,-5.6383,-5.6383,-5.6383,-5.6383,-5.6383,-5.6383,-5.6383,-5.6383,-5.6383,-5.6383,-5.6383,-5.6383,-5.6383,-5.6383,-5.6383,-5.6383,-5.6383,-5.6383,-5.6383,-5.6383,-5.6383,-5.6383,-5.697,-5.8637,-5.9337,-5.9416,-5.9205,-5.8899,-5.9018,-5.9303,-5.7938,-5.6353,-5.5768,-5.5392,-5.5553,-5.5555,-5.5378,-5.5139,-5.5139,-5.5437,-5.5496,-5.5259,-5.4397,-5.4333,-5.4983,-5.5044,-5.4861,-6.0864,-6.0834,-6.0804,-6.0827,-6.0894,-6.0911,-6.0789,-6.0681,-6.0482,-6.0456,-6.0482,-6.0179,-6.0007,-6.0099,-6.0264,-6.0323,-6.0408,-6.0436,-6.0453,-6.0403,-5.9654,-5.9283,-5.9109,-5.8014,-5.7018,-5.6078,-5.5679,-5.4947,-5.4501,-5.4166,-5.4233,-5.4439,-5.4673,-5.5032,-5.5792,-5.5868,-5.6436,-5.6929,-5.7156,-5.7156,-5.7251,-5.801,-5.8315,-5.8241,-5.8191,-5.8098,-5.7932,-5.7642,-5.7388,-5.7239,-5.7188,-5.7188,-5.7188,-5.7188,-5.7188,-5.7188,-5.7188,-5.7188,-5.7188,-5.7188,-5.7188,-5.7188,-5.7188,-5.7188,-5.7036,-5.6776,-5.6546,-5.6437,-5.6383,-5.6383,-5.6383,-5.6383,-5.6383,-5.6383,-5.6383,-5.6383,-5.6383,-5.6383,-5.6383,-5.6383,-5.6383,-5.6383,-5.6383,-5.6383,-5.6383,-5.6383,-5.6383,-5.6418,-5.6593,-5.6787,-5.7632,-5.9371,-5.9795,-5.9831,-5.9622,-5.9447,-5.9215,-5.9648,-5.8337,-5.6452,-5.6021,-5.5536,-5.4407,-5.4397,-5.4269,-5.4586,-5.5018,-5.5437,-5.5786,-5.5437,-5.4586,-5.4586,-5.4922,-5.4738,-5.4397,-6.0789,-6.0781,-6.0781,-6.0843,-6.0843,-6.0796,-6.0622,-6.0456,-6.0293,-6.0217,-6.0159,-6.0068,-6.0076,-6.0159,-6.0323,-6.038,-6.0408,-6.0332,-6.0398,-6.0196,-5.934,-5.8758,-5.8462,-5.7239,-5.5936,-5.557,-5.4947,-5.4464,-5.4055,-5.4163,-5.4409,-5.4635,-5.4805,-5.5238,-5.6209,-5.6209,-5.6664,-5.7118,-5.746,-5.7781,-5.8305,-5.8615,-5.852,-5.8066,-5.8054,-5.7886,-5.7642,-5.7437,-5.7239,-5.7188,-5.7188,-5.7188,-5.7188,-5.7188,-5.7188,-5.7188,-5.7188,-5.7188,-5.7188,-5.7188,-5.7188,-5.7188,-5.7138,-5.7036,-5.6776,-5.66,-5.6383,-5.6383,-5.6383,-5.6383,-5.6383,-5.6383,-5.6383,-5.6383,-5.6383,-5.6383,-5.6383,-5.6383,-5.6383,-5.6383,-5.6383,-5.6383,-5.6399,-5.6502,-5.6558,-5.6668,-5.6633,-5.6561,-5.7135,-5.7846,-5.8899,-6.0463,-6.0397,-5.9931,-5.9674,-5.9349,-5.8562,-5.8702,-5.8668,-5.7124,-5.6621,-5.5865,-5.4521,-5.3783,-5.3817,-5.4303,-5.4896,-5.5319,-5.5613,-5.5199,-5.471,-5.4586,-5.4397,-5.4141,-5.3849,-6.0734,-6.0781,-6.0781,-6.0781,-6.0796,-6.0699,-6.0468,-6.0265,-6.015,-6.0038,-5.995,-5.9975,-5.9992,-5.9862,-5.9845,-5.9807,-5.9874,-5.9663,-5.9798,-5.9473,-5.8707,-5.7908,-5.7181,-5.5977,-5.513,-5.5168,-5.4464,-5.4093,-5.4235,-5.4371,-5.4571,-5.486,-5.5201,-5.5754,-5.636,-5.6929,-5.746,-5.818,-5.8218,-5.8547,-5.8915,-5.8475,-5.8201,-5.7978,-5.7831,-5.7594,-5.7338,-5.7188,-5.7188,-5.7188,-5.7188,-5.7188,-5.7188,-5.7188,-5.7188,-5.7188,-5.7188,-5.7188,-5.7188,-5.7188,-5.7188,-5.7138,-5.6984,-5.6776,-5.6546,-5.6383,-5.6383,-5.6383,-5.6383,-5.6383,-5.6383,-5.6383,-5.6383,-5.6383,-5.6383,-5.6383,-5.6383,-5.6383,-5.6383,-5.6383,-5.6383,-5.6383,-5.6415,-5.6603,-5.6709,-5.6898,-5.6882,-5.6811,-5.7506,-5.8507,-5.8875,-6.0036,-6.0194,-5.9559,-5.908,-5.8771,-5.8065,-5.7881,-5.7881,-5.7722,-5.7227,-5.5684,-5.3955,-5.3585,-5.3518,-5.3685,-5.4239,-5.4834,-5.5319,-5.4648,-5.411,-5.3817,-5.3618,-5.3518,-5.3518,-6.0781,-6.0781,-6.0781,-6.0757,-6.071,-6.0685,-6.0494,-6.0208,-6.0179,-6.0068,-5.995,-6.0068,-5.965,-5.9026,-5.8881,-5.8843,-5.8666,-5.7578,-5.8008,-5.7819,-5.6794,-5.6096,-5.5578,-5.4985,-5.4093,-5.4093,-5.3944,-5.4164,-5.4412,-5.4627,-5.4678,-5.4705,-5.5579,-5.6512,-5.7308,-5.799,-5.8565,-5.9171,-5.9284,-5.9122,-5.8837,-5.8164,-5.7642,-5.7877,-5.7679,-5.7388,-5.7338,-5.7239,-5.7188,-5.7188,-5.7188,-5.7188,-5.7188,-5.7188,-5.7188,-5.7188,-5.7188,-5.7188,-5.7188,-5.7188,-5.7188,-5.7036,-5.6812,-5.6546,-5.6437,-5.6383,-5.6383,-5.6383,-5.6383,-5.6383,-5.6383,-5.6383,-5.6383,-5.6383,-5.6383,-5.6383,-5.6383,-5.6383,-5.6383,-5.6383,-5.6162,-5.5786,-5.6071,-5.6134,-5.7052,-5.7342,-5.7448,-5.7341,-5.8079,-5.8831,-5.8186,-5.8629,-5.9247,-5.8965,-5.8239,-5.7881,-5.7881,-5.7881,-5.7881,-5.7881,-5.7759,-5.5886,-5.4059,-5.3518,-5.3518,-5.3518,-5.3518,-5.411,-5.4303,-5.3817,-5.3518,-5.3518,-5.3518,-5.3518,-5.3518,-6.0734,-6.066,-6.066,-6.0635,-6.061,-6.0494,-6.036,-6.0159,-6.0038,-6.0045,-6.0045,-6.0188,-5.9672,-5.8843,-5.8521,-5.8159,-5.754,-5.7102,-5.7171,-5.6945,-5.6136,-5.5471,-5.5024,-5.4466,-5.3831,-5.3831,-5.3982,-5.4464,-5.5122,-5.5187,-5.5805,-5.616,-5.6367,-5.7081,-5.799,-5.883,-5.9337,-5.9424,-5.9609,-5.947,-5.8381,-5.7886,-5.7486,-5.7486,-5.7534,-5.7338,-5.7289,-5.7239,-5.7188,-5.7188,-5.7188,-5.7188,-5.7188,-5.7188,-5.7188,-5.7188,-5.7188,-5.7188,-5.7188,-5.7188,-5.7138,-5.6881,-5.6653,-5.6383,-5.6383,-5.6383,-5.6383,-5.6383,-5.6383,-5.6383,-5.6383,-5.6383,-5.6383,-5.6383,-5.6328,-5.6217,-5.6273,-5.6217,-5.5957,-5.5786,-5.5079,-5.4397,-5.4922,-5.551,-5.6709,-5.7771,-5.7895,-5.8013,-5.8537,-5.8909,-5.8209,-5.7881,-5.8468,-5.8676,-5.8022,-5.7881,-5.7881,-5.7881,-5.7881,-5.7881,-5.778,-5.6562,-5.4972,-5.4262,-5.3518,-5.3518,-5.3518,-5.3518,-5.3518,-5.3518,-5.3518,-5.3518,-5.3518,-5.3518,-5.3518,-6.0757,-6.066,-6.0635,-6.0559,-6.0453,-6.0304,-6.0188,-6.0038,-5.9982,-6.0013,-6.0129,-5.993,-5.9171,-5.8267,-5.7578,-5.7102,-5.6292,-5.5846,-5.5995,-5.5734,-5.5286,-5.4914,-5.469,-5.454,-5.4277,-5.4203,-5.4615,-5.5249,-5.5948,-5.6018,-5.671,-5.7245,-5.7308,-5.7876,-5.8413,-5.9261,-5.9505,-5.9361,-5.9215,-5.9065,-5.7978,-5.7594,-5.7388,-5.7239,-5.7289,-5.7289,-5.7239,-5.7188,-5.7188,-5.7188,-5.7188,-5.7188,-5.7188,-5.7188,-5.7188,-5.7188,-5.7188,-5.7188,-5.7188,-5.6984,-5.6474,-5.5391,-5.6237,-5.6273,-5.6383,-5.6383,-5.6383,-5.6383,-5.6383,-5.6328,-5.6217,-5.5844,-5.5319,-5.5018,-5.5079,-5.5079,-5.5671,-5.5786,-5.5437,-5.5139,-5.4436,-5.4091,-5.5655,-5.6472,-5.6883,-5.8015,-5.8546,-5.8317,-5.805,-5.828,-5.8065,-5.7881,-5.8056,-5.8056,-5.7881,-5.7881,-5.7881,-5.7881,-5.7881,-5.7881,-5.7509,-5.6562,-5.5378,-5.4059,-5.3518,-5.3518,-5.3518,-5.3518,-5.3518,-5.3518,-5.3518,-5.3518,-5.3618,-5.3685,-5.3618,-6.0872,-6.0888,-6.0734,-6.048,-6.0129,-6.0099,-6.0076,-5.995,-6.0013,-6.0038,-5.9946,-5.9147,-5.7985,-5.6882,-5.5995,-5.5435,-5.4947,-5.4149,-5.4186,-5.4834,-5.4572,-5.3896,-5.4195,-5.457,-5.502,-5.5208,-5.5621,-5.622,-5.6774,-5.6952,-5.7678,-5.824,-5.8353,-5.8462,-5.8754,-5.9055,-5.9178,-5.914,-5.887,-5.8418,-5.7877,-5.7437,-5.7289,-5.7239,-5.7239,-5.7239,-5.7188,-5.7188,-5.7188,-5.7188,-5.7188,-5.7188,-5.7188,-5.7188,-5.7188,-5.7188,-5.7188,-5.7188,-5.7138,-5.6707,-5.5484,-5.3943,-5.5009,-5.5808,-5.6217,-5.6273,-5.5901,-5.5402,-5.5751,-5.6014,-5.5613,-5.4896,-5.4239,-5.398,-5.411,-5.4205,-5.4834,-5.5053,-5.4683,-5.5598,-5.4937,-5.4499,-5.6427,-5.7751,-5.7649,-5.8212,-5.8944,-5.8841,-5.8065,-5.7881,-5.7881,-5.7881,-5.7881,-5.7881,-5.7881,-5.7881,-5.7881,-5.7881,-5.7881,-5.7881,-5.7881,-5.7442,-5.6021,-5.4194,-5.416,-5.4702,-5.4126,-5.3518,-5.3518,-5.3518,-5.3518,-5.3518,-5.3685,-5.3783,-5.3817,-6.0781,-6.0671,-6.052,-6.0275,-6.0013,-6.0038,-6.0038,-6.0013,-6.0068,-5.9802,-5.9147,-5.864,-5.7397,-5.5958,-5.521,-5.4568,-5.3879,-5.3649,-5.3801,-5.467,-5.4445,-5.4896,-5.5235,-5.5535,-5.5874,-5.599,-5.648,-5.7117,-5.7638,-5.7815,-5.8305,-5.8832,-5.88,-5.9022,-5.9235,-5.9395,-5.9103,-5.8831,-5.8628,-5.8245,-5.7498,-5.7289,-5.7188,-5.7188,-5.7289,-5.7289,-5.7188,-5.7188,-5.7188,-5.7188,-5.7188,-5.7188,-5.7188,-5.7188,-5.7188,-5.7188,-5.7138,-5.6984,-5.6812,-5.6328,-5.5636,-5.4391,-5.3747,-5.4826,-5.5957,-5.4516,-5.4008,-5.3878,-5.4136,-5.4235,-5.3946,-5.398,-5.3618,-5.3618,-5.3685,-5.3751,-5.398,-5.3983,-5.4159,-5.6234,-5.6596,-5.6325,-5.7442,-5.7881,-5.7881,-5.7881,-5.8492,-5.8492,-5.7954,-5.7881,-5.7881,-5.7881,-5.7881,-5.7881,-5.7881,-5.7881,-5.7881,-5.7881,-5.7881,-5.7881,-5.7881,-5.7881,-5.7442,-5.6021,-5.5987,-5.5953,-5.46,-5.3518,-5.3518,-5.3518,-5.3585,-5.3817,-5.408,-5.411,-5.4045,-6.0597,-6.0546,-6.0349,-6.0188,-6.0007,-6.0007,-6.0045,-6.0076,-6.0197,-5.965,-5.8672,-5.8159,-5.692,-5.536,-5.4491,-5.4408,-5.3592,-5.3665,-5.4112,-5.4949,-5.5106,-5.5443,-5.5936,-5.654,-5.6692,-5.6846,-5.7264,-5.7866,-5.8464,-5.8501,-5.869,-5.8801,-5.875,-5.8874,-5.9103,-5.8912,-5.8591,-5.8332,-5.8113,-5.7831,-5.7388,-5.7188,-5.7188,-5.7188,-5.7239,-5.7289,-5.7239,-5.7188,-5.7188,-5.7188,-5.7188,-5.7188,-5.7188,-5.7188,-5.7188,-5.7188,-5.5928,-5.5999,-5.6182,-5.5069,-5.4264,-5.3649,-5.2834,-5.3315,-5.4516,-5.3449,-5.287,-5.2553,-5.2373,-5.2867,-5.3348,-5.345,-5.3518,-5.3551,-5.3518,-5.3585,-5.3822,-5.3822,-5.5277,-5.7273,-5.7814,-5.7848,-5.7881,-5.7881,-5.7881,-5.7881,-5.7954,-5.7881,-5.7881,-5.7881,-5.7881,-5.7881,-5.7881,-5.7881,-5.7881,-5.7881,-5.7881,-5.7881,-5.7881,-5.7881,-5.7881,-5.7881,-5.7881,-5.7881,-5.7306,-5.6359,-5.4465,-5.3518,-5.3518,-5.3618,-5.3817,-5.408,-5.4465,-5.4367,-5.4239,-6.0387,-6.0441,-6.0304,-6.0179,-6.0121,-5.9975,-6.0013,-6.0099,-6.0159,-5.9536,-5.8451,-5.7212,-5.6033,-5.4946,-5.3838,-5.3855,-5.4326,-5.4436,-5.4993,-5.5558,-5.5871,-5.6103,-5.6524,-5.713,-5.7431,-5.785,-5.8234,-5.8615,-5.914,-5.8723,-5.8561,-5.8549,-5.8418,-5.8461,-5.8375,-5.8201,-5.7978,-5.7932,-5.7642,-5.7401,-5.7188,-5.7188,-5.7188,-5.7188,-5.7188,-5.7239,-5.7188,-5.7188,-5.7188,-5.7188,-5.7188,-5.7188,-5.7188,-5.7188,-5.7188,-5.6403,-5.435,-5.4482,-5.5069,-5.3747,-5.3179,-5.287,-5.2553,-5.2516,-5.2587,-5.2694,-5.2516,-5.2373,-5.2445,-5.2867,-5.3314,-5.3416,-5.3585,-5.3585,-5.3551,-5.3754,-5.4059,-5.504,-5.6765,-5.7881,-5.7848,-5.7881,-5.7881,-5.7881,-5.7881,-5.7881,-5.7881,-5.7881,-5.7881,-5.7881,-5.7881,-5.7881,-5.7881,-5.7881,-5.7881,-5.7881,-5.7881,-5.7881,-5.7881,-5.7881,-5.7881,-5.7881,-5.7881,-5.7881,-5.7881,-5.7002,-5.5581,-5.4363,-5.3551,-5.3751,-5.4148,-5.4209,-5.4494,-5.4494,-5.4465,-6.0332,-6.0106,-6.0099,-6.0068,-6.0013,-6.0045,-6.0137,-6.0159,-5.9467,-5.8451,-5.7212,-5.6032,-5.5319,-5.4538,-5.4185,-5.4583,-5.4987,-5.5354,-5.5882,-5.6374,-5.6756,-5.7254,-5.7635,-5.8058,-5.8285,-5.8524,-5.8796,-5.9024,-5.871,-5.8461,-5.8245,-5.8068,-5.784,-5.7737,-5.7642,-5.7498,-5.7642,-5.769,-5.7351,-5.7239,-5.7188,-5.7188,-5.7188,-5.7188,-5.7188,-5.7188,-5.7188,-5.7188,-5.7188,-5.7188,-5.7188,-5.7188,-5.7188,-5.7188,-5.7138,-5.6845,-5.4537,-5.2903,-5.3449,-5.3715,-5.3382,-5.2553,-5.2373,-5.2373,-5.2373,-5.2373,-5.2373,-5.2373,-5.2445,-5.2727,-5.3144,-5.3314,-5.3754,-5.4093,-5.416,-5.4465,-5.4871,-5.5987,-5.7645,-5.7881,-5.7881,-5.7881,-5.7881,-5.7881,-5.7881,-5.7881,-5.7881,-5.7881,-5.7881,-5.7881,-5.7881,-5.7881,-5.7881,-5.7881,-5.7881,-5.7881,-5.7881,-5.7881,-5.7881,-5.7881,-5.7881,-5.7881,-5.7881,-5.7881,-5.7881,-5.7679,-5.7171,-5.599,-5.4805,-5.4319,-5.4539,-5.45,-5.4563,-5.5012,-5.5184,-5.9969,-5.9918,-5.9918,-5.995,-6.0013,-6.0137,-6.0015,-5.9574,-5.8881,-5.7725,-5.6144,-5.5695,-5.5081,-5.4559,-5.473,-5.528,-5.6014,-5.6088,-5.6536,-5.7295,-5.7493,-5.7919,-5.8418,-5.8577,-5.8661,-5.8821,-5.8825,-5.8828,-5.8498,-5.815,-5.7877,-5.7594,-5.7289,-5.7239,-5.7239,-5.7289,-5.7388,-5.7437,-5.7388,-5.7239,-5.7188,-5.7188,-5.7188,-5.7188,-5.7188,-5.7188,-5.7188,-5.7188,-5.7188,-5.7188,-5.7188,-5.7188,-5.7188,-5.7188,-5.5984,-5.5379,-5.3713,-5.2483,-5.2764,-5.3145,-5.2939,-5.2694,-5.2373,-5.2373,-5.2373,-5.2373,-5.2373,-5.2373,-5.2445,-5.2587,-5.2937,-5.328,-5.4023,-5.4735,-5.504,-5.5344,-5.6122,-5.6968,-5.7476,-5.778,-5.7881,-5.7881,-5.7881,-5.7881,-5.7881,-5.7881,-5.7881,-5.7881,-5.7881,-5.7881,-5.7881,-5.7881,-5.7881,-5.7881,-5.7881,-5.7881,-5.7881,-5.7881,-5.7881,-5.7881,-5.7881,-5.7881,-5.7881,-5.7881,-5.7881,-5.7712,-5.7543,-5.7223,-5.6371,-5.5985,-5.5908,-5.6391,-5.6667,-5.6909,-5.6943,-5.9472,-5.9786,-5.965,-5.9748,-6.0038,-5.9992,-5.9444,-5.8565,-5.8348,-5.7215,-5.5584,-5.5798,-5.5554,-5.514,-5.5464,-5.6124,-5.6675,-5.6932,-5.7005,-5.8023,-5.7773,-5.798,-5.8067,-5.8418,-5.8301,-5.8461,-5.854,-5.8461,-5.8412,-5.8015,-5.7546,-5.7188,-5.7188,-5.7188,-5.7188,-5.7188,-5.7239,-5.7289,-5.7289,-5.7188,-5.7188,-5.7188,-5.7188,-5.7188,-5.7188,-5.7188,-5.7188,-5.7188,-5.7188,-5.7138,-5.7188,-5.7188,-5.7188,-5.6349,-5.4783,-5.3844,-5.2694,-5.2483,-5.2373,-5.2624,-5.2553,-5.2445,-5.2373,-5.2373,-5.2373,-5.2373,-5.2373,-5.2373,-5.2445,-5.2587,-5.2903,-5.328,-5.3957,-5.5141,-5.5953,-5.6393,-5.7036,-5.7577,-5.7645,-5.7881,-5.7881,-5.7881,-5.7881,-5.7881,-5.7881,-5.7881,-5.7881,-5.7881,-5.7881,-5.7881,-5.7881,-5.7881,-5.7881,-5.7881,-5.7881,-5.7881,-5.7881,-5.7881,-5.7881,-5.7881,-5.7881,-5.7881,-5.7881,-5.7881,-5.7881,-5.7881,-5.7717,-5.7566,-5.7741,-5.7946,-5.8081,-5.8599,-5.8771,-5.8461,-5.8288,-5.9178,-5.9022,-5.9253,-5.9472,-5.9427,-5.8826,-5.8309,-5.7754,-5.7042,-5.6518,-5.5949,-5.5808,-5.5963,-5.6124,-5.6345,-5.6932,-5.7483,-5.7519,-5.7317,-5.7171,-5.7107,-5.7242,-5.7169,-5.7242,-5.7508,-5.8002,-5.815,-5.8023,-5.784,-5.7594,-5.7388,-5.7188,-5.7188,-5.7188,-5.7188,-5.7188,-5.7188,-5.7188,-5.7188,-5.7188,-5.7188,-5.7188,-5.7188,-5.7188,-5.7188,-5.7188,-5.7188,-5.7188,-5.6933,-5.6635,-5.7036,-5.7138,-5.7188,-5.4904,-5.3415,-5.2553,-5.2373,-5.2373,-5.2373,-5.2373,-5.2373,-5.2373,-5.2373,-5.2373,-5.2373,-5.2373,-5.2373,-5.2373,-5.2445,-5.2657,-5.2967,-5.3448,-5.4093,-5.5513,-5.6833,-5.7374,-5.7881,-5.7881,-5.7881,-5.7881,-5.7881,-5.7881,-5.7881,-5.7881,-5.7881,-5.7881,-5.7881,-5.7881,-5.7881,-5.7881,-5.7881,-5.7881,-5.7881,-5.7881,-5.7881,-5.7881,-5.7881,-5.7881,-5.7881,-5.7881,-5.7881,-5.7881,-5.7881,-5.7881,-5.7881,-5.7881,-5.8099,-5.8424,-5.8737,-5.8944,-5.9012,-5.9012,-5.9012,-5.8771,-5.884,-5.8902,-5.8781,-5.9178,-5.9064,-5.8653,-5.8465,-5.7826,-5.6874,-5.6941,-5.6779,-5.635,-5.6213,-5.6381,-5.6932,-5.7152,-5.7446,-5.796,-5.796,-5.7391,-5.6786,-5.641,-5.6356,-5.6273,-5.6207,-5.6749,-5.7281,-5.7627,-5.7594,-5.7401,-5.7302,-5.7239,-5.7188,-5.7188,-5.7188,-5.7188,-5.7188,-5.7188,-5.7188,-5.7188,-5.7188,-5.7188,-5.7188,-5.7188,-5.7188,-5.7188,-5.7188,-5.7188,-5.7138,-5.6829,-5.6366,-5.633,-5.5472,-5.4904,-5.3448,-5.2694,-5.2445,-5.2373,-5.2373,-5.2373,-5.2373,-5.2373,-5.2373,-5.2373,-5.2373,-5.2373,-5.2373,-5.2373,-5.2373,-5.2373,-5.2587,-5.3539,-5.4087,-5.47,-5.5818,-5.6934,-5.7712,-5.7881,-5.7881,-5.7881,-5.7881,-5.7881,-5.7881,-5.7881,-5.7881,-5.7881,-5.7881,-5.7881,-5.7881,-5.7881,-5.7881,-5.7881,-5.7881,-5.7881,-5.7881,-5.7881,-5.7881,-5.7881,-5.7881,-5.7881,-5.7881,-5.7881,-5.7881,-5.7881,-5.7881,-5.7881,-5.7881,-5.8171,-5.8667,-5.8875,-5.9012,-5.9012,-5.9012,-5.9012,-5.9012,-5.9012,-5.8698,-5.8781,-5.914,-5.8728,-5.79,-5.8348,-5.7658,-5.6344,-5.7302,-5.7418,-5.6739,-5.6832,-5.6923,-5.718,-5.7593,-5.785,-5.7997,-5.7997,-5.7391,-5.639,-5.6207,-5.5567,-5.5327,-5.5582,-5.6079,-5.6576,-5.7035,-5.7116,-5.7036,-5.7087,-5.7138,-5.7188,-5.7188,-5.7188,-5.7188,-5.7188,-5.7188,-5.7188,-5.7188,-5.7188,-5.7188,-5.7188,-5.7188,-5.7188,-5.7188,-5.7188,-5.7188,-5.6984,-5.674,-5.6055,-5.5332,-5.4259,-5.3549,-5.2694,-5.2624,-5.2373,-5.2373,-5.2373,-5.2373,-5.2373,-5.2373,-5.2373,-5.2373,-5.2373,-5.2373,-5.2373,-5.2373,-5.2373,-5.2373,-5.2986,-5.3941,-5.5063,-5.5747,-5.6055,-5.707,-5.7881,-5.7881,-5.7881,-5.7881,-5.7881,-5.7881,-5.7881,-5.7881,-5.7881,-5.7881,-5.7881,-5.7881,-5.7881,-5.7881,-5.7881,-5.7881,-5.7881,-5.7881,-5.7881,-5.7881,-5.7881,-5.7881,-5.7881,-5.7881,-5.7881,-5.7881,-5.7881,-5.7881,-5.7881,-5.7881,-5.7954,-5.8243,-5.8736,-5.8875,-5.9012,-5.9012,-5.9012,-5.9012,-5.9012,-5.9012,-5.8698,-5.8698,-5.8821,-5.8508,-5.795,-5.7457,-5.7161,-5.7141,-5.6671,-5.6806,-5.7218,-5.7412,-5.7543,-5.7601,-5.7804,-5.7997,-5.796,-5.784,-5.643,-5.5062,-5.5136,-5.4412,-5.4084,-5.4503,-5.5307,-5.5989,-5.6649,-5.674,-5.6917,-5.6984,-5.7087,-5.7188,-5.7188,-5.7188,-5.7188,-5.7188,-5.7188,-5.7188,-5.7188,-5.7188,-5.7188,-5.7188,-5.7188,-5.7188,-5.7188,-5.7188,-5.7087,-5.6528,-5.6055,-5.5308,-5.4328,-5.3315,-5.2834,-5.2445,-5.2373,-5.2373,-5.2373,-5.2373,-5.2373,-5.2373,-5.2373,-5.2373,-5.2373,-5.2373,-5.2373,-5.2373,-5.2373,-5.2373,-5.2644,-5.3485,-5.4539,-5.6314,-5.7205,-5.6867,-5.7306,-5.7679,-5.7881,-5.7881,-5.7881,-5.7881,-5.7881,-5.7881,-5.7881,-5.7881,-5.7881,-5.7881,-5.7881,-5.7881,-5.7881,-5.7881,-5.7881,-5.7881,-5.7881,-5.7881,-5.7881,-5.7881,-5.7881,-5.7881,-5.7881,-5.7881,-5.7881,-5.7881,-5.7881,-5.7881,-5.8027,-5.8099,-5.8456,-5.8806,-5.8875,-5.9012,-5.9012,-5.9012,-5.9012,-5.9012,-5.9012]}]]